     2              OBSERVATION DATA    GPS                 RINEX VERSION / TYPE
teqc 1997Jul24 19970814                                     PGM / RUN BY / DATE
                                                            COMMENT
Original Marker Name: 0916                                  COMMENT
Campaign Name: HPGN 1991                                    COMMENT
4-Character Station Name: 0916                              COMMENT
6-Character Antenna Code: TRMSST                            COMMENT
Vertical Measurement Point: BPA                             COMMENT
Vertical Offset to Rinex Ref. Point: 0.0000                 COMMENT
Radial Measurement Point: RRP                               COMMENT
Radial Offset to Rinex Ref. Point: 0.0000                   COMMENT
Antenna Height from Field Measurement: 2.2200 m             COMMENT
Original XYZ: -2421440.2657 -4578430.2582 3711030.6862      COMMENT
New XYZ position is based on association with SCEC monument COMMENT
E1F4E3C0+0011. Position of that monument is believed to be  COMMENT
valid to within 1 m horizontally; vertical accuracy         COMMENT
should be no worse than 3-times this value.                 COMMENT
                                                            COMMENT
Revised Rinex header created by UCSD GPS archive for        COMMENT
GSAC on 18-Apr-1999 (1999:108) 23:11:52 GMT                 COMMENT
For assistance contact dagnew@ucsd.edu or hjohnson@ucsd.edu COMMENT
                                                            COMMENT
HPGN-CALIF STA 09-16 1991                                   MARKER NAME
unknown NATIONAL GEODETIC SURVEY                            OBSERVER / AGENCY
482 TRIMBLE 4000 SST NP 4.30 / SP 4.20                      REC # / TYPE / VERS
20 TR 4000SST L1/L2 GEO                                     ANT # / TYPE
 -2421440.0000 -4578429.0000  3711029.0000                  APPROX POSITION XYZ
        2.2200        0.0000        0.0000                  ANTENNA: DELTA H/E/N
     1     1     0                                          WAVELENGTH FACT L1/2
     3    C1    L1    L2                                    # / TYPES OF OBSERV
     0                                                      INTERVAL
  1991     5     6    19     9   45.000000                  TIME OF FIRST OBS
  1991     5     7     1     5   60.000000                  TIME OF LAST OBS
     0                                                      # OF SATELLITES
                                                            END OF HEADER
 91  5  6 19  9 45.0000000  0  4G18G19G11G 2
  20794977.0394     120654.04048        -0.01473
  20802566.9454         -0.52157        -0.10772
  23560524.867          -0.96216        -0.23131
  23621163.680          -0.23616        -0.40931
 91  5  6 19 10  0.0000000  0  4G18G19G11G 2
  20798035.2504     136731.60848     12527.92263
  20800953.1564      -8480.53547     -6607.91162
  23553655.102      -36101.072 6    -28130.12121
  23611129.0474     -52731.30746    -41089.40561
 91  5  6 19 10 15.0000000  0  4G18G19G11G 2
  20801118.1414     152933.01548     25152.36063
  20799350.5394     -16900.74847    -13169.10762
  23546806.531      -72082.446 6    -56167.48321
  23601107.1484    -105400.57546    -82130.24261
 91  5  6 19 10 30.0000000  0  4G18G19G11G 2
  20804226.8674     169265.65448     37879.04763
  20797761.5704     -25253.69447    -19677.88962
  23539984.5314    -107937.27746    -84106.23861
  23591095.703     -158000.469 6   -123117.04221
 91  5  6 19 10 45.0000000  0  4G18G19G11G 2
  20807360.0084     185729.53548     50708.00763
  20796184.8594     -33539.40647    -26134.28662
  23533186.000     -143665.304 6   -111946.19421
  23581099.367     -210530.869 6   -164049.68221
 91  5  6 19 11  0.0000000  0  4G18G19G11G 2
  20810516.6254     202318.14148     63634.15463
  20794618.5084     -41763.74547    -32542.85562
  23526410.2734    -179272.19346   -139691.74561
  23571119.547     -262997.523 6   -204932.64621
 91  5  6 19 11 15.0000000  0  4G18G19G11G 2
  20813696.820      219027.754 8     76654.58523
  20793065.0084     -49930.53247    -38906.57862
  23519656.5394    -214761.38246   -167345.59561
  23561141.7344    -315404.12646   -245768.82161
 91  5  6 19 11 30.0000000  0  4G18G19G11G 2
  20816899.211      235860.441 8     89770.92223
  20791521.3284     -58037.87947    -45223.98562
  23512925.563     -250130.544 6   -194905.90021
  23551183.7584    -367748.69946   -286556.65961
 91  5  6 19 11 45.0000000  0  4G18G19G11G 2
  20820125.773      252815.014 8    102982.23323
  20789991.7424     -66086.74047    -51495.81862
  23506217.781     -285380.293 6   -222373.15821
  23541232.266     -420031.882 6   -327296.66121
 91  5  6 19 12  0.0000000  0  4G18G19G11G 2
  20823375.141      269889.337 8    116286.85823
  20788470.1414     -74079.41647    -57723.87362
  23499532.531     -320512.317 6   -249748.68621
  23531297.789     -472255.580 6   -367990.30721
 91  5  6 19 12 15.0000000  0  4G18G19G11G 2
  20826649.453      287092.408 8    129691.80823
  20786961.7664     -82006.70647    -63900.97662
  23492870.438     -355517.364 6   -277025.27721
  23521372.828     -524410.707 6   -408630.52821
 91  5  6 19 12 30.0000000  0  5G18G19G11G 2G16
  20829946.977      304423.126 8    143196.21923
  20785464.1804     -89869.63347    -70027.92662
  23486234.602     -390395.988 6   -304203.35321
  23511460.031     -576498.200 6   -449218.04421
  24282376.1414         -0.44255
 91  5  6 19 12 45.0000000  0  5G18G19G11G 2G16
  20833270.164      321880.160 8    156799.06123
  20783980.7814     -97669.58047    -76105.80662
  23479619.680     -425149.106 6   -331283.62421
  23501560.461     -628519.165 6   -489753.72121
  24275889.5634     -34093.73745
 91  5  6 19 13  0.0000000  0  5G18G19G11G 2G16
  20836614.086      339462.984 8    170499.91723
  20782507.2894    -105406.81847    -82134.82262
  23473030.6644    -459776.99146   -358266.32461
  23491674.898     -680473.723 6   -530237.65021
  24269426.641      -68054.058 5        -0.23831
 91  5  6 19 13 15.0000000  0  5G18G19G11G 2G16
  20839983.445      357168.043 8    184296.02523
  20781047.3134    -113085.23847    -88118.00862
  23466464.141     -494282.920 6   -385153.98921
  23481797.867     -732365.360 6   -570672.55621
  24262989.8204    -101884.86445    -26361.86361
 91  5  6 19 13 30.0000000  0  5G18G19G11G 2G16
  20843376.516      374993.161 8    198185.68023
  20779598.7504    -120706.39246    -94056.56862
  23459921.039     -528668.375 6   -411947.78221
  23471934.305     -784195.796 6   -611059.77421
  24256576.813     -135587.728 5    -52623.80521
 91  5  6 19 13 45.0000000  0  5G18G19G11G 2G16
  20846793.195      392948.264 8    212176.62023
  20778159.9454    -128260.52547    -99942.90962
  23453402.6804    -562923.07846   -438639.69061
  23462088.250     -835954.911 6   -651391.41421
  24250189.102     -169152.722 5    -78778.30921
 91  5  6 19 14  0.0000000  0  5G18G19G11G 2G16
  20850234.031      411028.920 8    226265.39523
  20776736.0634    -135751.83047   -105780.28862
  23446908.211     -597050.852 6   -465232.69021
  23452250.859     -887646.751 6   -691670.62721
  24243827.0234    -202583.71745   -104828.42361
 91  5  6 19 14 15.0000000  0  5G18G19G11G 2G16
  20853696.852      429233.561 8    240450.78223
  20775321.2194    -143181.69647   -111569.80062
  23440437.1804    -631052.90046   -491727.72961
  23442426.8754    -939272.79446   -731898.58561
  24237490.0234    -235882.06245   -130775.17361
 91  5  6 19 14 30.0000000  0  5G18G19G11G 2G16
  20857185.461      447561.325 8    254732.10723
  20773916.5084    -150551.17747   -117312.25362
  23433992.648     -664929.771 6   -518125.21421
  23432612.156     -990833.714 6   -772075.77921
  24231179.047     -269048.322 5   -156619.00121
 91  5  6 19 14 45.0000000  0  5G18G19G11G 2G16
  20860697.672      466013.774 8    269110.58923
  20772527.0554    -157858.48547   -123006.26062
  23427571.3834    -698679.49346   -544423.63961
  23422813.469    -1042327.813 6   -812200.91221
  24224892.0004    -302080.80745   -182358.54661
 91  5  6 19 15  0.0000000  0  5G18G19G11G 2G16
  20864233.039      484593.144 8    283587.96723
  20771147.9924    -165101.48247   -128650.15662
  23421172.3364    -732299.54246   -570621.01261
  23413027.570    -1093752.572 6   -852272.01921
  24218633.969     -334976.996 5   -207991.91721
 91  5  6 19 15 15.0000000  0  5G18G19G11G 2G16
  20867792.414      503295.124 8    298160.89223
  20769781.9144    -172284.10346   -134247.00762
  23414798.4614    -765793.71746   -596720.30961
  23403258.359    -1145112.054 6   -892292.26021
  24212396.703     -367740.876 5   -233522.20221
 91  5  6 19 15 30.0000000  0  5G18G19G11G 2G16
  20871372.594      522116.810 8    312827.08523
  20768425.3444    -179409.19347   -139799.02862
  23408445.8594    -799164.47246   -622723.42661
  23393493.633    -1196408.885 6   -932263.68021
  24206191.9694    -400374.86445   -258951.25061
 91  5  6 19 15 45.0000000  0  5G18G19G11G 2G16
  20874978.594      541060.707 8    327588.51323
  20767082.0634    -186474.33846   -145304.33862
  23402122.3444    -832408.90546   -648628.11561
  23383746.414    -1247640.354 6   -972184.17121
  24200004.500     -432876.467 5   -284277.17021
 91  5  6 19 16  0.0000000  0  5G18G19G11G 2G16
  20878606.477      560130.609 8    342448.12623
  20765748.8834    -193475.76647   -150760.00262
  23395821.0944    -865522.78646   -674431.08361
  23374008.2344   -1298802.45146  -1012050.59661
  24193845.289     -465241.860 5   -309496.91221
 91  5  6 19 16 15.0000000  0  5G18G19G11G 2G16
  20882259.008      579324.518 8    357404.36123
  20764429.1254    -200415.17746   -156167.33762
  23389543.4774    -898507.74046   -700133.59061
  23364285.586    -1349896.891 6  -1051864.30821
  24187711.0634    -497472.39345   -334611.60561
 91  5  6 19 16 30.0000000  0  5G18G19G11G 2G16
  20885935.570      598641.147 8    372456.22923
  20763118.9064    -207293.90947   -161527.39462
  23383291.6954    -931364.86746   -725736.47961
  23354574.813    -1400925.000 6  -1091626.33321
  24181605.625     -529569.332 5   -359622.18621
 91  5  6 19 16 45.0000000  0  5G18G19G11G 2G16
  20889635.281      618080.187 8    387603.48023
  20761821.3834    -214112.15246   -166840.32062
  23377061.3284    -964093.81746   -751239.50861
  23344875.4844   -1451886.54346  -1131336.49361
  24175519.625     -561532.174 5   -384528.27021
 91  5  6 19 17  0.0000000  0  5G18G19G11G 2G16
  20893357.305      637644.250 8    402848.14723
  20760535.4384    -220866.75446   -172103.65362
  23370859.508     -996691.135 6   -776639.95921
  23335194.2034   -1502778.27246  -1170992.24461
  24169464.5474    -593358.11145   -409327.69661
 91  5  6 19 17 15.0000000  0  5G18G19G11G 2G16
  20897103.898      657326.506 8    418184.91523
  20759262.063     -227564.668 6   -177322.81922
  23364679.0784   -1029163.52346   -801943.06561
  23325519.484    -1553607.251 6  -1210599.10921
  24163432.3914    -625053.96345   -434025.77761
 91  5  6 19 17 30.0000000  0  5G18G19G11G 2G16
  20900870.789      677128.618 8    433615.08023
  20758000.6724    -234204.41346   -182496.65662
  23358523.867    -1061509.153 6   -827147.40121
  23315859.508    -1604371.537 6  -1250155.55021
  24157428.0004    -656618.02945   -458621.11661
 91  5  6 19 17 45.0000000  0  5G18G19G11G 2G16
  20904661.484      697050.599 8    449138.64723
  20756746.938     -240785.756 6   -187624.98422
  23352393.578    -1093727.521 6   -852252.58021
  23306212.336    -1655070.789 6  -1289661.32921
  24151443.4384    -688049.77645   -483113.36561
 91  5  6 19 18  0.0000000  0  5G18G19G11G 2G16
  20908475.0164     717086.50348    464750.98263
  20755502.711     -247314.710 6   -192712.48922
  23346286.602    -1125824.163 6   -877262.89621
  23296574.945    -1705710.849 6  -1329120.98621
  24145488.375     -719354.978 5   -507507.02621
 91  5  6 19 18 15.0000000  0  5G18G19G11G 2G16
  20912311.516      737245.895 8    480459.54223
  20754274.172     -253781.222 6   -197751.34022
  23340204.664    -1157788.933 6   -902170.46321
  23286949.805    -1756281.842 6  -1368526.81221
  24139556.281     -750523.701 5   -531794.29721
 91  5  6 19 18 30.0000000  0  5G18G19G11G 2G16
  20916173.711      757541.616 8    496274.33523
  20753057.633     -260172.434 6   -202731.51922
  23334146.6414   -1189608.52046   -926964.89561
  23277341.734    -1806770.592 6  -1407868.56121
  24133656.0314    -781542.60645   -555964.84861
 91  5  6 19 18 45.0000000  0  5G18G19G11G 2G16
  20920058.8914     777962.84448    512186.92163
  20751855.039     -266499.320 6   -207661.57222
  23328119.211    -1221293.545 6   -951654.48321
  23267752.680    -1857188.004 6  -1447154.72021
  24127778.0554    -812422.68745   -580027.25561
 91  5  6 19 19  0.0000000  0  5G18G19G11G 2G16
  20923969.2114     798506.52248    528194.92263
  20750658.9774    -272764.79347   -212543.76862
  23322113.992    -1252846.754 6   -976241.34421
  23258167.8364   -1907536.67146  -1486387.31761
  24121929.4534    -843166.51745   -603983.48661
 91  5  6 19 19 15.0000000  0  5G18G19G11G 2G16
  20927901.7664     819176.48848    544301.32863
  20749483.0234    -278964.90646   -217375.03762
  23316136.1884   -1284263.79446  -1000722.11061
  23248603.430    -1957812.397 6  -1525563.07421
  24116101.500     -873770.198 5   -627830.48521
 91  5  6 19 19 30.0000000  0  5G18G19G11G 2G16
  20931858.7814     839965.97948    560500.86863
  20748312.836     -285106.292 7   -222160.54522
  23310182.672    -1315550.915 6  -1025101.63721
  23239048.406    -2008021.797 6  -1564687.15021
  24110307.0474    -904240.16045   -651573.30161
 91  5  6 19 19 45.0000000  0  5G18G19G11G 2G16
  20935836.3754     860869.03547    576788.90463
  20747154.9774    -291194.45646   -226904.57762
  23304252.797    -1346713.540 6  -1049384.16321
  23229504.1804   -2058170.34046  -1603763.81061
  24104532.055     -934581.627 5   -675215.98521
 91  5  6 19 20  0.0000000  0  5G18G19G11G 2G16
  20939836.6644     881892.45347    593170.72763
  20746007.1564    -297223.08946   -231602.23762
  23298347.297    -1377744.918 6  -1073564.40921
  23219974.2424   -2108251.43046  -1642787.90561
  24098785.6954    -964787.84345   -698753.31061
 91  5  6 19 20 15.0000000  0  5G18G19G11G 2G16
  20943859.0634     903032.66947    609643.56563
  20744870.594     -303195.112 6   -236255.76022
  23292465.836    -1408647.683 6  -1097644.43921
  23210456.883    -2158267.981 6  -1681761.71221
  24093061.5944    -994862.01945   -722187.72761
 91  5  6 19 20 30.0000000  0  5G18G19G11G 2G16
  20947904.1564     924284.31548    626203.22863
  20743743.1884    -309115.92946   -240869.39462
  23286608.125    -1439427.051 6  -1121628.31621
  23200950.984    -2208225.309 6  -1720689.36621
  24087363.2734   -1024809.33745   -745523.30461
 91  5  6 19 20 45.0000000  0  5G18G19G11G 2G16
  20951970.547      945653.151 8    642854.21723
  20742628.6954    -314979.42246   -245438.35862
  23280776.609    -1470076.657 6  -1145511.07421
  23191454.289    -2258117.251 6  -1759566.07221
  24081690.9454   -1054623.75845   -768755.30861
 91  5  6 19 21  0.0000000  0  5G18G19G11G 2G16
  20956058.0084     967130.88947    659590.05963
  20741522.0864    -320794.13446   -249969.30962
  23274967.633    -1500604.551 6  -1169298.99721
  23181974.4534   -2307951.98146  -1798398.20061
  24076038.2114   -1084313.32845   -791890.05961
 91  5  6 19 21 15.0000000  0  5G18G19G11G 2G16
  20960166.531      988726.157 7    676417.48123
  20740426.2734    -326551.50646   -254455.58362
  23269183.422    -1531001.717 6  -1192985.05421
  23172500.5704   -2357720.60546  -1837178.83161
  24070413.7584   -1113869.27745   -814920.65861
 91  5  6 19 21 30.0000000  0  5G18G19G11G 2G16
  20964298.5234    1010436.85648    693334.85463
  20739342.3204    -332253.49946   -258898.70262
  23263422.531    -1561269.967 6  -1216570.65121
  23163042.4924   -2407425.29346  -1875909.63161
  24064815.4774   -1143293.75445   -837848.84461
 91  5  6 19 21 45.0000000  0  5G18G19G11G 2G16
  20968451.1024    1032266.81047    710345.14863
  20738266.844     -337895.676 6   -263295.21122
  23257686.3134   -1591404.85746  -1240052.32561
  23153596.930    -2457061.562 6  -1914587.10521
  24059241.992    -1172582.079 5   -860670.90521
 91  5  6 19 22  0.0000000  0  5G18G19G11G 2G16
  20972629.1564    1054212.78848    727445.84963
  20737202.9224    -343481.22746   -267647.59562
  23251978.336    -1621409.059 6  -1263432.17221
  23144162.0394   -2506632.32746  -1953213.56161
  24053694.3364   -1201737.12245   -883389.14061
 91  5  6 19 22 15.0000000  0  5G18G19G11G 2G16
  20976826.7734    1076276.90947    744638.60963
  20736152.0084    -349007.89046   -271954.09962
  23246294.539    -1651280.057 6  -1286708.22921
  23134744.4144   -2556135.20046  -1991787.10061
  24048173.164    -1230756.670 5   -906001.78521
 91  5  6 19 22 30.0000000  0  5G18G19G11G 2G16
  20981049.5784    1098466.62348    761929.23863
  20735113.1484    -354468.30546   -276208.97262
  23240636.875    -1681010.082 6  -1309874.42121
  23125339.508    -2605562.622 6  -2030301.85021
  24042678.2584   -1259632.95145   -928502.74961
 91  5  6 19 22 45.0000000  0  5G18G19G11G 2G16
  20985294.938     1120776.701 8    779313.66423
  20734086.5234    -359867.50946   -280416.14862
  23235004.469    -1710604.081 6  -1332934.62121
  23115945.4064   -2654919.69046  -2068761.77961
  24037210.445    -1288371.123 5   -950896.11921
 91  5  6 19 23  0.0000000  0  5G18G19G11G 2G16
  20989561.5234    1143199.70548    796786.07163
  20733069.5004    -365212.85546   -284581.36462
  23229398.672    -1740069.035 6  -1355894.27321
  23106565.3364   -2704213.49046  -2107172.41161
  24031764.078    -1316978.287 5   -973187.41921
 91  5  6 19 23 15.0000000  0  5G18G19G11G 2G16
  20993851.6254    1165739.33648    814349.36263
  20732062.3674    -370500.65646   -288701.72962
  23223817.5784   -1769400.89046  -1378750.20061
  23097195.7034   -2753440.23746  -2145530.78461
  24026346.227    -1345450.615 5   -995373.63421
 91  5  6 19 23 30.0000000  0  5G18G19G11G 2G16
  20998163.5634    1188397.47348    832004.99663
  20731066.8984    -375728.63946   -292775.48762
  23218259.9144   -1798597.16546  -1401500.48461
  23087841.6024   -2802597.44146  -2183834.97561
  24020954.203    -1373785.588 5  -1017452.83621
 91  5  6 19 23 45.0000000  0  5G18G19G11G 2G16
  21002497.8134    1211171.35248    849750.81963
  20730085.0704    -380899.53246   -296804.75462
  23212731.0084   -1827660.30946  -1424147.02161
  23078502.203    -2851687.553 6  -2222086.87621
  24015585.797    -1401985.773 5  -1039426.98521
 91  5  6 19 24  0.0000000  0  5G18G19G11G 2G16
  21006852.6484    1234060.23648    867586.25263
  20729109.9534    -386013.79146   -300789.89862
  23207223.5704   -1856590.71246  -1446690.13961
  23069171.461    -2900711.338 6  -2260287.10821
  24010247.219    -1430051.787 5  -1061296.60421
 91  5  6 19 24 15.0000000  0  5G18G19G11G 2G16
  21011231.2664    1257069.36348    885515.38463
  20728147.8204    -391065.94646   -304726.64062
  23201745.1254   -1885382.44746  -1469125.18361
  23059855.766    -2949663.049 6  -2298431.16221
  24004930.3364   -1457978.09445  -1083057.36261
 91  5  6 19 24 30.0000000  0  5G18G19G11G 2G16
  21015631.7344    1280196.50248    903536.46863
  20727198.4224    -396058.31746   -308616.80962
  23196291.4844   -1914037.61446  -1491453.82161
  23050553.6954   -2998545.02746  -2336520.89561
  23999645.648    -1485766.782 5  -1104710.90121
 91  5  6 19 24 45.0000000  0  5G18G19G11G 2G16
  21020055.531     1303439.222 8    921647.61823
  20726260.0784    -400993.40646   -312462.33362
  23190865.023    -1942558.504 6  -1513677.82321
  23041265.734    -3047359.613 6  -2374558.10421
  23994380.3524   -1513420.11245  -1126258.94861
 91  5  6 19 25  0.0000000  0  5G18G19G11G 2G16
  21024500.2814    1326799.65648    939850.49763
  20725332.2894    -405868.96746   -316261.47262
  23185462.5084   -1970942.38646  -1535795.06561
  23031990.4614   -3096104.17246  -2412540.75061
  23989147.016    -1540935.629 5  -1147699.59221
 91  5  6 19 25 15.0000000  0  5G18G19G11G 2G16
  21028967.8284    1350275.89348    958143.60863
  20724414.1644    -410686.78546   -320015.61862
  23180087.875    -1999190.668 6  -1557806.63921
  23022728.3444   -3144780.33146  -2450470.10461
  23983935.6954   -1568314.89645  -1169034.10361
 91  5  6 19 25 30.0000000  0  5G18G19G11G 2G16
  21033457.2664    1373864.59148    976524.34663
  20723508.1334    -415449.78946   -323727.05362
  23174737.500    -2027306.155 6  -1579714.74321
  23013475.977    -3193391.081 6  -2488348.48521
  23978753.1724   -1595560.58045  -1190264.48461
 91  5  6 19 25 45.0000000  0  5G18G19G11G 2G16
  21037967.5944    1397568.52848    994994.88363
  20722614.4384    -420155.26946   -327393.65862
  23169414.5554   -2055285.90246  -1601517.07361
  23004237.4774   -3241933.54646  -2526173.65561
  23973591.602    -1622670.363 5  -1211389.00921
 91  5  6 19 26  0.0000000  0  5G18G19G11G 2G16
  21042500.2194    1421389.39548   1013556.53763
  20721730.3364    -424801.06946   -331013.76162
  23164114.9304   -2083127.42846  -1623211.70561
  22995014.6954   -3290405.43446  -2563943.83261
  23968460.195    -1649641.808 5  -1232405.72221
 91  5  6 19 26 15.0000000  0  5G18G19G11G 2G16
  21047057.2424    1445333.35948   1032214.09863
  20720857.6564    -429380.99746   -334582.53662
  23158844.7894   -2110824.35346  -1644793.65561
  22985804.1254   -3338800.46946  -2601654.12261
  23963355.797    -1676468.271 5  -1253309.42921
 91  5  6 19 26 30.0000000  0  5G18G19G11G 2G16
  21051634.0394    1469388.59548   1050958.38763
  20719998.3594    -433906.76246   -338109.10962
  23153600.1954   -2138388.05046  -1666271.79061
  22976606.5554   -3387130.21646  -2639313.53561
  23958273.547    -1703161.577 5  -1274109.41921
 91  5  6 19 26 45.0000000  0  5G18G19G11G 2G16
  21056232.4924    1493547.47848   1069783.42563
  20719143.7114    -438385.78346   -341599.25962
  23148376.820    -2165825.794 6  -1687651.79021
  22967422.4924   -3435402.05846  -2676927.84461
  23953222.313    -1729728.977 5  -1294811.29121
 91  5  6 19 27  0.0000000  0  5G18G19G11G 2G16
  21060850.250     1517819.671 7   1088696.76623
  20718300.7034    -442808.57347   -345045.58662
  23143183.320    -2193127.745 6  -1708925.96221
  22958249.2194   -3483606.37846  -2714489.52861
  23948189.6564   -1756160.70045  -1315407.43761
 91  5  6 19 27 15.0000000  0  5G18G19G11G 2G16
  21065490.5084    1542204.05648   1107697.51763
  20717472.4304    -447175.93646   -348448.73162
  23138013.8284   -2220294.42046  -1730094.73461
  22949089.586    -3531743.683 6  -2751999.00521
  23943186.2974   -1782457.79745  -1335898.67361
 91  5  6 19 27 30.0000000  0  5G18G19G11G 2G16
  21070150.8674    1566688.39147   1126776.15863
  20716647.1724    -451499.79947   -351817.98062
  23132868.0634   -2247337.61746  -1751167.29261
  22939939.367    -3579826.011 6  -2789465.64621
  23938202.3054   -1808632.29345  -1356294.38461
 91  5  6 19 27 45.0000000  0  5G18G19G11G 2G16
  21074830.7894    1591287.78447   1145944.45863
  20715838.1024    -455765.13246   -355141.61862
  23127748.3834   -2274241.94346  -1772131.63261
  22930803.0234   -3627838.19846  -2826877.61561
  23933249.6484   -1834668.65045  -1376582.45561
 91  5  6 19 28  0.0000000  0  5G18G19G11G 2G16
  21079534.0704    1616000.88647   1165201.35663
  20715035.7664    -459973.01047   -358420.48762
  23122653.2584   -2301008.19546  -1792988.38861
  22921680.289    -3675781.058 6  -2864235.57921
  23928325.7584   -1860567.82645  -1396763.60661
 91  5  6 19 28 15.0000000  0  5G18G19G11G 2G16
  21084259.3054    1640831.43947   1184549.77463
  20714248.3364    -464119.40946   -361651.44962
  23117587.2344   -2327632.06546  -1813734.19561
  22912569.875    -3723650.433 6  -2901536.27821
  23923420.141    -1886325.732 5  -1416834.72221
 91  5  6 19 28 30.0000000  0  5G18G19G11G 2G16
  21089007.3364    1665778.75447   1203989.17763
  20713470.2194    -468204.76846   -364834.85762
  23112546.0164   -2354113.89646  -1834369.32961
  22903473.883    -3771446.893 6  -2938780.16421
  23918547.7894   -1911943.02045  -1436796.23361
 91  5  6 19 28 45.0000000  0  5G18G19G11G 2G16
  21093776.6484    1690835.32447   1223513.71063
  20712702.7194    -472236.53546   -367976.49962
  23107535.1884   -2380461.04146  -1854899.51261
  22894391.609    -3819177.813 6  -2975972.98221
  23913695.438    -1937426.887 5  -1456653.79321
 91  5  6 19 29  0.0000000  0  5G18G19G11G 2G16
  21098565.6724    1716009.09147   1243129.57064
  20711947.6724    -476206.78247   -371070.20262
  23102547.828    -2406665.147 6  -1875318.23221
  22885322.453    -3866835.093 6  -3013108.42221
  23908876.0554   -1962768.98345  -1476400.85661
 91  5  6 19 29 15.0000000  0  5G18G19G11G 2G16
  21103377.4224    1741296.20147   1262833.74363
  20711203.2974    -480119.34446   -374118.95862
  23097586.3054   -2432729.71946  -1895628.23261
  22876267.367    -3914422.352 6  -3050189.30721
  23904077.008    -1987973.016 5  -1496040.38321
 91  5  6 19 29 30.0000000  0  5G18G19G11G 2G16
  21108209.5164    1766692.72047   1282623.17563
  20710466.5704    -483977.64446   -377125.43162
  23092652.523    -2458658.011 6  -1915832.04221
  22867224.1414   -3961943.01046  -3087218.29061
  23899305.7664   -2013042.37945  -1515574.95561
 91  5  6 19 29 45.0000000  0  5G18G19G11G 2G16
  21113065.2034    1792201.30847   1302499.92963
  20709744.9064    -487778.82546   -380087.39462
  23087744.664    -2484447.067 6  -1935927.35421
  22858195.453    -4009394.078 6  -3124193.04221
  23894564.305    -2037974.536 5  -1535002.60121
 91  5  6 19 30  0.0000000  0  5G18G19G11G 2G16
  21117940.0474    1817823.34347   1322465.08463
  20709035.3984    -491521.63846   -383003.88162
  23082866.313    -2510095.142 6  -1955912.81321
  22849177.9454   -4056774.11346  -3161112.45361
  23889843.6564   -2062767.77045  -1554322.00161
 91  5  6 19 30 15.0000000  0  6G18G19G11G 2G16G 6
  21122838.0704    1843560.43547   1342519.89264
  20708332.9844    -495204.42046   -385873.58662
  23078011.414    -2535600.422 6  -1975787.00921
  22840174.992    -4104081.444 6  -3197975.21121
  23885154.789    -2087420.350 5  -1573531.78821
  24360473.6884     -40497.71543
 91  5  6 19 30 30.0000000  0  6G18G19G11G 2G16G 6
  21127756.4144    1869413.14347   1362664.79163
  20707643.7664    -498826.09947   -388695.68162
  23073184.734    -2560961.766 6  -1995549.05321
  22831187.7194   -4151314.89346  -3234780.40961
  23880487.8444   -2111931.25745  -1592631.20361
  24352778.7274     -80968.94943
 91  5  6 19 30 45.0000000  0  6G18G19G11G 2G16G 6
  21132698.6254    1895380.94647   1382899.37663
  20706965.7814    -502387.20846   -391470.58062
  23068386.281    -2586179.387 6  -2015199.10221
  22822215.0704   -4198474.68146  -3271528.19461
  23875853.055    -2136300.926 5  -1611620.52821
  24345079.8204    -121414.99243
 91  5  6 19 31  0.0000000  0  6G18G19G11G 2G16G 6
  21137660.9774    1921458.48047   1403219.46863
  20706298.3054    -505892.95447   -394202.33262
  23063613.313    -2611258.247 6  -2034741.02421
  22813252.7894   -4245566.03146  -3308222.65261
  23871240.2344   -2160534.32645  -1630503.68461
  24337385.0704    -161841.13443        -0.39271
 91  5  6 19 31 15.0000000  0  6G18G19G11G 2G16G 6
  21142644.9774    1947642.73647   1423622.71663
  20705641.2274    -509346.13546   -396893.12662
  23058867.695    -2636200.673 6  -2054176.63421
  22804301.7974   -4292591.68246  -3344865.92461
  23866653.8204   -2184634.24345  -1649282.84461
  24329695.898     -202250.162 3    -31487.78521
 91  5  6 19 31 30.0000000  0  6G18G19G11G 2G16G 6
  21147646.1804    1973930.18947   1444106.37763
  20704993.4144    -512750.35347   -399545.77062
  23054145.9224   -2661010.09246  -2073508.61761
  22795365.9144   -4339554.92446  -3381460.56361
  23862094.492    -2208604.032 6  -1667960.60421
  24322007.227     -242645.720 3    -62964.71521
 91  5  6 19 31 45.0000000  0  6G18G19G11G 2G16G 6
  21152667.4304    2000321.83647   1464671.23263
  20704355.5864    -516104.19046   -402159.15762
  23049450.3754   -2685684.96446  -2092735.74561
  22786440.789    -4386454.471 6  -3418005.57421
  23857558.1644   -2232442.34945  -1686535.90861
  24314326.945     -283026.589 3    -94430.17821
 91  5  6 19 32  0.0000000  0  6G18G19G11G 2G16G 6
  21157711.1564    2026824.82947   1485322.85063
  20703726.7664    -519400.46846   -404727.69462
  23044782.2194   -2710217.81746  -2111852.21361
  22777530.4144   -4433283.10846  -3454495.32361
  23853047.688    -2256141.923 5  -1705003.07821
  24306642.844     -323385.567 3   -125878.60821
 91  5  6 19 32 15.0000000  0  6G18G19G11G 2G16G 6
  21162774.7974    2053441.95747   1506063.40263
  20703113.641     -522636.158 6   -407249.01922
  23040144.4774   -2734605.47946  -2130855.54961
  22768633.391    -4480037.672 6  -3490927.36321
  23848564.617    -2279699.956 5  -1723359.98321
  24298968.2194    -363719.75643   -157307.71461
 91  5  6 19 32 30.0000000  0  6G18G19G11G 2G16G 6
  21167862.6334    2080170.31947   1526890.63163
  20702508.3364    -525813.91346   -409725.20062
  23035527.469    -2758850.438 6  -2149747.68921
  22759749.2584   -4526720.63346  -3527303.60161
  23844108.2974   -2303118.75245  -1741608.38461
  24291297.820     -404031.870 4   -188719.63321
 91  5  6 19 32 45.0000000  0  6G18G19G11G 2G16G 6
  21172971.4614    2107011.08747   1547805.44863
  20701914.3134    -528932.48446   -412155.26662
  23030941.1884   -2782951.16546  -2168527.44361
  22750881.2584   -4573330.56046  -3563622.93461
  23839676.625    -2326396.775 5  -1759747.08021
  24283631.516     -444320.670 4   -220113.38821
 91  5  6 19 33  0.0000000  0  6G18G19G11G 2G16G 6
  21178100.0704    2133963.39847   1568807.17863
  20701332.3524    -531992.40546   -414539.62862
  23026382.9534   -2806907.94546  -2187195.02761
  22742023.7814   -4619867.99046  -3599885.76961
  23835275.680    -2349534.649 5  -1777776.59721
  24275973.477     -484586.723 4   -251489.40921
 91  5  6 19 33 15.0000000  0  6G18G19G11G 2G16G 6
  21183249.2974    2161029.99047   1589897.95963
  20700761.6174    -534990.69346   -416875.96762
  23021852.1884   -2830717.71646  -2205748.06461
  22733182.789    -4666329.944 6  -3636089.80621
  23830895.422    -2372529.543 5  -1795694.68721
  24268312.656     -524827.326 4   -282845.57521
 91  5  6 19 33 30.0000000  0  6G18G19G11G 2G16G 6
  21188420.6724    2188206.21047   1611074.16563
  20700202.8754    -537932.05046   -419167.94162
  23017348.1334   -2854384.80646  -2224189.91361
  22724353.4614   -4712721.07946  -3672238.64961
  23826550.195    -2395385.706 6  -1813504.67121
  24260657.922     -565047.173 4   -314185.58121
 91  5  6 19 33 45.0000000  0  6G18G19G11G 2G16G 6
  21193615.2664    2215496.74147   1632339.44963
  20699653.8524    -540811.54546   -421411.71562
  23012873.141    -2877904.046 6  -2242516.57221
  22715539.7424   -4759036.02546  -3708328.12561
  23822227.6724   -2418098.20246  -1831202.71461
  24253007.9694    -605241.30144   -345505.57261
 91  5  6 19 34  0.0000000  0  6G18G19G11G 2G16G 6
  21198830.5234    2242901.18447   1653693.49963
  20699117.3444    -543629.33146   -423607.39762
  23008424.8134   -2901275.56746  -2260728.10361
  22706744.3834   -4805275.04446  -3744358.43961
  23817933.2584   -2440666.99546  -1848788.78661
  24245363.6724    -645409.96944   -376805.70261
 91  5  6 19 34 15.0000000  0  6G18G19G11G 2G16G 6
  21204065.6414    2270414.57047   1675132.43363
  20698592.3524    -546390.13346   -425758.68062
  23004005.8054   -2924503.82946  -2278828.02961
  22697958.7734   -4851442.83046  -3780333.24361
  23813663.375    -2463097.141 6  -1866266.81421
  24237725.906     -685558.029 4   -408089.74821
 91  5  6 19 34 30.0000000  0  6G18G19G11G 2G16G 6
  21209322.2424    2298036.91847   1696656.27563
  20698077.5004    -549094.14046   -427865.71162
  22999610.8594   -2947588.70346  -2296816.20861
  22689186.8204   -4897539.30746  -3816252.48861
  23809423.8054   -2485388.37546  -1883636.61661
  24230089.4224    -725685.60844   -439357.86961
 91  5  6 19 34 45.0000000  0  6G18G19G11G 2G16G 6
  21214600.2424    2325769.86547   1718266.29563
  20697574.9694    -551739.08846   -429926.71562
  22995247.969    -2970527.943 6  -2314690.92121
  22680426.2974   -4943562.38146  -3852114.52961
  23805208.664    -2507538.538 6  -1900896.48721
  24222459.4064    -765790.71445   -470608.49161
 91  5  6 19 35  0.0000000  0  6G18G19G11G 2G16G 6
  21219898.2034    2353614.00447   1739962.96863
  20697081.109     -554324.219 6   -431941.11322
  22990911.0474   -2993320.39946  -2332451.24861
  22671684.7814   -4989511.10746  -3887918.64361
  23801022.9144   -2529547.11945  -1918046.03361
  24214830.859     -805872.517 5   -501840.95321
 91  5  6 19 35 15.0000000  0  6G18G19G11G 2G16G 6
  21225217.4384    2381564.43547   1761742.44563
  20696602.3674    -556854.49546   -433912.76662
  22986600.125    -3015970.876 6  -2350100.94821
  22662954.0704   -5035390.30046  -3923668.56661
  23796860.469    -2551418.800 6  -1935088.88321
  24207205.313     -845936.150 5   -533059.25021
 91  5  6 19 35 30.0000000  0  6G18G19G11G 2G16G 6
  21230555.6024    2409614.79947   1783599.82263
  20696129.656     -559335.882 6   -435846.32222
  22982315.4064   -3038485.02846  -2367644.41161
  22654232.1024   -5081205.91346  -3959368.94861
  23792721.8524   -2573159.37645  -1952029.60261
  24199587.367     -885987.517 5   -564267.95221
 91  5  6 19 35 45.0000000  0  6G18G19G11G 2G16G 6
  21235912.4304    2437764.09047   1805534.26863
  20695666.141     -561769.318 6   -437742.52122
  22978057.391    -3060863.681 6  -2385082.29921
  22645528.8204   -5126958.78346  -3995020.43861
  23788608.734    -2594769.776 5  -1968868.85321
  24191962.8834    -926027.66044   -595467.94461
 91  5  6 19 36  0.0000000  0  6G18G19G11G 2G16G 6
  21241290.3054    2466025.15147   1827555.81463
  20695214.602     -564142.019 7   -439591.38922
  22973824.7114   -3083093.84246  -2402404.47561
  22636834.7734   -5172635.92646  -4030612.92261
  23784521.977    -2616237.115 5  -1985596.64021
  24184346.8674    -966043.80644   -626649.22961
 91  5  6 19 36 15.0000000  0  6G18G19G11G 2G16G 6
  21246688.0164    2494391.64447   1849659.51163
  20694772.820     -566459.776 6   -441397.44222
  22969624.945    -3105181.133 6  -2419615.32821
  22628156.0314   -5218243.17146  -4066150.93561
  23780464.539    -2637567.030 5  -2002217.34121
  24176737.656    -1006041.996 4   -657816.54321
 91  5  6 19 36 30.0000000  0  6G18G19G11G 2G16G 6
  21252106.4694    2522866.88747   1871847.94963
  20694341.945     -568719.437 7   -443158.23022
  22965447.391    -3127122.031 6  -2436712.11821
  22619491.1954   -5263777.11746  -4101631.83761
  23776436.2114   -2658756.55145  -2018728.67061
  24169128.6884   -1046018.89144   -688967.23761
 91  5  6 19 36 45.0000000  0  6G18G19G11G 2G16G 6
  21257545.0554    2551447.95747   1894118.84863
  20693924.141     -570923.379 6   -444875.59722
  22961301.414    -3148918.815 6  -2453696.60421
  22610839.2974   -5309240.06046  -4137057.40961
  23772425.227    -2679808.169 5  -2035132.51021
  24161523.898    -1085977.161 4   -720103.43021
 91  5  6 19 37  0.0000000  0  6G18G19G11G 2G16G 6
  21263004.2504    2580132.63047   1916470.47263
  20693513.156     -573073.755 7   -446551.22922
  22957179.555    -3170573.469 6  -2470570.33721
  22602202.125    -5354634.145 6  -4172429.32321
  23768447.9614   -2700723.60045  -2051430.25661
  24153926.3134   -1125918.93844   -751226.76161
 91  5  6 19 37 15.0000000  0  6G18G19G11G 2G16G 6
  21268484.3674    2608926.23347   1938906.97963
  20693117.086     -575164.831 7   -448180.65022
  22953088.617    -3192080.250 6  -2487328.84921
  22593576.6094   -5399953.67446  -4207743.14761
  23764491.1094   -2721497.22945  -2067617.51161
  24146327.0864   -1165838.65644   -782332.91161
 91  5  6 19 37 30.0000000  0  6G18G19G11G 2G16G 6
  21273985.2424    2637833.17947   1961431.80363
  20692730.297     -577192.152 7   -449760.39222
  22949022.414    -3213434.409 6  -2503968.43421
  22584968.375    -5445194.049 6  -4242995.28821
  23760566.781    -2742124.493 5  -2083690.68121
  24138739.2584   -1205731.82844   -813418.38361
 91  5  6 19 37 45.0000000  0  6G18G19G11G 2G16G 6
  21279505.7114    2666846.06447   1984039.17663
  20692356.359     -579163.115 7   -451296.21922
  22944987.547    -3234642.988 6  -2520494.59021
  22576373.8054   -5490362.53546  -4278191.41261
  23756667.867    -2762612.659 5  -2099655.51321
  24131148.078    -1245605.900 3   -844488.95421
 91  5  6 19 37 59.9990000  0  6G18G19G11G 2G16G 6
  21285046.2224    2695963.99747   2006728.41063
  20691992.105     -581076.221 7   -452786.96122
  22940981.0504   -3255703.16546  -2536905.09761
  22567792.2844   -5535454.78846  -4313328.13761
  23752797.6054   -2782959.21345  -2115509.96561
  24123571.659    -1285456.953 4   -875541.60821
 91  5  6 19 38 14.9990000  0  6G18G19G11G 2G16G 6
  21290607.1754    2725184.00047   2029497.17863
  20691638.2064    -582938.38147   -454238.00662
  22936998.464    -3276624.131 6  -2553207.13021
  22559225.1364   -5580483.19446  -4348415.10761
  23748952.4094   -2803173.14445  -2131261.06361
  24115983.3004   -1325297.05244   -906585.72961
 91  5  6 19 38 29.9990000  0  6G18G19G11G 2G16G 6
  21296188.4804    2754512.60647   2052350.56563
  20691295.9254    -584741.00346   -455642.65962
  22933046.675    -3297395.815 6  -2569392.84621
  22550669.9254   -5625436.25446  -4383443.36861
  23745132.9404   -2823244.48645  -2146901.09261
  24108404.019    -1365115.000 4   -937612.59521
 91  5  6 19 38 44.9990000  0  6G18G19G11G 2G16G 6
  21301790.7224    2783947.81547   2075287.02463
  20690963.964     -586485.451 7   -457001.98022
  22929121.737    -3318019.629 6  -2585463.33721
  22542130.7694   -5670315.39646  -4418414.02561
  23741341.5344   -2843174.96345  -2162431.33161
  24100835.3554   -1404912.44044   -968623.45961
 91  5  6 19 38 59.9990000  0  6G18G19G11G 2G16G 6
  21307411.230     2813489.461 7   2098306.41723
  20690644.628     -588171.884 7   -458316.09322
  22925224.1834   -3338495.50846  -2601418.55861
  22533603.6984   -5715120.70546  -4453327.15761
  23737572.8474   -2862964.74345  -2177851.94061
  24093267.355    -1444689.666 4   -999618.58221
 91  5  6 19 39 14.9990000  0  6G18G19G11G 2G16G 6
  21313053.073     2843134.226 7   2121406.17123
  20690332.511     -589803.457 7   -459587.46222
  22921355.9724   -3358826.26946  -2617260.69461
  22525090.995    -5759854.994 6  -4488184.94621
  23733834.9334   -2882616.68245  -2193165.13961
  24085700.362    -1484449.672 4  -1030600.31621
 91  5  6 19 39 29.9990000  0  6G18G19G11G 2G16G 6
  21318714.8704    2872889.05947   2144591.68763
  20690031.0344    -591373.06947   -460810.54162
  22917515.894    -3379004.671 6  -2632984.10621
  22516592.011    -5804511.276 6  -4522981.93621
  23730120.487    -2902123.821 5  -2208365.52521
  24078135.9484   -1524185.56844  -1061563.22861
 91  5  6 19 39 44.9990000  0  6G18G19G11G 2G16G 6
  21324396.0264    2902748.21847   2167858.49463
  20689744.5584    -592886.22147   -461989.62962
  22913703.542    -3399036.035 6  -2648592.93821
  22508108.1284   -5849095.00346  -4557722.40361
  23726435.7304   -2921491.42545  -2223457.18161
  24070573.9954   -1563902.81044  -1092511.59961
 91  5  6 19 39 59.9990000  0  6G18G19G11G 2G16G 6
  21330098.0814    2932708.71247   2191204.26363
  20689465.4644    -594345.49047   -463126.73562
  22909919.925    -3418922.904 6  -2664089.18721
  22499635.7844   -5893608.81546  -4592408.39661
  23722776.7614   -2940722.08945  -2238442.10261
  24063024.050    -1603604.219 5  -1123447.67421
 91  5  6 19 40 14.9990000  0  6G18G19G11G 2G16G 6
  21335818.2144    2962769.58647   2214628.24963
  20689200.0424    -595751.95146   -464222.68962
  22906162.269    -3438666.097 6  -2679473.48121
  22491179.2144   -5938053.56846  -4627040.56961
  23719141.5974   -2959817.03445  -2253321.28361
  24055472.870    -1643290.781 5  -1154372.16121
 91  5  6 19 40 29.9990000  0  6G18G19G11G 2G16G 6
  21341559.097     2992935.716 7   2238134.24923
  20688941.3084    -597100.09247   -465273.19962
  22902433.909    -3458260.039 6  -2694741.47421
  22482737.7454   -5982423.72346  -4661614.62061
  23715533.175    -2978770.772 5  -2268090.45121
  24047922.214    -1682957.270 5  -1185281.00021
 91  5  6 19 40 44.9990000  0  6G18G19G11G 2G16G 6
  21347319.097     3023205.244 7   2261720.82323
  20688697.269     -598391.652 6   -466279.62022
  22898733.323    -3477706.335 6  -2709894.41521
  22474307.0424   -6026721.02246  -4696131.90361
  23711956.7454   -2997584.96545  -2282750.87661
  24040382.9804   -1722605.48145  -1216175.58261
 91  5  6 19 40 59.9990000  0  6G18G19G11G 2G16G 6
  21353100.651     3053587.002 7   2285394.84923
  20688463.105     -599617.958 7   -467235.19922
  22895061.409    -3496995.998 6  -2724925.30621
  22465893.097    -6070936.555 6  -4730585.46421
  23708404.573    -3016250.818 5  -2297295.71121
  24032839.558    -1762226.575 5  -1247049.07921
 91  5  6 19 41 14.9990000  0  6G18G19G11G 2G16G 6
  21358901.980     3084076.764 7   2309153.02723
  20688243.5424    -600782.93247   -468142.97862
  22891421.745    -3516132.739 6  -2739837.03821
  22457491.9094   -6115074.06646  -4764978.23261
  23704879.1054   -3034772.16145  -2311727.91961
  24025300.870    -1801824.579 5  -1277904.57021
 91  5  6 19 41 29.9990000  0  6G18G19G11G 2G16G 6
  21364725.401     3114677.715 7   2332997.85323
  20688031.151     -601883.169 7   -469000.31622
  22887809.089    -3535112.919 6  -2754626.76421
  22449109.2064   -6159130.20346  -4799307.59261
  23701382.6674   -3053145.45645  -2326044.78261
  24017777.839    -1841396.142 5  -1308739.46021
 91  5  6 19 41 44.9990000  0  6G18G19G11G 2G16G 6
  21370566.839     3145377.374 7   2356919.59223
  20687832.9954    -602930.91047   -469816.74862
  22884226.456    -3553948.706 6  -2769303.97921
  22440740.0194   -6203117.23646  -4833583.11261
  23697913.8704   -3071383.12645  -2340255.96461
  24010241.800    -1880953.638 5  -1339563.37021
 91  5  6 19 41 59.9990000  0  6G18G19G11G 2G16G 6
  21376430.222     3176185.648 7   2380925.96823
  20687644.769     -603916.081 7   -470584.42322
  22880670.800    -3572629.907 6  -2783860.73921
  22432383.6834   -6247024.90446  -4867796.79061
  23694467.433    -3089475.168 5  -2354353.68221
  24002722.542    -1920487.156 5  -1370368.63221
 91  5  6 19 42 14.9990000  0  6G18G19G11G 2G16G 6
  21382312.722     3207098.607 7   2405013.91023
  20687470.245     -604842.338 6   -471306.20022
  22877145.347    -3591160.033 6  -2798299.78321
  22424042.2694   -6290856.72846  -4901951.37761
  23691055.019    -3107425.276 5  -2368340.78021
  23995205.3084   -1960000.33345  -1401158.01661
 91  5  6 19 42 29.9990000  0  6G18G19G11G 2G16G 6
  21388213.917     3238111.823 7   2429179.97723
  20687305.495     -605713.661 6   -471985.16622
  22873646.019    -3609542.981 6  -2812624.13421
  22415713.4254   -6334616.76746  -4936050.01361
  23687664.5264   -3125237.48845  -2382220.41961
  23987691.769    -1999497.265 5  -1431934.73021
 91  5  6 19 42 44.9990000  0  6G18G19G11G 2G16G 6
  21394135.237     3269226.616 7   2453425.19023
  20687149.573     -606528.719 7   -472620.29322
  22870174.878    -3627777.139 6  -2826832.55421
  22407402.6984   -6378303.53346  -4970091.56361
  23684303.464    -3142910.040 5  -2395991.26621
  23980174.8554   -2038976.61545  -1462697.76461
 91  5  6 19 42 59.9990000  0  6G18G19G11G 2G16G 6
  21400077.222     3300447.661 7   2477753.19523
  20687004.589     -607282.801 7   -473207.90422
  22866736.159    -3645857.732 6  -2840921.31021
  22399102.894    -6421912.411 6  -5004072.42621
  23680966.503    -3160438.222 5  -2409649.60921
  23972666.425    -2078433.743 5  -1493443.48421
 91  5  6 19 43 14.9990000  0  6G18G19G11G 2G16G 6
  21406037.753     3331766.863 7   2502157.68723
  20686871.355     -607983.612 7   -473754.00622
  22863324.808    -3663792.270 6  -2854896.25621
  22390818.690    -6465450.958 6  -5037998.48421
  23677654.7694   -3177830.03245  -2423201.66061
  23965159.089    -2117876.461 5  -1524177.98021
 91  5  6 19 43 29.9990000  0  6G18G19G11G 2G16G 6
  21412015.503     3363188.429 7   2526641.94323
  20686749.050     -608626.724 7   -474255.14922
  22859939.800    -3681576.183 6  -2868753.82721
  22382547.511    -6508914.619 6  -5071866.19621
  23674374.2924   -3195080.92545  -2436643.93161
  23957660.1834   -2157300.48545  -1554897.88161
 91  5  6 19 43 44.9990000  0  6G18G19G11G 2G16G 6
  21418015.190     3394714.769 7   2551207.84223
  20686637.675     -609209.350 7   -474709.15722
  22856583.987    -3699206.560 6  -2882491.76521
  22374289.480    -6552300.538 6  -5105673.32121
  23671120.2374   -3212188.02945  -2449974.16061
  23950160.5194   -2196703.10645  -1585601.13561
 91  5  6 19 43 59.9990000  0  6G18G19G11G 2G16G 6
  21424035.042     3426349.673 7   2575858.33123
  20686538.011     -609727.746 7   -475113.11722
  22853260.495    -3716679.421 6  -2896106.96121
  22366050.901    -6595604.871 6  -5139416.88421
  23667890.2924   -3229147.66545  -2463189.47261
  23942665.3474   -2236080.44745  -1616284.68761
 91  5  6 19 44 14.9990000  0  6G18G19G11G 2G16G 6
  21430070.753     3458070.963 7   2600576.13723
  20686449.292     -610203.719 6   -475484.01822
  22849959.948    -3734016.507 6  -2909616.36021
  22357823.120    -6638849.438 6  -5173113.86521
  23664688.776    -3245981.693 5  -2476306.90721
  23935175.245    -2275454.581 5  -1646965.74721
 91  5  6 19 44 29.9990000  0  6G18G19G11G 2G16G 6
  21436127.019     3489890.935 7   2625370.83123
  20686367.659     -610624.599 6   -475811.99222
  22846689.347    -3751205.143 6  -2923010.07921
  22349608.433    -6682021.703 6  -5206754.51021
  23661508.995    -3262677.612 5  -2489316.73721
  23927684.495    -2314813.099 5  -1677634.59321
 91  5  6 19 44 44.9990000  0  6G18G19G11G 2G16G 6
  21442202.253     3521813.184 7   2650245.22823
  20686300.886     -610986.634 6   -476094.11422
  22843448.112    -3768241.518 6  -2936285.15721
  22341404.581    -6725117.805 6  -5240335.81121
  23658358.4954   -3279231.57945  -2502215.94761
  23920201.8234   -2354152.22945  -1708288.36861
 91  5  6 19 44 59.9990000  0  6G18G19G11G 2G16G 6
  21448297.230     3553838.957 7   2675200.29023
  20686244.089     -611288.188 6   -476329.10222
  22840233.581    -3785123.723 6  -2949440.11521
  22333218.339    -6768136.136 6  -5273856.51221
  23655236.972    -3295641.867 5  -2515003.20721
  23912714.6204   -2393470.37245  -1738925.80061
 91  5  6 19 45 14.9990000  0  6G18G19G11G 2G16G 6
  21454410.011     3585966.120 7   2700234.36423
  20686197.690     -611531.306 6   -476518.55422
  22837051.636    -3801853.698 6  -2962476.42921
  22325046.331    -6811078.504 6  -5307318.02321
  23652143.159    -3311910.641 5  -2527680.18721
  23905235.784    -2432769.542 5  -1769548.41721
 91  5  6 19 45 29.9990000  0  6G18G19G11G 2G16G 6
  21460542.112     3618192.819 7   2725345.99323
  20686160.050     -611717.654 7   -476663.77622
  22833895.597    -3818432.986 6  -2975395.34321
  22316887.940    -6853946.548 6  -5340721.61921
  23649070.1754   -3328039.68745  -2540248.29161
  23897762.003    -2472051.521 5  -1800157.65221
 91  5  6 19 45 44.9990000  0  6G18G19G11G 2G16G 6
  21466694.644     3650522.447 7   2750537.82623
  20686137.386     -611843.920 6
  22830770.370    -3834858.072 6  -2988194.09221
  22308746.081    -6896736.783 6  -5374064.58321
  23646032.2844   -3344025.40245  -2552704.71761
  23890290.5584   -2511313.09245  -1830750.99161
 91  5  6 19 45 59.9990000  0  6G18G19G11G 2G16G 6
  21472865.534     3682945.719 7   2775802.63123
  20686121.714     -611918.805 6
  22827671.097    -3851137.680 6  -3000879.48021
  22300617.276    -6939457.828 6  -5407353.63621
  23643015.7224   -3359876.37945  -2565056.13161
  23882820.815    -2550562.979 5  -1861335.19521
 91  5  6 19 46 14.9990000  0  6G18G19G11G 2G16G 6
  21479053.0194    3715467.58647   2801144.25563
  20686119.597     -611937.456 6
  22824603.222    -3867266.579 6  -3013447.44121
  22292500.980    -6982104.742 6  -5440584.92521
  23640026.597    -3375588.044 5  -2577299.00821
  23875357.6514   -2589796.25745  -1891906.50061
 91  5  6 19 46 29.9990000  0  6G18G19G11G 2G16G 6
  21485261.9644    3748087.18047   2826562.03463
  20686126.667     -611900.448 6
  22821561.284    -3883245.345 6  -3025898.40821
  22284401.440    -7024678.230 6  -5473758.99821
  23637061.292    -3391160.649 5  -2589433.50521
  23867892.948    -2629013.763 5  -1922465.49521
 91  5  6 19 46 44.9990000  0  6G18G19G11G 2G16G 6
  21491486.495     3780802.707 7   2852054.56722
  20686144.940     -611809.305 6
  22818550.214    -3899075.184 6  -3038233.33521
  22276313.417    -7067179.384 6  -5506876.70921
  23634124.815    -3406595.872 5  -2601460.98721
  23860432.4014   -2668216.94545  -1953013.33261
 91  5  6 19 46 59.9990000  0  6G18G19G11G 2G16G 6
  21497732.878     3813620.198 7   2877626.55423
  20686172.5974    -611657.61547
  22815567.1834   -3914749.86646  -3050447.36161
  22268239.894    -7109602.174 6  -5539933.35521
  23631215.7764   -3421887.52145  -2613376.58061
  23852975.8554   -2707399.52145  -1983545.09761
 91  5  6 19 47 14.9990000  0  6G18G19G11G 2G16G 6
  21503994.128     3846532.694 7   2903272.57223
  20686212.9334    -611451.95946
  22812612.8624   -3930275.93446  -3062545.58161
  22260180.800    -7151953.083 6  -5572933.98921
  23628327.5264   -3437042.28745  -2625185.48661
  23845524.323    -2746568.373 5  -2014066.17621
 91  5  6 19 47 29.9990000  0  6G18G19G11G 2G16G 6
  21510276.534     3879545.895 7   2928997.05823
  20686262.433     -611186.436 6   -476249.95022
  22809688.253    -3945647.145 6  -3074523.14121
  22252136.972    -7194226.088 7  -5605873.91721
  23625475.1754   -3452053.95845  -2636882.91161
  23838072.5114   -2785717.60145  -2044571.96361
 91  5  6 19 47 44.9990000  0  6G18G19G11G 2G16G 6
  21516578.620     3912658.625 7   2954799.10623
  20686323.4094    -610862.08946   -475997.22062
  22806791.487    -3960864.424 6  -3086380.74421
  22244107.870    -7236422.124 7  -5638753.87121
  23622646.7224   -3466923.80545  -2648469.81561
  23830626.542    -2824848.066 5  -2075063.13421
 91  5  6 19 47 59.9990000  0  6G18G19G11G 2G16G 6
  21522898.605     3945870.538 7   2980678.43423
  20686398.3314    -610479.19346   -475698.86862
  22803924.675    -3975928.092 6  -3098118.65021
  22236091.386    -7278541.553 7  -5671574.13021
  23619839.6444   -3481652.12345  -2659946.43661
  23823181.4094   -2863960.34045  -2105540.13461
 91  5  6 19 48 14.9990000  0  6G18G19G11G 2G16G 6
  21529236.480     3979182.403 7   3006635.65023
  20686481.3704    -610036.63046   -475354.02562
  22801089.362    -3990836.669 6  -3109735.70921
  22228091.511    -7320583.265 7  -5704333.82922
  23617063.0424   -3496237.88745  -2671311.98761
  23815747.292    -2903053.288 5  -2136002.07721
 91  5  6 19 48 29.9990000  0  6G18G19G11G 2G16G 6
  21535594.089     4012590.058 7   3032667.50723
  20686575.214     -609538.238 6   -474965.67522
  22798281.4094   -4005594.11746  -3121235.01561
  22220105.6984   -7362550.98247  -5737035.87962
  23614318.0734   -3510684.79845  -2682569.32561
  23808310.7144   -2942130.92845  -2166452.07361
 91  5  6 19 48 44.9990000  0  6G18G19G11G 2G16G 6
  21541969.425     4046091.634 7   3058772.54423
  20686681.894     -608985.818 6   -474535.23422
  22795501.0654   -4020202.09846  -3132617.84661
  22212131.276    -7404446.414 6  -5769681.59422
  23611592.933    -3524994.551 5  -2693719.79821
  23800874.925    -2981195.122 5  -2196891.59321
 91  5  6 19 48 59.9990000  0  6G18G19G11G 2G16G 6
  21548362.3704    4079688.32047   3084951.69363
  20686795.636     -608378.070 6   -474061.68022
  22792749.5654   -4034659.11546  -3143883.04861
  22204173.4094   -7446268.22146  -5802269.95062
  23608896.4094   -3539166.07345  -2704762.56361
  23793446.222    -3020244.493 5  -2227319.61221
 91  5  6 19 49 14.9990000  0  6G18G19G11G 2G16G 6
  21554774.519     4113379.281 7   3111204.30423
  20686923.237     -607715.250 6   -473545.21222
  22790025.1514   -4048965.34246  -3155030.74861
  22196229.659    -7488016.508 6  -5834801.00822
  23606225.964    -3553199.720 5  -2715697.89521
  23786019.808    -3059279.484 5  -2257736.41221
 91  5  6 19 49 29.9990000  0  6G18G19G11G 2G16G 6
  21561203.7304    4147167.45547   3137532.66962
  20687060.706     -606994.244 6   -472983.40622
  22787334.323    -4063117.701 6  -3166058.55321
  22188299.425    -7529688.276 7  -5867272.44222
  23603585.105    -3567092.523 5  -2726523.45321
  23778589.503    -3098297.105 5  -2288139.66821
 91  5  6 19 49 44.9990000  0  6G18G19G11G 2G16G 6
  21567649.698     4181046.862 7   3163932.12523
  20687208.917     -606220.976 6   -472380.87022
  22784668.620    -4077121.926 6  -3176970.92121
  22180381.183    -7571289.286 7  -5899688.73622
  23600966.190    -3580850.188 5  -2737243.76121
  23771173.0504   -3137303.19245  -2318533.92061
 91  5  6 19 49 59.9990000  0  6G18G19G11G 2G16G 6
  21574115.019     4215019.898 7   3190404.53723
  20687364.7064    -605392.66446   -471735.44562
  22782033.159    -4090975.112 6  -3187765.60221
  22172480.597    -7612816.778 7  -5932047.74522
  23598372.855    -3594470.200 5  -2747856.74121
  23763743.7144   -3176295.07945  -2348917.13361
 91  5  6 19 50 14.9990000  0  6G18G19G11G 2G16G 6
  21580598.6674    4249088.72547   3216951.59162
  20687534.628     -604506.642 6   -471045.05222
  22779425.6904   -4104674.58746  -3198440.50961
  22164593.042    -7654268.147 7  -5964347.43822
  23595807.550    -3607949.718 5  -2758360.27621
  23756332.394    -3215270.294 5  -2379287.34921
 91  5  6 19 50 29.9990000  0  6G18G19G11G 2G16G 6
  21587100.339     4283252.805 7   3243572.86523
  20687711.269     -603563.164 7   -470309.88922
  22776848.3234   -4118220.62346  -3208995.85161
  22156719.730    -7695643.557 7  -5996587.94522
  23593267.542    -3621289.104 5  -2768754.62421
  23748915.2224   -3254229.26345  -2409644.88261
 91  5  6 19 50 44.9990000  0  6G18G19G11G 2G16G 6
  21593619.8864    4317508.89747   3270265.83763
  20687904.401     -602565.595 6   -469532.57622
  22774298.4874   -4131616.14246  -3219433.90661
  22148860.3004   -7736946.27847  -6028771.81362
  23590757.5264   -3634491.75545  -2779042.40461
  23741506.253    -3293175.252 5  -2439992.35421
 91  5  6 19 50 59.9990000  0  6G18G19G11G 2G16G 6
  21600156.5424    4351862.40347   3297034.71563
  20688106.886     -601508.401 6   -468708.80522
  22771779.2924   -4144855.54646  -3229750.32261
  22141014.534    -7778170.559 7  -6060894.55922
  23588271.4644   -3647552.07445  -2789219.29061
  23734095.8554   -3332102.63945  -2470325.30161
 91  5  6 19 51 14.9990000  0  6G18G19G11G 2G16G 6
  21606713.472     4386315.285 7   3323881.03323
  20688318.355     -600389.189 6   -467836.70522
  22769290.308    -4157936.482 6  -3239943.24621
  22133184.409    -7819314.190 7  -6092954.45222
  23585814.6054   -3660467.86745  -2799283.55261
  23726694.1594   -3371009.35745  -2500642.13061
 91  5  6 19 51 29.9990000  0  6G18G19G11G 2G16G 6
  21613287.0734    4420865.82547   3350803.44462
  20688543.745     -599209.454 6   -466917.44822
  22766830.026    -4170860.528 6  -3250013.92221
  22125369.644    -7860378.683 7  -6124952.67922
  23583383.355    -3673240.777 5  -2809236.48121
  23719294.019    -3409896.970 5  -2530944.10421
 91  5  6 19 51 44.9990000  0  6G18G19G11G 2G16G 6
  21619879.7144    4455508.27247   3377797.46662
  20688776.323     -597974.481 6   -465955.15222
  22764400.5424   -4183632.78846  -3259966.31961
  22117569.925    -7901369.202 7  -6156893.26622
  23580979.4644   -3685875.96145  -2819082.09561
  23711898.597    -3448770.708 5  -2561235.25321
 91  5  6 19 51 59.9990000  0  6G18G19G11G 2G16G 6
  21626489.6984    4490239.41347   3404860.60662
  20689019.308     -596687.484 7   -464952.31322
  22761998.901    -4196256.312 6  -3269802.82221
  22109783.784    -7942288.842 7  -6188778.62222
  23578598.7224   -3698376.88845  -2828823.09061
  23704497.917    -3487633.882 5  -2591518.17221
 91  5  6 19 52 14.9990000  0  6G18G19G11G 2G16G 6
  21633114.4724    4525056.21647   3431990.49362
  20689276.003     -595350.944 6   -463910.86723
  22759623.0734   -4208733.47046  -3279525.27061
  22102010.558    -7983139.999 7  -6220610.61722
  23576245.2534   -3710746.07745  -2838461.43461
  23697106.644    -3526489.014 5  -2621794.82821
 91  5  6 19 52 29.9990000  0  6G18G19G11G 2G16G 6
  21639759.6904    4559967.63447   3459194.10662
  20689539.519     -593956.142 7   -462824.02422
  22757278.901    -4221055.508 6
  22094250.136    -8023914.085 7  -6252382.55622
  23573917.269    -3722974.610 5
  23689719.948    -3565327.439 5  -2652058.45421
 91  5  6 19 52 44.9990000  0  6G18G19G11G 2G16G 6
  21646419.1984    4594970.62247   3486469.06962
  20689817.706     -592505.694 7   -461693.82222
  22754963.456    -4233224.964 6
  22086506.362    -8064613.616 7  -6284096.39422
  23571617.222    -3735065.189 5
  23682329.745    -3604151.800 5  -2682311.12821
 91  5  6 19 52 59.9990000  0  6G18G19G11G 2G16G 6
  21653098.5974    4630071.42347   3513820.25462
  20690105.105     -590993.123 7   -460515.21423
  22752678.128    -4245235.264 6
  22078778.253    -8105232.002 7  -6315747.00722
  23569345.417    -3747011.511 5
  23674942.597    -3642955.818 5  -2712547.94021
 91  5  6 19 53 14.9990000  0  6G18G19G11G 2G16G 6
  21659794.8084    4665264.90847   3541243.66162
  20690403.831     -589423.178 6   -459291.89622
  22750421.2224   -4257091.16446
  22071061.753    -8145773.920 7  -6347338.03222
  23567097.706    -3758818.394 5
  23667561.1984   -3681744.22845  -2742772.60261
 91  5  6 19 53 29.9990000  0  6G18G19G11G 2G16G 6
  21666509.7064    4700553.38647   3568741.08962
  20690713.784     -587793.238 7   -458021.83222
  22748194.784    -4268790.035 6
  22063362.034    -8186237.005 7  -6378867.63222
  23564878.433    -3770483.262 5
  23660186.4254   -3720514.77145  -2772983.32461
 91  5  6 19 53 44.9990000  0  6G18G19G11G 2G16G 6
  21673241.5814    4735933.35947   3596309.80862
  20691036.542     -586106.563 6   -456707.55722
  22745997.706    -4280334.785 6
  22055676.675    -8226624.315 7  -6410338.18122
  23562680.315    -3782009.342 5
  23652808.753    -3759270.451 5  -2803182.48421
 91  5  6 19 53 59.9990000  0  6G18G19G11G 2G16G 6
  21679994.4484    4771406.77747   3623951.34562
  20691367.151     -584361.076 6   -455347.45122
  22743830.870    -4291723.420 6
  22048005.605    -8266933.694 7  -6441748.00622
  23560517.175    -3793394.629 5
  23645439.808    -3798009.400 5  -2833368.59321
 91  5  6 19 54 14.9990000  0  6G18G19G11G 2G16G 6
  21686761.2924    4806971.31847   3651663.87762
  20691711.347     -582558.665 6   -453942.99823
  22741694.3314   -4302957.84846
  22040347.3944   -8307167.09547  -6473098.64162
  23558380.487    -3804641.144 5
  23638074.1284   -3836733.65345  -2863543.26161
 91  5  6 19 54 29.9990000  0  6G18G19G11G 2G16G 6
  21693546.9254    4842626.22747   3679446.82962
  20692062.980     -580699.857 6   -452494.59322
  22739584.659    -4314038.531 6
  22032707.800    -8347324.877 7  -6504390.34122
  23556264.440    -3815749.441 5
  23630702.3554   -3875443.62045  -2893706.78561
 91  5  6 19 54 44.9990000  0  6G18G19G11G 2G16G 6
  21700348.1834    4878366.98747   3707296.67562
  20692428.784     -578789.027 6   -451005.65222
  22737505.011    -4324969.688 6
  22025079.386    -8387411.570 7  -6535626.65022
  23554175.378    -3826723.967 5
  23623339.620    -3914143.870 5  -2923862.73521
 91  5  6 19 54 59.9990000  0  6G18G19G11G 2G16G 6
  21707164.8784    4914193.96147   3735213.70762
  20692803.737     -576825.456 6   -449475.61722
  22735453.097    -4335750.586 6
  22017464.581    -8427426.271 7  -6566806.86422
  23552111.894    -3837563.856 5
  23615971.214    -3952833.669 5  -2954010.55621
 91  5  6 19 55 14.9990000  0  6G18G19G11G 2G16G 6
  21713999.5894    4950111.03547   3763200.94362
  20693185.839     -574805.011 6   -447901.26322
  22733430.987    -4346377.176 6
  22009864.784    -8467364.851 7  -6597927.76422
  23550075.050    -3848265.388 5
  23608616.081    -3991509.081 5  -2984147.16721
 91  5  6 19 55 29.9990000  0  6G18G19G11G 2G16G 6
  21720852.2304    4986118.71347   3791258.77062
  20693581.323     -572726.995 6   -446282.05022
  22731437.761    -4356848.565 6  -3394939.37821
  22002278.0654   -8507226.58547  -6628988.77962
  23548068.3154   -3858828.16045  -2953850.32561
  23601261.2224   -4030169.38845  -3014271.99761
 91  5  6 19 55 44.9990000  0  6G18G19G11G 2G16G 6
  21727720.1834    5022205.75847   3819378.44362
  20693986.112     -570602.259 6   -444626.43622
  22729473.683    -4367175.535 6  -3402986.35121
  21994705.815    -8547022.328 7  -6659998.37822
  23546081.9174   -3869262.79345  -2961981.22961
  23593903.675    -4068825.501 5  -3044393.53721
 91  5  6 19 55 59.9990000  0  6G18G19G11G 2G16G 6
  21734604.0734    5058380.84247   3847566.72362
  20694400.409     -568422.082 6   -442927.61922
  22727535.472    -4377349.337 6  -3410913.96521
  21987148.151    -8586743.245 7  -6690949.66822
  23544121.667    -3879560.461 5  -2970005.41121
  23586549.597    -4107468.753 5  -3074505.10021
 91  5  6 19 56 14.9990000  0  6G18G19G11G 2G16G 6
  21741504.0584    5094641.91547   3875822.00762
  20694826.917     -566188.003 6   -441186.79422
  22725629.644    -4387371.574 6  -3418723.47321
  21979602.956    -8626391.116 7  -6721844.04222
  23542191.237    -3889723.155 5  -2977924.40521
  23579197.722    -4146100.901 5  -3104607.96121
 91  5  6 19 56 29.9990000  0  6G18G19G11G 2G16G 6
  21748422.198     5130992.228 7   3904146.82422
  20695260.558     -563896.464 6   -439401.19422
  22723750.565    -4397238.646 6  -3426412.08921
  21972072.659    -8665962.312 7  -6752678.66722
  23540280.995    -3899747.313 5  -2985735.46921
  23571849.675    -4184718.575 5  -3134699.59121
 91  5  6 19 56 44.9990000  0  6G18G19G11G 2G16G 6
  21755353.698     5167428.330 7   3932538.49122
  20695709.831     -561550.815 6   -437573.43722
  22721902.745    -4406953.613 6  -3433982.16821
  21964556.019    -8705460.077 7  -6783456.07622
  23538400.878    -3909636.123 5  -2993441.05221
  23564504.190    -4223324.920 5  -3164782.36921
 91  5  6 19 56 59.9990000  0  6G18G19G11G 2G16G 6
  21762305.792     5203947.790 7   3960995.10722
  20696164.003     -559153.162 6   -435705.15422
  22720083.323    -4416518.712 6  -3441435.47721
  21957052.2844   -8744886.34547  -6814177.77162
  23536540.253    -3919391.940 5  -3001043.00721
  23557161.7694   -4261922.12145  -3194858.01861
 91  5  6 19 57 14.9990000  0  6G18G19G11G 2G16G 6
  21769271.5264    5240554.74947   3989519.91062
  20696631.808     -556699.451 6   -433793.18722
  22718292.730    -4425929.811 6  -3448768.78321
  21949565.6364   -8784237.16447  -6844840.67962
  23534712.237    -3929010.770 5  -3008538.22321
  23549812.894    -4300506.302 5  -3224923.51921
 91  5  6 19 57 29.9990000  0  6G18G19G11G 2G16G 6
  21776253.636     5277248.695 7   4018112.49022
  20697109.269     -554189.515 6   -431837.41422
  22716533.440    -4435186.650 6  -3455981.89021
  21942091.8154   -8823512.42747  -6875444.71362
  23532905.261    -3938492.498 5  -3015926.62721
  23542479.4724   -4339077.29345  -3254978.75161
 91  5  6 19 57 44.9990000  0  6G18G19G11G 2G16G 6
  21783252.089     5314028.423 7   4046771.91822
  20697596.261     -551624.208 6   -429838.48922
  22714800.058    -4444290.146 6  -3463075.50921
  21934629.511    -8862713.019 7  -6905990.56122
  23531129.9644   -3947838.28846  -3023209.07461
  23535140.1514   -4377636.09145  -3285024.47561
 91  5  6 19 57 59.9990000  0  6G18G19G11G 2G16G 6
  21790268.776     5350899.267 7   4075502.33922
  20698096.667     -548997.903 6   -427792.03822
  22713096.019    -4453234.727 6  -3470045.29621
  21927187.5194   -8901833.02947  -6936473.61462
  23529381.105    -3957042.681 5  -3030381.35821
  23527806.5264   -4416177.24445  -3315056.44861
 91  5  6 19 58 14.9990000  0  6G18G19G11G 2G16G 6
  21797301.925     5387860.051 7   4104302.84122
  20698607.847     -546311.856 6   -425699.03222
  22711425.019    -4462021.557 6  -3476892.16521
  21919758.2374   -8940873.73347  -6966894.87262
  23527651.190    -3966106.798 5  -3037444.33521
  23520477.5194   -4454701.94645  -3345075.60861
 91  5  6 19 58 29.9990000  0  6G18G19G11G 2G16G 6
  21804352.151     5424904.366 7   4133168.43222
  20699128.784     -543571.962 6   -423564.07322
  22709781.0264   -4470656.43946  -3483620.63861
  21912342.9404   -8979841.07447  -6997258.97262
  23525954.862    -3975036.488 5  -3044402.56921
  23513144.714    -4493216.134 5  -3375086.56621
 91  5  6 19 58 44.9990000  0  6G18G19G11G 2G16G 6
  21811417.690     5462031.157 7   4162098.29122
  20699661.245     -540778.952 6   -421387.71722
  22708169.480    -4479140.285 6  -3490231.40821
  21904940.9724   -9018736.03647  -7027566.66762
  23524281.3004   -3983832.81445  -3051256.87561
  23505816.136    -4531720.748 5  -3405090.06921
 91  5  6 19 58 59.9990000  0  6G18G19G11G 2G16G 6
  21818498.948     5499250.023 7   4191099.89922
  20700206.167     -537922.939 6   -419162.27022
  22706583.347    -4487462.992 6  -3496716.62721
  21897556.019    -9057548.514 7  -7057810.08722
  23522632.3004   -3992485.86345  -3057999.54861
  23498491.5654   -4570205.97845  -3435078.47161
 91  5  6 19 59 14.9990000  0  6G18G19G11G 2G16G 6
  21825599.097     5536556.775 7   4220169.98922
  20700759.972     -535008.066 6   -416890.95822
  22705028.753    -4495628.592 6  -3503079.41721
  21890182.5654   -9096282.58447  -7087992.40862
  23521012.964    -4001000.001 5  -3064633.94921
  23491172.284    -4608675.831 5  -3465054.89121
 91  5  6 19 59 29.9990000  0  6G18G19G11G 2G16G 6
  21832713.706     5573953.070 7   4249309.84822
  20701325.269     -532032.082 6   -414572.02922
  22703506.894    -4503634.868 6  -3509318.05521
  21882828.2614   -9134935.90947  -7118111.82162
  23519421.847    -4009373.003 5  -3071158.39021
  23483853.933    -4647128.196 5  -3495017.68921
 91  5  6 19 59 44.9990000  0  6G18G19G11G 2G16G 6
  21839847.292     5611432.972 7   4278514.85722
  20701903.519     -529000.853 6   -412210.04522
  22702011.386    -4511487.672 6  -3515437.12121
  21875487.0734   -9173514.34747  -7148172.87662
  23517849.714    -4017610.761 5  -3077577.45721
  23476539.8784   -4685569.05145  -3524971.49261
 91  5  6 19 59 59.9990000  0  6G18G19G11G 2G16G 6
  21846995.964     5648992.855 7   4307782.18922
  20702488.503     -525917.810 6   -409807.68922
  22700546.5424   -4519190.37646  -3521439.21161
  21868158.3864   -9212021.35347
  23516310.112    -4025716.799 5  -3083893.87421
  23469224.8314   -4724001.76745
 91  5  6 20  0 14.9990000  0  6G18G19G11G 2G16G 6
  21854159.253     5686641.565 7   4337118.73822
  20703086.292     -522773.878 7   -407357.88622
  22699109.8234   -4526733.83746  -3527317.22561
  21860846.1054   -9250447.98547
  23514796.4334   -4033682.00445  -3090100.55461
  23461916.0654   -4762417.54745
 91  5  6 20  0 29.9990000  0  6G18G19G11G 2G16G 6
  21861339.573     5724375.441 7   4366521.64822
  20703698.4094    -519572.45246   -404863.28262
  22697704.448    -4534121.446 6  -3533073.78721
  21853549.2064   -9288797.43947
  23513307.5974   -4041510.33145  -3096200.58661
  23454606.9094   -4800819.58045
 91  5  6 20  0 44.9990000  0  6G18G19G11G 2G16G 6
  21868537.542     5762196.059 7   4395992.14822
  20704315.198     -516311.514 7   -402322.30422
  22696329.8944   -4541351.21546  -3538707.36761
  21846266.1754   -9327067.68947  -7267824.57862
  23511836.245    -4049199.819 5  -3102192.42421
  23447308.214    -4839206.238 5
 91  5  6 20  0 59.9990000  0  6G18G19G11G 2G16G 6
  21875750.269     5800105.125 7   4425531.56522
  20704948.323     -512989.196 6   -399733.49822
  22694984.0264   -4548421.38146  -3544216.57861
  21839001.0734   -9365256.96647  -7297582.39162
  23510405.5654   -4056748.16445  -3108074.29461
  23440003.4804   -4877575.53345
 91  5  6 20  1 14.9990000  0  6G18G19G11G 2G16G 6
  21882980.534     5838098.346 7   4455136.56622
  20705589.784     -509609.214 7   -397099.76223
  22693666.2224   -4555335.63446  -3549604.29861
  21831747.3704   -9403368.92647  -7327279.95762
  23508992.159    -4064159.438 5  -3113849.34021
  23432705.6834   -4915931.33345        -0.07671
 91  5  6 20  1 29.9990000  0  6G18G19G11G 2G16G 6
  21890227.081     5876178.887 7   4484809.59922
  20706246.886     -506168.240 6   -394418.49622
  22692382.144    -4562090.551 6  -3554867.85821
  21824510.3944   -9441400.46247  -7356914.86062
  23507612.464    -4071430.780 5  -3119515.35421
  23425405.198    -4954270.446 5    -29874.64021
 91  5  6 20  1 44.9990000  0  6G18G19G11G 2G16G 6
  21897490.5264    5914349.06447   4514552.47762
  20706912.722     -502663.730 7   -391687.72422
  22691127.5504   -4568683.71746  -3560005.38161
  21817289.7844   -9479348.76547  -7386484.90162
  23506261.4404   -4078559.88145  -3125070.53361
  23418114.800    -4992590.300 5    -59734.20221
 91  5  6 20  1 59.9990000  0  6G18G19G11G 2G16G 6
  21904774.628     5952611.364 7   4544367.14122
  20707592.597     -499093.035 6   -388905.38222
  22689905.128    -4575112.386 6  -3565014.72621
  21810084.0034   -9517211.30647  -7415988.11762
  23504924.409    -4085543.854 5  -3130512.63321
  23410828.6444   -5030888.33545    -89576.75361
 91  5  6 20  2 14.9990000  0  6G18G19G11G 2G16G 6
  21912068.0114    5990944.90447   4574237.32062
  20708280.003     -495476.553 7   -386087.35422
  22688707.6834   -4581397.01846  -3569911.83161
  21802891.6674   -9555008.56747  -7445440.45862
  23503618.964    -4092403.231 5  -3135857.60721
  23403539.4404   -5069185.10045   -119418.31661
 91  5  6 20  2 29.9990000  0  6G18G19G11G 2G16G 6
  21919377.5974    6029361.12247   4604171.92362
  20708981.636     -491802.629 7   -383224.57522
  22687540.2844   -4587525.88446  -3574687.56161
  21795713.0894   -9592728.59947  -7474832.63262
  23502341.394    -4099126.621 5  -3141096.65821
  23396255.2844   -5107469.00945   -149249.85761
 91  5  6 20  2 44.9990000  0  6G18G19G11G 2G16G 6
  21926703.237     6067861.275 7   4634171.92722
  20709690.339     -488069.666 7   -380315.79422
  22686404.933    -4593497.419 6  -3579340.69321
  21788550.9014   -9630369.98047  -7504163.51562
  23501085.511    -4105712.175 5  -3146228.30821
  23388971.7844   -5145738.40645   -179070.11161
 91  5  6 20  2 59.9990000  0  6G18G19G11G 2G16G 6
  21934047.331     6106449.899 7   4664240.86922
  20710412.511     -484273.154 7   -377357.48822
  22685300.5734   -4599307.03346  -3583867.66061
  21781404.1984   -9667928.05047  -7533429.47962
  23499862.987    -4112155.816 5  -3151249.35021
  23381691.1364   -5183988.83945   -208875.56961
 91  5  6 20  3 14.9990000  0  6G18G19G11G 2G16G 6
  21941406.526     6145120.214 7   4694373.46622
  20711146.026     -480419.119 7   -374354.36122
  22684223.8944   -4604960.83046  -3588273.20861
  21774271.4804   -9705408.95547  -7562635.31662
  23498664.9094   -4118463.71445  -3156164.63261
  23374417.1984   -5222226.39545   -238671.00461
 91  5  6 20  3 29.9990000  0  6G18G19G11G 2G16G 6
  21948782.5734    6183878.47047   4724574.58862
  20711896.253     -476501.279 6   -371301.51722
  22683177.9404   -4610452.51546  -3592552.42561
  21767155.417    -9742806.267 7  -7591776.00822
  23497487.4564   -4124629.50145  -3160969.17761
  23367144.519    -5260444.964 5   -268451.63521
 91  5  6 20  3 44.9990000  0  6G18G19G11G 2G16G 6
  21956173.7304    6222730.38947   4754848.68862
  20712650.120     -472514.058 7   -368194.61122
  22682164.4404   -4615776.42546  -3596700.92861
  21760055.6904   -9780114.31847  -7620847.15662
  23496345.058    -4130647.906 5  -3165658.88921
  23359873.339    -5298638.822 5   -298213.02621
 91  5  6 20  3 59.9990000  0  6G18G19G11G 2G16G 6
  21963584.6364    6261665.85246   4785187.89562
  20713424.362     -468466.744 6   -365040.87722
  22681181.2924   -4620941.93846  -3600725.99561
  21752970.0654   -9817342.58547  -7649856.13262
  23495224.042    -4136528.156 5  -3170240.93121
  23352615.065    -5336817.442 5   -327962.52721
 91  5  6 20  4 14.9990000  0  6G18G19G11G 2G16G 6
  21971008.753     6300680.559 6   4815588.85122
  20714201.972     -464363.525 7   -361843.58122
  22680228.8864   -4625953.26946  -3604630.92461
  21745900.6514   -9854495.31047  -7678806.24162
  23494129.8554   -4142274.77445  -3174718.85261
  23345348.3154   -5374985.13545   -357703.51161
 91  5  6 20  4 29.9990000  0  6G18G19G11G 2G16G 6
  21978446.5974    6339764.82346   4846044.00462
  20714991.487     -460213.561 7   -358609.86622
  22679301.6904   -4630819.66446  -3608422.91461
  21738843.2534   -9891581.85047  -7707704.78162
  23493057.6834   -4147896.96245  -3179099.80861
  23338087.745    -5413151.205 5   -387443.23321
 91  5  6 20  4 44.9990000  0  6G18G19G11G 2G16G 6
  21985898.2304    6378925.35246   4876558.57862
  20715790.542     -456010.002 7   -355334.38322
  22678404.8314   -4635534.29946  -3612096.65261
  21731799.5894   -9928595.09947  -7736546.21362
  23492015.0974   -4153388.01145  -3183378.59061
  23330821.862    -5451308.801 5   -417176.34721
 91  5  6 20  4 59.9990000  0  6G18G19G11G 2G16G 6
  21993363.3314    6418156.00346   4907127.79962
  20716599.886     -451758.551 7   -352021.58322
  22677538.1444   -4640102.95246  -3615656.63161
  21724768.9644   -9965540.80747  -7765335.01262
  23490996.7614   -4158753.82445  -3187559.80261
  23323564.323    -5489463.792 5   -446907.43321
 91  5  6 20  5 14.9990000  0  6G18G19G11G 2G16G 6
  22000845.2064    6457468.54846   4937760.82862
  20717421.667     -447447.198 7   -348662.10622
  22676695.8394   -4644513.50246  -3619093.42561
  21717753.3704  -10002406.95247  -7794061.81762
  23489998.5504   -4163982.64345  -3191634.23661
  23316306.222    -5527604.113 5   -476627.09321
 91  5  6 20  5 29.9990000  0  6G18G19G11G 2G16G 6
  22008339.8314    6496856.32746   4968452.48562
  20718251.964     -443082.621 7   -345261.15122
  22675886.9644   -4648772.65446  -3622412.24661
  21710751.4094  -10039200.16547  -7822731.79362
  23489028.9564   -4169081.28145  -3195607.28361
  23309050.909    -5565736.479 5   -506340.54721
 91  5  6 20  5 44.9990000  0  6G18G19G11G 2G16G 6
  22015849.9014    6536321.74746   4999204.63462
  20719092.565     -438661.986 7   -341816.51922
  22675104.9564   -4652877.43946  -3625610.77961
  21703764.8234  -10075917.59147  -7851342.71062
  23488088.1834   -4174046.94345  -3199476.65661
  23301794.8084   -5603858.06545   -536045.60761
 91  5  6 20  5 59.9990000  0  6G18G19G11G 2G16G 6
  22023375.2844    6575866.06746   5030018.26262
  20719944.792     -434183.687 6   -338326.95922
  22674354.7924   -4656826.33346  -3628687.84261
  21696791.9094  -10112557.55647  -7879893.27262
  23487168.2694   -4178877.98145  -3203241.13961
  23294542.7614   -5641967.34345   -565741.05961
 91  5  6 20  6 14.9990000  0  6G18G19G11G 2G16G 6
  22030915.8234    6615493.92246   5060896.98062
  20720808.862     -429643.006 7   -334788.77822
  22673630.4094   -4660614.73946  -3631639.84861
  21689836.2614  -10149115.52447  -7908379.93562
  23486268.253    -4183570.003 5  -3206897.30721
  23287293.933    -5680059.718 5   -595423.34921
 91  5  6 20  6 29.9990000  0  6G18G19G11G 2G16G 6
  22038472.315     6655198.546 6   5091835.52722
  20721684.120     -425046.132 7   -331206.81922
  22672942.1594   -4664248.77146  -3634471.56461
  21682893.7454  -10185597.44747  -7936807.34362
  23485405.2454   -4188129.16345  -3210449.93361
  23280046.5194   -5718141.35745   -625097.25761
 91  5  6 20  6 44.9990000  0  6G18G19G11G 2G16G 6
  22046044.0504    6694983.97346   5122837.03762
  20722569.573     -420388.761 7   -327577.71422
  22672280.3084   -4667724.31946  -3637179.78661
  21675966.6284  -10221999.24947  -7965172.31862
  23484561.6124   -4192551.40745  -3213895.90361
  23272804.675    -5756208.226 5   -654759.67621
 91  5  6 20  6 59.9990000  0  6G18G19G11G 2G16G 6
  22053628.2924    6734850.72446   5153901.91162
  20723468.269     -415670.015 6   -323900.78722
  22671648.8944   -4671040.64646  -3639763.93961
  21669055.1754  -10258320.24247  -7993474.32862
  23483748.550    -4196836.205 5  -3217234.74521
  23265561.8784   -5794259.55645   -684409.96361
 91  5  6 20  7 14.9990000  0  6G18G19G11G 2G16G 6
  22061232.3394    6774808.25046   5185037.51562
  20724378.151     -410879.971 7   -320168.30822
  22671049.2454   -4674187.85446  -3642216.30961
  21662161.4014  -10294550.36547  -8021705.53562
  23482964.370    -4200973.740 5  -3220458.86921
  23258323.7534   -5832285.41545   -714040.40261
 91  5  6 20  7 29.9990000  0  6G18G19G11G 2G16G 6
  22068851.8154    6814843.52046   5216233.70661
  20725306.347     -406031.564 6   -316390.34722
  22670481.9874   -4677178.76846  -3644546.90061
  21655280.5894  -10330702.56947  -8049876.02562
  23482205.1754   -4204977.16745  -3223578.45461
  23251094.5814   -5870298.75945   -743661.10261
 91  5  6 20  7 44.9990000  0  6G18G19G11G 2G16G 6
  22076484.394     6854951.288 6   5247486.38221
  20726234.378     -401130.015 7   -312570.97822
  22669939.1904   -4680018.60546  -3646759.75261
  21648413.7454  -10366781.92347  -8077989.74762
  23481460.511    -4208851.571 5  -3226597.50521
  23243863.6904   -5908304.73045   -773276.06261
 91  5  6 20  7 59.9990000  0  6G18G19G11G 2G16G 6
  22084128.8784    6895133.34546   5278796.95261
  20727179.222     -396173.027 7   -308708.41322
  22669429.9804   -4682705.17946  -3648853.19161
  21641564.4094  -10402786.12947  -8106044.91462
  23480755.0344   -4212594.73246  -3229514.32061
  23236629.503    -5946301.239 5   -802883.62921
 91  5  6 20  8 14.9990000  0  6G18G19G11G 2G16G 6
  22091790.6204    6935393.98546   5310168.74961
  20728132.612     -391156.139 7   -304799.17622
  22668949.3474   -4685234.14246  -3650823.81261
  21634727.9804  -10438710.81847  -8134038.11862
  23480064.1054   -4216202.46145  -3232325.57361
  23229401.3944   -5984283.86845   -832480.39761
 91  5  6 20  8 29.9990000  0  6G18G19G11G 2G16G 6
  22099468.4254    6975732.42546   5341601.17261
  20729100.409     -386079.712 6   -300843.54122
  22668497.4484   -4687605.75446  -3652671.82861
  21627905.3234  -10474556.40847  -8161969.68462
  23479402.042    -4219675.478 5  -3235031.87621
  23222177.550    -6022253.005 5   -862066.65621
 91  5  6 20  8 44.9990000  0  6G18G19G11G 2G16G 6
  22107159.3154    7016152.81246   5373097.45361
  20730076.901     -380939.255 7   -296838.01322
  22668076.8084   -4689815.59246  -3654393.78261
  21621102.2844  -10510318.35847  -8189836.07662
  23478767.4484   -4223009.51745  -3237629.85961
  23214949.5264   -6060204.23645   -891638.93561
 91  5  6 20  8 59.9990000  0  6G18G19G11G 2G16G 6
  22114867.4174    7056653.38546   5404656.21561
  20731067.2304    -375736.08647   -292783.62462
  22667687.2224   -4691865.08746  -3655990.80261
  21614311.1444  -10545998.07847  -8217638.39462
  23478155.5584   -4226206.22445  -3240120.88261
  23207735.823    -6098138.961 5   -921198.39521
 91  5  6 20  9 14.9990000  0  6G18G19G11G 2G16G 6
  22122588.003     7097229.849 6   5436274.10521
  20732068.4954    -370474.28647   -288683.54462
  22667325.1204   -4693758.43546  -3657466.14261
  21607535.3864  -10581599.64147  -8245379.81062
  23477576.964    -4229269.616 5  -3242507.96421
  23200515.7144   -6136061.54245   -950748.35561
 91  5  6 20  9 29.9990000  0  6G18G19G11G 2G16G 6
  22130322.448     7137871.030 6   5467942.42721
  20733079.644     -365165.036 7   -284546.49122
  22666993.8944   -4695506.72646  -3658828.45561
  21600773.6444  -10617134.19647  -8273069.01362
  23477017.5264   -4232210.73746  -3244799.80861
  23193303.8624   -6173982.83645   -980297.32661
 91  5  6 20  9 44.9990000  0  6G18G19G11G 2G16G 6
  22138070.940     7178589.240 6   5499670.77421
  20734100.894     -359795.215 7   -280362.24122
  22666689.753    -4697096.875 6  -3660067.54221
  21594027.3154  -10652588.66147  -8300695.80862
  23476484.0114   -4235016.82845  -3246986.42461
  23186087.714    -6211889.885 5  -1009835.20221
 91  5  6 20  9 59.9990000  0  6G18G19G11G 2G16G 6
  22145833.940     7219385.615 6   5531460.02121
  20735136.276     -354363.959 7   -276130.11622
  22666418.9564   -4698528.12246  -3661182.81161
  21587295.4174  -10687962.10647  -8328259.47762
  23475971.737    -4237687.247 5  -3249067.32821
  23178880.409    -6249781.925 5  -1039361.37521
 91  5  6 20 10 14.9990000  0  6G18G19G11G 2G16G 6
  22153612.4334    7260260.32446   5563310.31862
  20736179.269     -348870.480 7   -271849.50722
  22666177.5584   -4699799.89346  -3662173.80961
  21580578.5344  -10723253.83547  -8355759.45962
  23475493.8864   -4240221.14145  -3251041.84961
  23171672.2614   -6287658.37145  -1068875.39161
 91  5  6 20 10 29.9990000  0  6G18G19G11G 2G16G 6
  22161405.558     7301209.803 6   5595218.86521
  20737237.901     -343317.796 7   -267522.76622
  22665964.612    -4700915.247 6  -3663042.92021
  21573880.2924  -10758466.84847  -8383198.11362
  23475034.800    -4242622.131 5  -3252912.78721
  23164463.1054   -6325522.22145  -1098379.59461
 91  5  6 20 10 44.9990000  0  6G18G19G11G 2G16G 6
  22169211.073     7342232.119 6   5627184.17621
  20738302.972     -337707.905 7   -263151.44222
  22665782.5654   -4701876.16946  -3663791.70361
  21567193.0974  -10793603.14247  -8410576.98362
  23474604.722    -4244892.201 5  -3254681.74621
  23157258.175    -6363375.510 5  -1127875.58521
 91  5  6 20 10 59.9990000  0  6G18G19G11G 2G16G 6
  22177030.097     7383319.483 6   5659200.17321
  20739382.284     -332048.101 7   -258741.22922
  22665626.2374   -4702690.09646  -3664425.93661
  21560518.1904  -10828670.08147  -8437901.81262
  23474195.847    -4247038.736 5  -3256354.42021
  23150058.8944   -6401225.61345  -1157369.07761
 91  5  6 20 11 14.9990000  0  6G18G19G11G 2G16G 6
  22184862.808     7424476.829 6   5691270.69821
  20740468.167     -326333.315 7   -254288.17322
  22665499.1204   -4703351.74846  -3664941.51161
  21553860.737   -10863662.493 7  -8465168.57422
  23473816.0034   -4249056.76045  -3257926.93861
  23142860.4404   -6439067.33245  -1186856.04761
 91  5  6 20 11 29.9990000  0  6G18G19G11G 2G16G 6
  22192708.105     7465710.173 6   5723400.44321
  20741570.550     -320557.070 6   -249787.22822
  22665402.6054   -4703854.89546  -3665333.58061
  21547218.5734  -10898574.08147  -8492372.35462
  23473456.4094   -4250940.08445  -3259394.52561
  23135663.526    -6476894.458 6  -1216331.64521
 91  5  6 20 11 44.9990000  0  6G18G19G11G 2G16G 6
  22200570.964     7507022.523 6   5755591.74921
  20742679.323     -314716.346 7   -245236.03622
  22665341.2144   -4704196.63846  -3665599.88161
  21540588.370   -10933401.756 7  -8519510.74622
  23473122.964    -4252685.962 5  -3260755.00221
  23128465.714    -6514703.998 5  -1245793.53521
 91  5  6 20 11 59.9990000  0  6G18G19G11G 2G16G 6
  22208444.605     7548397.548 6   5787831.89621
  20743799.948     -308827.117 6   -240647.05322
  22665303.9174   -4704393.02646
  21533974.940   -10968161.617 7  -8546596.30022
  23472816.042    -4254310.477 5  -3262020.90521
  23121271.519    -6552511.966 5  -1275254.21121
 91  5  6 20 12 14.9990000  0  6G18G19G11G 2G16G 6
  22216332.058     7589845.658 6   5820128.99121
  20744931.800     -302878.300 7   -236011.63122
  22665293.7454   -4704433.07546
  21527376.0194  -11002842.53747  -8573620.33363
  23472524.230    -4255802.786 5  -3263183.78321
  23114079.261    -6590307.476 6  -1304705.18321
 91  5  6 20 12 29.9990000  0  6G18G19G11G 2G16G 6
  22224231.214     7631362.308 6   5852479.49421
  20746074.831     -296874.383 6   -231333.27922
  22665316.3474   -4704321.08746
  21520789.7534  -11037448.78447  -8600586.18662
  23472264.808    -4257167.276 5  -3264247.08721
  23106888.5734   -6628094.71546  -1334149.69461
 91  5  6 20 12 44.9990000  0  6G18G19G11G 2G16G 6
  22232145.394     7672947.076 6   5884883.07621
  20747226.339     -290815.483 7   -226612.07722
  22665366.7924   -4704057.33446
  21514219.7844  -11071980.59247  -8627494.03362
  23472026.784    -4258404.125 5  -3265210.91021
  23099699.730    -6665874.038 6  -1363588.04921
 91  5  6 20 12 59.9990000  0  6G18G19G11G 2G16G 6
  22240070.378     7714596.395 6   5917336.95721
  20748393.011     -284704.673 6   -221850.42822
  22665445.4564   -4703644.99546
  21507661.183   -11106441.129 7  -8654346.34422
  23471819.612    -4259516.984 5  -3266078.13121
  23092509.417    -6703648.576 6  -1393022.67021
 91  5  6 20 13 14.9990000  0  6G18G19G11G 2G16G 6
  22248009.839     7756309.785 6   5949840.76121
  20749562.792     -278542.221 7   -217048.54222
  22665551.940    -4703084.551 6  -3664733.37521
  21501117.261   -11140830.702 7  -8681143.36123
  23471626.2224   -4260506.70345  -3266849.37961
  23085322.480    -6741418.771 6  -1422453.92321
 91  5  6 20 13 29.9990000  0  6G18G19G11G 2G16G 6
  22255959.089     7798092.346 6   5982398.46121
  20750747.855     -272322.480 6   -212202.01522
  22665687.6364   -4702370.34346  -3664176.85061
  21494588.855   -11175143.795 7  -8707880.78422
  23471466.0424   -4261367.39745  -3267520.10461
  23078137.706    -6779179.014 6  -1451877.40421
 91  5  6 20 13 44.9990000  0  6G18G19G11G 2G16G 6
  22263925.292     7839948.097 6   6015013.19921
  20751941.972     -266041.293 7   -207307.60522
  22665854.5814   -4701498.44346  -3663497.45861
  21488072.948   -11209376.385 7  -8734555.47723
  23471329.0504   -4262095.18045  -3268087.25361
  23070956.019    -6816925.299 6  -1481290.01721
 91  5  6 20 13 59.9990000  0  6G18G19G11G 2G16G 6
  22271902.081     7881866.589 6   6047676.81621
  20753147.776     -259708.805 6   -202373.21822
  22666046.5264   -4700479.08446  -3662703.16161
  21481572.690   -11243538.555 7  -8761175.29823
  23471219.0734   -4262700.55545  -3268559.01361
  23063771.800    -6854667.788 6  -1510699.67421
 91  5  6 20 14 14.9990000  0  6G18G19G11G 2G16G 6
  22279890.253     7923849.756 6   6080390.84021
  20754360.933     -253322.902 7   -197397.21422
  22666270.4254   -4699310.08146  -3661792.25461
  21475085.159   -11277628.140 7  -8787738.55723
  23471120.6124   -4263181.34345  -3268933.72161
  23056588.3784   -6892404.21846  -1540104.60561
 91  5  6 20 14 29.9990000  0  6G18G19G11G 2G16G 6
  22287893.628     7965906.750 6   6113162.38021
  20755591.230     -246874.164 6   -192372.24422
  22666521.5814   -4697982.18146  -3660757.53461
  21468613.0194  -11311635.70547  -8814237.90263
  23471059.456    -4263528.557 5  -3269204.32121
  23049414.972    -6930125.424 6  -1569497.67221
 91  5  6 20 14 44.9990000  0  6G18G19G11G 2G16G 6
  22295912.511     8008040.608 6   6145993.81821
  20756828.745     -240359.226 7   -187295.68722
  22666805.1674   -4696492.00346  -3659596.35861
  21462158.159   -11345557.938 7  -8840670.75823
  23471018.3554   -4263738.64745  -3269368.08461
  23042236.667    -6967827.839 6  -1598876.09121
 91  5  6 20 14 59.9990000  0  6G18G19G11G 2G16G 6
  22303943.144     8050240.757 6   6178876.91421
  20758079.558     -233788.222 6   -182175.45222
  22667120.2144   -4694849.83046  -3658316.75161
  21455717.714   -11379405.010 7  -8867045.05123
  23471001.378    -4263821.904 5
  23035066.433    -7005521.876 6  -1628247.98721
 91  5  6 20 15 14.9990000  0  6G18G19G11G 2G16G 6
  22311985.745     8092505.828 6   6211810.59221
  20759338.730     -227162.296 7   -177012.40922
  22667460.8084   -4693056.77246  -3656919.56761
  21449291.886   -11413177.956 7  -8893361.58623
  23471009.636    -4263779.790 5
  23027891.4644   -7043208.52246  -1657614.12161
 91  5  6 20 15 29.9990000  0  6G18G19G11G 2G16G 6
  22320042.073     8134838.750 6   6244797.13621
  20760611.886     -220478.348 6   -171804.16122
  22667831.1594   -4691110.06846  -3655402.65761
  21442879.253   -11446873.962 7  -8919618.16223
  23471043.472    -4263609.524 5
  23020722.4484   -7080884.92145  -1686972.26961
 91  5  6 20 15 44.9990000  0  6G18G19G11G 2G16G 6
  22328108.839     8177236.267 6   6277834.02921
  20761893.855     -213738.979 7   -166552.72622
  22668230.1754   -4689012.34946  -3653768.07461
  21436480.878   -11480495.623 7  -8945816.80823
  23471097.0584   -4263313.85445
  23013554.034    -7118553.731 5  -1716324.50221
 91  5  6 20 15 59.9990000  0  6G18G19G11G 2G16G 6
  22336190.417     8219701.045 6   6310923.33221
  20763191.401     -206941.227 6   -161255.79922
  22668659.8624   -4686760.73046  -3652013.56761
  21430096.464   -11514039.981 7  -8971955.21923
  23471180.589    -4262890.219 5  -3268707.19421
  23006387.4564   -7156212.09345  -1745668.59961
 91  5  6 20 16 14.9990000  0  6G18G19G11G 2G16G 6
  22344281.605     8262224.885 6   6344058.64821
  20764490.300     -200093.365 6   -155919.82622
  22669115.9094   -4684363.54246  -3650145.62861
  21423726.862   -11547515.327 7  -8998039.85923
  23471278.2374   -4262346.91545  -3268283.90361
  22999224.8624   -7193868.21745  -1775010.94661
 91  5  6 20 16 29.9990000  0  6G18G19G11G 2G16G 6
  22352386.323     8304810.538 6   6377242.13221
  20765807.284     -193191.920 6   -150542.09922
  22669597.4404   -4681817.38146  -3648161.60461
  21417369.933   -11580918.076 7  -9024067.92523
  23471411.120    -4261680.445 5  -3267764.64021
  22992060.105    -7231518.640 5  -1804348.85221
 91  5  6 20 16 44.9990000  0  6G18G19G11G 2G16G 6
  22360503.3624    8347459.89546   6410475.25461
  20767128.276     -186234.747 6   -145120.94722
  22670113.0894   -4679120.21346  -3646059.91861
  21411029.105   -11614246.072 7  -9050037.74323
  23471564.1204   -4260889.19645  -3267148.12061
  22984893.9094   -7269161.22745  -1833680.66261
 91  5  6 20 16 59.9990000  0  6G18G19G11G 2G16G 6
  22368630.198     8390175.740 6   6443760.18421
  20768464.948     -179218.560 6   -139653.81122
  22670654.4094   -4676269.16746  -3643838.33161
  21404701.456   -11647496.231 7  -9075946.91623
  23471732.956    -4259970.288 5  -3266432.15021
  22977732.9484   -7306793.02746  -1863004.05361
 91  5  6 20 17 14.9990000  0  6G18G19G11G 2G16G 6
  22376770.003     8432949.164 6   6477089.98721
  20769807.487     -172152.288 6   -134147.64722
  22671228.3864   -4673273.02346  -3641503.66761
  21398388.417   -11680677.327 7  -9101802.26723
  23471934.300    -4258932.410 5  -3265623.47121
  22970573.0814   -7344422.84746  -1892325.90461
 91  5  6 20 17 29.9990000  0  6G18G19G11G 2G16G 6
  22384922.464     8475781.422 6   6510465.62621
  20771164.964     -165034.213 6   -128601.11822
  22671822.1204   -4670130.16646  -3639054.68661
  21392086.495   -11713787.665 7  -9127602.48523
  23472151.7924   -4257774.23745  -3264721.04261
  22963412.222    -7382049.030 5  -1921644.92421
 91  5  6 20 17 44.9990000  0  6G18G19G11G 2G16G 6
  22393083.5734    8518674.18746   6543888.41861
  20772526.362     -157862.414 6   -123012.72322
  22672450.6594   -4666838.76046  -3636489.95761
  21385799.440   -11746825.512 7  -9153346.21223
  23472394.8394   -4256494.17645  -3263723.64861
  22956254.386    -7419669.605 6  -1950959.57521
 91  5  6 20 17 59.9990000  0  6G18G19G11G 2G16G 6
  22401258.831     8561632.532 6   6577362.30621
  20773905.644     -150631.717 6   -117378.44022
  22673103.7614   -4663393.81146  -3633805.58261
  21379527.964   -11779785.620 7  -9179029.37523
  23472667.151    -4255086.995 5  -3262627.18121
  22949095.917    -7457279.518 5  -1980265.91521
 91  5  6 20 18 14.9990000  0  6G18G19G11G 2G16G 6
  22409446.7764    8604659.90446   6610889.98161
  20775291.167     -143338.089 6   -111695.11822
  22673791.2454   -4659791.57346  -3630998.64561
  21373271.308   -11812664.149 7  -9204648.96123
  23472956.4174   -4253549.15345  -3261428.94661
  22941941.7694   -7494874.84546  -2009560.90061
 91  5  6 20 18 29.9990000  0  6G18G19G11G 2G16G 6
  22417646.940     8647750.007 6   6644466.54621
  20776692.386     -135987.691 6   -105967.56222
  22674505.4094   -4656038.06446  -3628073.83361
  21367028.956   -11845467.121 7  -9230209.67523
  23473270.792    -4251886.983 5  -3260133.79121
  22934789.1904   -7532461.69246  -2038849.27561
 91  5  6 20 18 44.9990000  0  6G18G19G11G 2G16G 6
  22425859.3704    8690902.84346   6678091.97661
  20778102.167     -128579.937 6   -100195.30922
  22675246.2064   -4652132.90046  -3625030.84761
  21360801.597   -11878194.249 7  -9255711.29023
  23473618.5814   -4250100.09545  -3258741.46261
  22927637.722    -7570039.611 6  -2068130.68921
 91  5  6 20 18 59.9990000  0  6G18G19G11G 2G16G 6
  22434082.7224    8734121.60246   6711768.79461
  20779522.5344    -121111.51946    -94375.78862
  22676020.3944   -4648072.81046  -3621867.14261
  21354587.440   -11910842.209 7  -9281151.21323
  23473978.1364   -4248185.10545  -3257249.30661
  22920490.339    -7607605.356 6  -2097402.62921
 91  5  6 20 19 14.9990000  0  6G18G19G11G 2G16G 6
  22442319.487     8777400.035 6   6745492.10121
  20780953.980     -113588.321 6    -88513.57722
  22676822.3474   -4643863.91146  -3618587.48161
  21348390.769   -11943416.772 7  -9306533.94923
  23474365.605    -4246148.279 5  -3255662.22221
  22913344.495    -7645164.686 6  -2126669.56021
 91  5  6 20 19 29.9990000  0  6G18G19G11G 2G16G 6
  22450563.3234    8820727.66846   6779253.73861
  20782393.565     -106020.405 6    -82616.52422
  22677649.5894   -4639516.50946  -3615199.89461
  21342202.1364  -11975928.13347  -9331867.43163
  23474778.1904   -4244000.17145  -3253988.42761
  22906194.831    -7682727.983 6  -2155939.58321
 91  5  6 20 19 44.9990000  0  6G18G19G11G 2G16G 6
  22458821.7064    8864125.92146   6813070.41561
  20783844.690      -98386.012 6    -76667.66922
  22678508.2374   -4635009.07446  -3611687.61161
  21336031.761   -12008354.547 7  -9357134.72523
  23475208.4094   -4241719.12045  -3252211.04161
  22899051.097    -7720273.484 6  -2185195.74521
 91  5  6 20 19 59.9990000  0  6G18G19G11G 2G16G 6
  22467092.3394    8907584.71546   6846934.26061
  20785312.870      -90695.014 6    -70674.71122
  22679393.8314   -4630351.26946  -3608058.15661
  21329874.698   -12040705.841 7  -9382343.48623
  23475667.159    -4239315.028 5  -3250337.77021
  22891908.620    -7757810.928 6  -2214445.63221
 91  5  6 20 20 14.9990000  0  6G18G19G11G 2G16G 6
  22475375.1284    8951102.88146   6880844.37061
  20786783.222      -82948.126 6    -64638.19922
  22680308.8624   -4625543.83646  -3604312.10861
  21323734.753   -12072982.663 7  -9407494.20823
  23476146.917    -4236788.812 5  -3248369.34721
  22884765.7374   -7795341.07746  -2243689.82261
 91  5  6 20 20 29.9990000  0  6G18G19G11G 2G16G 6
  22483667.2694    8994684.80746   6914804.15961
  20788271.292      -75140.831 6    -58554.61522
  22681251.1514   -4620582.60246  -3600446.22161
  21317605.605   -12105180.643 7  -9432583.50323
  23476651.730    -4234136.540 5  -3246302.69521
  22877626.948    -7832859.618 6  -2272924.98021
 91  5  6 20 20 44.9990000  0  6G18G19G11G 2G16G 6
  22491972.9254    9038338.00046   6948819.47961
  20789768.698      -67265.295 6    -52417.86022
  22682224.761    -4615459.855 6  -3596454.48121
  21311496.073   -12137292.059 7  -9457605.34123
  23477179.823    -4231350.596 5  -3244131.88721
  22870489.401    -7870358.681 6  -2302144.95421
 91  5  6 20 20 59.9990000  0  6G18G19G11G 2G16G 6
  22500293.3554    9082049.89046   6982880.54661
  20791278.261      -59333.725 6    -46237.43922
  22683230.2924   -4610187.82746  -3592346.41561
  21305399.339   -12169328.921 7  -9482569.07923
  23477735.6984   -4228443.04645  -3241866.30361
  22863358.0504   -7907850.46846  -2331359.26661
 91  5  6 20 21 14.9990000  0  6G18G19G11G 2G16G 6
  22508620.7374    9125818.79046   7016986.02861
  20792796.4014     -51347.23946    -40014.23162
  22684262.6124   -4604767.89546  -3588123.10361
  21299315.964   -12201292.656 7  -9507475.84823
  23478312.0504   -4225415.60945  -3239507.33461
  22856222.331    -7945336.234 6  -2360568.88921
 91  5  6 20 21 29.9990000  0  6G18G19G11G 2G16G 6
  22516960.0114    9169638.97746   7051131.47561
  20794329.276      -43311.382 6    -33752.55022
  22685318.753    -4599205.831 6  -3583789.04321
  21293245.8704  -12233189.10347  -9532330.18463
  23478904.519    -4222273.831 5  -3237059.24521
  22849090.956    -7982821.698 6  -2389778.27021
 91  5  6 20 21 44.9990000  0  6G18G19G11G 2G16G 6
  22525312.3784    9213518.28746   7085322.98961
  20795865.0584     -35218.01946    -27446.06162
  22686407.565    -4593493.547 6  -3579337.92321
  21287191.761   -12265009.871 7  -9557125.54223
  23479535.5734   -4219009.97145  -3234516.04961
  22841956.9484   -8020298.77146  -2418981.11761
 91  5  6 20 21 59.9990000  0  6G18G19G11G 2G16G 6
  22533672.581     9257458.867 6   7119562.24821
  20797419.2924     -27064.62046    -21092.78862
  22687521.6904   -4587628.55646  -3574767.81461
  21281151.472   -12296752.487 7  -9581860.00423
  23480171.6364   -4215621.90845  -3231876.05161
  22834826.542    -8057764.748 6  -2448175.30521
 91  5  6 20 22 14.9990000  0  6G18G19G11G 2G16G 6
  22542044.0654    9301459.29646   7153848.13761
  20798978.5034     -18852.53746    -14693.79062
  22688667.737    -4581612.554 6  -3570080.03221
  21275125.526   -12328418.371 7  -9606534.67323
  23480847.253    -4212110.896 5  -3229140.24221
  22827698.3624   -8095221.01046  -2477361.94561
 91  5  6 20 22 29.9990000  0  6G18G19G11G 2G16G 6
  22550429.4954    9345515.52746   7188177.52161
  20800556.2614     -10585.46746     -8251.95262
  22689839.105    -4575449.145 6  -3565277.38421
  21269112.995   -12360011.033 7  -9631152.28723
  23481535.7304   -4208480.84445  -3226311.69461
  22820574.597    -8132671.352 6  -2506543.95121
 91  5  6 20 22 44.9990000  0  6G18G19G11G 2G16G 6
  22558824.7144    9389633.85246   7222555.27661
  20802139.3084      -2256.83246     -1762.13162
  22691041.683    -4569131.965 6  -3560354.92521
  21263116.987   -12391524.017 7  -9655707.81423
  23482251.495    -4204725.406 5  -3223385.44821
  22813449.620    -8170109.142 6  -2535716.18421
 91  5  6 20 22 59.9990000  0  6G18G19G11G 2G16G 6
  22567230.5584    9433811.08146   7256978.93361
  20803735.4334       6130.60246      4773.50062
  22692273.565    -4562663.906 6  -3555314.89921
  21257135.128   -12422960.058 7  -9680203.38623
  23482991.730    -4200847.676 5  -3220363.91621
  22806326.4804   -8207537.33646  -2564880.93461
 91  5  6 20 23 14.9990000  0  6G18G19G11G 2G16G 6
  22575648.4254    9478042.82946   7291445.07661
  20805339.2764      14572.85946     11351.85362
  22693532.855    -4556049.258 6  -3550160.63521
  21251166.870   -12454323.414 7  -9704642.32523
  23483749.1364   -4196851.94845  -3217250.41561
  22799205.9644   -8244959.91846  -2594041.31961
 91  5  6 20 23 29.9990000  0  6G18G19G11G 2G16G 6
  22584078.0344    9522339.54046   7325961.84161
  20806962.3314      23080.84846     17981.42762
  22694820.972    -4549277.228 6  -3544883.74321
  21245213.480   -12485603.332 7  -9729016.24223
  23484532.3004   -4192727.50445  -3214036.61661
  22792088.5974   -8282366.18746  -2623188.99761
 91  5  6 20 23 44.9990000  0  6G18G19G11G 2G16G 6
  22592518.6754    9566690.56446   7360520.92561
  20808589.4254      31644.17646     24654.12162
  22696136.245    -4542358.293 6  -3539492.38021
  21239276.034   -12516810.029 7  -9753333.10423
  23485341.8154   -4188485.17345  -3210730.98061
  22784969.6364   -8319766.21546  -2652331.80261
 91  5  6 20 23 59.9990000  0  6G18G19G11G 2G16G 6
  22600969.4174    9611101.00846   7395126.30861
  20810232.7304      40268.33246     31374.21562
  22697483.1904   -4535287.06346  -3533982.34461
  21233351.409   -12547937.926 7  -9777588.56423
  23486172.659    -4184119.512 5  -3207329.21121
  22777856.8394   -8357154.81046  -2681465.70161
 91  5  6 20 24 14.9990000  0  6G18G19G11G 2G16G 6
  22609430.3314    9655572.25046   7429779.06861
  20811883.3004      48954.97046     38142.99562
  22698858.120    -4528062.097 6  -3528352.51221
  21227443.9254  -12578985.59347  -9801781.51363
  23487028.7844   -4179629.07245  -3203830.21961
  22770743.2224   -8394530.29846  -2710589.38661
 91  5  6 20 24 29.9990000  0  6G18G19G11G 2G16G 6
  22617903.7924    9700092.20946   7464469.78861
  20813547.651       57692.258 6     44951.24522
  22700260.6054   -4520695.43146  -3522612.26761
  21221548.269   -12609964.925 7  -9825921.20623
  23487900.980    -4175026.019 5  -3200243.48821
  22763629.651    -8431904.456 6  -2739712.03321
 91  5  6 20 24 44.9990000  0  6G18G19G11G 2G16G 6
  22626388.237     9744673.117 6   7499207.99421
  20815219.8784      66492.74546     51808.74162
  22701692.464    -4513174.890 6  -3516752.11821
  21215668.8314  -12640863.61447  -9849998.06263
  23488799.0584   -4170298.07545  -3196559.46161
  22756521.065    -8469265.167 6  -2768824.20421
 91  5  6 20 24 59.9990000  0  6G18G19G11G 2G16G 6
  22634881.933     9789313.713 6   7533992.71721
  20816911.3784      75355.56446     58714.79962
  22703150.565    -4505501.263 6  -3510772.68321
  21209804.6594  -12671682.30947  -9874012.59063
  23489723.1284   -4165446.53045  -3192779.09161
  22749412.7924   -8506613.09646  -2797926.41861
 91  5  6 20 25 14.9990000  0  6G18G19G11G 2G16G 6
  22643386.1204    9834009.16046   7568820.17861
  20818606.4334      84276.03546     65665.78462
  22704637.2844   -4497679.18346  -3504677.56261
  21203953.7924  -12702425.50947  -9897968.28963
  23490666.862    -4160476.157 5  -3188906.14821
  22742309.2064   -8543952.71446  -2827022.15961
 91  5  6 20 25 29.9990000  0  6G18G19G11G 2G16G 6
  22651904.144     9878759.291 6   7603690.24421
  20820316.6444      93254.41246     72661.89162
  22706157.7224   -4489708.66046  -3498466.78361
  21198117.878   -12733093.210 7  -9921865.15523
  23491639.0734   -4155386.73845  -3184940.43061
  22735204.4644   -8581283.80746  -2856111.25461
 91  5  6 20 25 44.9990000  0  6G18G19G11G 2G16G 6
  22660428.136     9923556.560 6   7638597.03921
  20822033.1284     102283.39946     79697.43362
  22707698.0034   -4481597.27846  -3492146.23761
  21192295.308   -12763692.806 7  -9945708.95423
  23492628.503    -4150185.667 5  -3180887.71821
  22728099.8154   -8618613.87146  -2885199.54661
 91  5  6 20 25 59.9990000  0  6G18G19G11G 2G16G 6
  22668962.495     9968404.368 6   7673543.21521
  20823762.0424     111366.91746     86775.46762
  22709272.2614   -4473341.25246  -3485712.97861
  21186486.144   -12794220.445 7  -9969496.68223
  23493635.776    -4144869.621 5  -3176745.38521
  22721000.6054   -8655939.11646  -2914284.08461
 91  5  6 20 26 14.9990000  0  6G18G19G11G 2G16G 6
  22677507.917    10013315.271 6   7708538.56321
  20825501.5814     120517.91746     93906.08962
  22710871.8624   -4464927.78046  -3479157.03361
  21180692.886   -12824663.222 7  -9993218.28123
  23494676.5034   -4139425.87945  -3172503.58461
  22713897.4724   -8693246.46246  -2943354.67561
 91  5  6 20 26 29.9990000  0  6G18G19G11G 2G16G 6
  22686066.144    10058280.877 6   7743576.53321
  20827255.9954     129728.01346    101082.76162
  22712502.0894   -4456365.57946  -3472485.20261
  21174914.355   -12855029.530 7 -10016880.29723
  23495736.3944   -4133862.88845  -3168168.83361
  22706802.1364   -8730544.45346  -2972417.97861
 91  5  6 20 26 44.9990000  0  6G18G19G11G 2G16G 6
  22694633.878    10103303.838 6   7778659.18821
  20829020.9804     139000.33046    108307.91462
  22714157.2454   -4447651.59746  -3465695.09061
  21169151.956   -12885316.427 7 -10040480.42723
  23496814.105    -4128178.275 5  -3163739.35021
  22699705.1984   -8767829.94946  -3001471.54461
 91  5  6 20 26 59.9990000  0  6G18G19G11G 2G16G 6
  22703210.3474   10148377.51046   7813781.37061
  20830794.839      148328.522 6    115576.61122
  22715845.7924   -4438792.36946  -3458791.79461
  21163401.237   -12915530.264 7 -10064023.63223
  23497916.5894   -4122378.65345  -3159220.23861
  22692612.8944   -8805109.50846  -3030520.48561
 91  5  6 20 27 14.9990000  0  6G18G19G11G 2G16G 6
  22711798.331    10193504.192 6   7848944.85021
  20832580.4174     157715.36046    122891.00262
  22717558.8234   -4429785.30946  -3451773.32061
  21157667.120   -12945668.178 7 -10087507.67623
  23499046.3234   -4116461.28345  -3154609.35061
  22685519.362    -8842380.135 6  -3059562.45621
 91  5  6 20 27 29.9990000  0  6G18G19G11G 2G16G 6
  22720394.886    10238682.239 6   7884148.36121
  20834378.862      167159.418 6    130249.98322
  22719301.6054   -4420632.08646  -3444640.93861
  21151944.886   -12975731.868 7 -10110933.88323
  23500193.8554   -4110427.80945  -3149908.03561
  22678426.8704   -8879643.41246  -3088598.71061
 91  5  6 20 27 44.9990000  0  6G18G19G11G 2G16G 6
  22729001.417    10283910.762 6   7919391.20221
  20836187.573      176660.027 6    137653.03322
  22721069.3394   -4411333.32946  -3437395.16361
  21146237.815   -13005721.877 7 -10134302.67623
  23501362.1834   -4104279.13445  -3145116.92561
  22671340.2144   -8916899.99846  -3117629.74761
 91  5  6 20 27 59.9990000  0  6G18G19G11G 2G16G 6
  22737619.0344   10329180.79546   7954666.38261
  20838003.808      186209.033 6
  22722865.8944   -4401897.41946
  21140543.050   -13035646.403 7 -10157620.44323
  23502555.6514   -4098023.89245  -3140242.79361
  22664249.214    -8954157.970 6  -3146661.87321
 91  5  6 20 28 14.9990000  0  6G18G19G11G 2G16G 6
  22746241.987    10374505.144 6   7989983.88621
  20839832.5814     195819.27347
  22724689.1284   -4392311.76846
  21134864.269   -13065492.878 7 -10180877.38923
  23503770.823    -4091649.116 5  -3135275.51921
  22657160.5194   -8991404.63846  -3175685.18561
 91  5  6 20 28 29.9990000  0  6G18G19G11G 2G16G 6
  22754877.315    10419878.021 6   8025339.20421
  20841674.331      205485.099 6    160114.05922
  22726540.0814   -4382582.12546  -3414991.63761
  21129198.058   -13095266.818 7 -10204077.82223
  23505006.190    -4085160.663 5  -3130219.65721
  22650073.8624   -9028645.65646  -3204704.10561
 91  5  6 20 28 44.9990000  0  6G18G19G11G 2G16G 6
  22763522.651    10465306.072 6   8060737.51521
  20843522.534      215213.499 7    167694.60522
  22728421.4094   -4372701.87646  -3407292.74061
  21123547.855   -13124961.563 7 -10227216.54023
  23506261.831    -4078552.278 5  -3125070.32521
  22642989.628    -9065874.204 6  -3233713.29221
 91  5  6 20 28 59.9990000  0  6G18G19G11G 2G16G 6
  22772175.636    10510779.300 6   8096171.03421
  20845386.526      224995.022 6    175316.54822
  22730328.6674   -4362680.60846  -3399483.95761
  21117909.870   -13154586.292 7 -10250300.70023
  23507540.542    -4071833.600 5  -3119835.06621
  22635905.8624   -9103099.67146  -3262720.09261
 91  5  6 20 29 14.9990000  0  6G18G19G11G 2G16G 6
  22780838.237    10556302.980 6   8131643.85321
  20847255.378      234835.147 7    182984.15922
  22732265.0344   -4352512.89946  -3391561.06361
  21112287.284   -13184135.776 7 -10273326.22523
  23508838.4014   -4064999.40145  -3114509.81061
  22628822.9254   -9140316.52046  -3291720.17461
 91  5  6 20 29 29.9990000  0  6G18G19G11G 2G16G 6
  22789511.0034   10601874.47646   8167153.93661
  20849140.065      244731.678 7    190695.71922
  22734224.6444   -4342201.12146  -3383525.90461
  21106677.464   -13213612.112 7 -10296294.74923
  23510164.839    -4058052.097 5  -3109096.38821
  22621741.6904   -9177527.06946  -3320715.35061
 91  5  6 20 29 44.9990000  0  6G18G19G11G 2G16G 6
  22798191.940    10647503.555 6   8202708.88921
  20851035.440      254694.745 7    198459.12522
  22736218.5654   -4331735.55246  -3375370.91961
  21101085.698   -13243005.310 7 -10319198.49423
  23511506.370    -4050981.614 5  -3103587.00921
  22614663.8234   -9214721.26346  -3349697.76561
 91  5  6 20 29 59.9990000  0  6G18G19G11G 2G16G 6
  22806885.9644   10693182.87046   8238302.98361
  20852943.839      264717.403 7    206268.96422
  22738238.5424   -4321123.09646  -3367101.46761
  21095506.378   -13272322.325 7 -10342042.87723
  23512873.823    -4043795.318 5  -3097987.37221
  22607587.722    -9251905.965 6  -3378672.80121
 91  5  6 20 30 14.9990000  0  6G18G19G11G 2G16G 6
  22815588.573    10738916.255 6   8273939.20921
  20854863.886      274803.552 7    214128.28122
  22740285.2614   -4310360.20146  -3358714.79061
  21089942.5194  -13301559.35547 -10364824.93763
  23514265.9404   -4036489.77045  -3092294.83261
  22600514.4334   -9289077.49746  -3407637.56061
 91  5  6 20 30 29.9990000  0  6G18G19G11G 2G16G 6
  22824301.5654   10784701.17346   8309615.59861
  20856793.792      284950.870 6    222035.26022
  22742362.6834   -4299449.24346  -3350212.74461
  21084392.940   -13330718.664 7 -10387546.43523
  23515678.5584   -4029067.49945  -3086511.31861
  22593445.292    -9326237.823 6  -3436593.60121
 91  5  6 20 30 44.9990000  0  6G18G19G11G 2G16G 6
  22833025.2224   10830541.35046   8345335.04361
  20858738.284      295163.696 7    229993.28422
  22744465.4484   -4288386.21246  -3341592.19461
  21078859.503   -13359796.009 7 -10410204.06223
  23517115.300    -4021524.410 5  -3080633.67521
  22586377.5114   -9363382.80046  -3465537.67461
 91  5  6 20 30 59.9990000  0  6G18G19G11G 2G16G 6
  22841756.3234   10876432.77946   8381094.42461
  20860693.417      305438.233 6    237999.39222
  22746601.2454   -4277174.97546  -3332856.16661
  21073341.956   -13388795.218 7 -10432800.80023
  23518571.7144   -4013864.52045  -3074665.01061
  22579309.6444   -9400516.38546  -3494472.86661
 91  5  6 20 31 14.9990000  0  6G18G19G11G 2G16G 6
  22850497.5654   10922373.77446   8416892.42361
  20862657.706      315773.143 7    246052.54322
  22748763.1364   -4265817.22646  -3324005.96661
  21067837.628   -13417717.640 7 -10455337.70723
  23520051.9804   -4006089.37045  -3068606.53361
  22572245.722    -9437639.654 6  -3523400.01721
 91  5  6 20 31 29.9990000  0  6G18G19G11G 2G16G 6
  22859252.636    10968355.809 6   8452722.41321
  20864637.792      326160.421 7    254146.50322
  22750948.6364   -4254321.29846  -3315048.09861
  21062347.214   -13446571.793 7 -10477821.41823
  23521552.3394   -3998207.45845  -3062464.85961
  22565180.1054   -9474761.13646  -3552325.78561
 91  5  6 20 31 44.9990000  0  6G18G19G11G 2G16G 6
  22868009.4094   11014393.00446   8488595.36961
  20866625.370      336614.514 7    262292.52322
  22753164.0264   -4242672.72846  -3305971.28861
  21056872.6754  -13475343.06247 -10500240.54963
  23523074.183    -3990204.677 5  -3056229.01721
  22558118.862    -9511866.226 6  -3581238.77021
 91  5  6 20 31 59.9990000  0  6G18G19G11G 2G16G 6
  22876779.7454   11060475.50546   8524503.62561
  20868626.1674     347125.73147    270483.06062
  22755412.3474   -4230881.39346  -3296783.23161
  21051411.7304  -13504040.97047 -10522602.51463
  23524617.355    -3982090.881 5  -3049906.68021
  22551059.9404   -9548964.33646  -3610146.32861
 91  5  6 20 32 14.9990000  0  6G18G19G11G 2G16G 6
  22885557.6284   11106606.57046   8560449.73361
  20870636.855      357697.757 7    278720.97922
  22757681.6204   -4218943.94746  -3287481.32161
  21045964.2924  -13532662.02147 -10544904.59163
  23526184.019    -3973862.697 5  -3043495.18621
  22544002.2454   -9586051.97646  -3639045.72661
 91  5  6 20 32 29.9990000  0  6G18G19G11G 2G16G 6
  22894346.7844   11152783.62546   8596431.67061
  20872662.690      368328.131 6    287004.36322
  22759982.0114   -4206862.95046  -3278067.55661
  21040532.886   -13561208.664 7 -10567148.68423
  23527770.5194   -3965522.68045  -3036996.56761
  22536947.7764   -9623131.56846  -3667938.85261
 91  5  6 20 32 44.9990000  0  6G18G19G11G 2G16G 6
  22903141.2374   11199006.14146   8632449.03561
  20874692.956      379017.004 6    295333.33122
  22762308.3234   -4194638.50946  -3268542.01561
  21035114.589   -13589680.925 7 -10589334.81123
  23529377.8154   -3957071.09445  -3030411.01961
  22529892.4954   -9660203.14346  -3696825.72561
 91  5  6 20 32 59.9990000  0  6G18G19G11G 2G16G 6
  22911947.2764   11245280.94746   8668507.13561
  20876739.5264     389771.16446    303713.16762
  22764663.1904   -4182263.79246  -3258899.38061
  21029711.112   -13618072.024 7 -10611457.69923
  23531010.683    -3948501.431 5  -3023733.44621
  22522841.6754   -9697259.69946  -3725700.89661
 91  5  6 20 33 14.9990000  0  6G18G19G11G 2G16G 6
  22920761.5424   11291599.73746   8704599.51961
  20878796.800      400582.699 7    312137.71422
  22767044.6674   -4169747.12646  -3249146.13161
  21024322.4484  -13646389.91947 -10633523.55763
  23532661.331    -3939822.169 5  -3016970.51121
  22515790.612    -9734309.333 6  -3754570.66721
 91  5  6 20 33 29.9990000  0  6G18G19G11G 2G16G 6
  22929584.7304   11337962.80046   8740726.39461
  20880867.3704     411452.57646    320607.71962
  22769451.0654   -4157087.88946  -3239281.79261
  21018948.722   -13674633.780 7 -10655531.71823
  23534332.6834   -3931032.26245  -3010121.31161
  22508739.8394   -9771351.23346  -3783434.42461
 91  5  6 20 33 44.9990000  0  6G18G19G11G 2G16G 6
  22938417.9724   11384374.05046   8776890.82361
  20882948.245      422384.694 7    329126.22822
  22771888.7224   -4144282.27746  -3229303.40161
  21013588.073   -13702799.724 7 -10677479.16523
  23536030.886    -3922128.318 5  -3003183.28021
  22501694.3084   -9808381.33846  -3812288.98761
 91  5  6 20 33 59.9990000  0  6G18G19G11G 2G16G 6
  22947257.815    11430830.570 6   8813090.52421
  20885037.9724     433376.73646    337691.42562
  22774353.9484   -4131332.76046  -3219212.87961
  21008242.4334  -13730890.12647 -10699367.75263
  23537743.4334   -3913112.77145  -2996158.26661
  22494650.3624   -9845401.89046  -3841136.10061
 91  5  6 20 34 14.9990000  0  6G18G19G11G 2G16G 6
  22956103.0814   11477319.49146   8849315.47761
  20887137.995      444416.118 6    346293.51622
  22776842.7304   -4118252.29946  -3209020.31561
  21002908.9014  -13758917.71547 -10721207.39963
  23539477.105    -3903998.588 5  -2989056.41421
  22487604.292    -9882425.573 6  -3869985.65121
 91  5  6 20 34 29.9990000  0  6G18G19G11G 2G16G 6
  22964960.9094   11523859.37046   8885580.13861
  20889255.159      455521.678 6    354947.17322
  22779359.1904   -4105022.27546  -3198711.20761
  20997591.4484  -13786863.68547 -10742983.43963
  23541235.651    -3894767.350 5  -2981863.34421
  22480563.4724   -9919433.77246  -3898823.15461
 91  5  6 20 34 44.9990000  0  6G18G19G11G 2G16G 6
  22973826.5974   11570448.24346   8921882.96461
  20891376.722      466691.834 6    363651.16422
  22781905.5654   -4091644.39546  -3188286.89461
  20992288.4334  -13814729.64747 -10764697.13463
  23543014.3394   -3885420.70145  -2974580.33361
  22473521.7694   -9956428.00746  -3927649.76261
 91  5  6 20 34 59.9990000  0  6G18G19G11G 2G16G 6
  22982699.8624   11617074.60846   8958215.01761
  20893516.0344     477915.15446    372396.58062
  22784476.3084   -4078130.41846  -3177756.53261
  20986999.2454  -13842527.10147 -10786357.45563
  23544813.222    -3875970.642 5  -2967216.76521
  22466482.9174   -9993419.50246  -3956474.24461
 91  5  6 20 35 14.9990000  0  6G18G19G11G 2G16G 6
  22991581.7924   11663750.88046   8994585.94561
  20895660.7694     489204.67546    381193.58462
  22787078.4564   -4064467.43146  -3167110.05261
  20981724.4334  -13870242.99247 -10807954.20863
  23546631.4804   -3866404.29745  -2959762.59061
  22459446.3084  -10030395.27246  -3985286.47161
 91  5  6 20 35 29.9990000  0  6G18G19G11G 2G16G 6
  23000471.9254   11710466.78846   9030987.76861
  20897823.159      500550.332 6    390034.32622
  22789702.0974   -4050665.63546  -3156355.41061
  20976463.9564  -13897887.51847 -10829495.36063
  23548474.417    -3856731.889 5  -2952225.75921
  22452411.7924  -10067365.55746  -4014094.42761
 91  5  6 20 35 44.9990000  0  6G18G19G11G 2G16G 6
  23009368.800    11757225.357 6   9067422.82721
  20899991.565      511955.480 6    398921.43122
  22792357.0894   -4036721.91646  -3145490.18461
  20971217.0734  -13925457.32147 -10850978.28363
  23550333.511    -3846950.426 5  -2944603.93121
  22445377.8154  -10104326.92146  -4042895.41961
 91  5  6 20 35 59.9990000  0  6G18G19G11G 2G16G 6
  23018273.6364   11804023.76146   9103888.93461
  20902174.011      523417.558 6    407852.89422
  22795036.2304   -4022639.12346  -3134516.58961
  20965985.5654  -13952955.13347 -10872405.11563
  23552215.378    -3837062.893 5  -2936899.44621
  22438345.1674  -10141281.85546  -4071691.41561
 91  5  6 20 36 14.9990000  0  6G18G19G11G 2G16G 6
  23027188.4174   11850866.54946   9140389.62461
  20904365.6834     534941.61246    416832.65062
  22797744.3314   -4008412.46446  -3123430.88761
  20960766.3394  -13980375.92947 -10893771.93163
  23554120.448    -3827064.377 5  -2929108.51921
  22431315.6674  -10178225.38646  -4100478.51461
 91  5  6 20 36 29.9990000  0  6G18G19G11G 2G16G 6
  23036111.5424   11897758.67646   9176928.75261
  20906574.839      546533.022 6    425864.89122
  22800478.6054   -3994036.85246  -3112229.12161
  20955565.2764  -14007714.33747 -10915074.54963
  23556045.5034   -3816950.12345  -2921227.39361
  22424287.1594  -10215152.31446  -4129252.68261
 91  5  6 20 36 44.9990000  0  6G18G19G11G 2G16G 6
  23045047.1124   11944707.42546   9213512.00761
  20908792.1364     558199.32746    434955.49262
  22803244.2614   -3979504.91946  -3100905.53961
  20950378.7764  -14034963.00847 -10936307.24263
  23557996.565    -3806712.780 5  -2913250.31821
  22417265.1984  -10252055.02946  -4158007.99261
 91  5  6 20 36 59.9990000  0  6G18G19G11G 2G16G 6
  23053985.3394   11991686.25346   9250118.69561
  20911021.4954     569914.15546    444083.90562
  22806035.4094   -3964843.18046  -3089480.81961
  20945204.4404  -14062148.25947 -10957490.51563
  23559961.3234   -3796378.82745  -2905198.01061
  22410243.1054  -10288959.84046  -4186764.92561
 91  5  6 20 37 14.9990000  0  6G18G19G11G 2G16G 6
  23062934.315    12038703.129 6   9286755.03121
  20913260.5194     581685.81046    453256.60062
  22808851.7534   -3950043.61846  -3077948.70061
  20940047.0734  -14089261.91647 -10978618.00063
  23561946.245    -3785940.077 5  -2897064.04021
  22403219.956   -10325858.312 6  -4215516.92221
 91  5  6 20 37 29.9990000  0  6G18G19G11G 2G16G 6
  23071888.315    12085766.473 5   9323427.58021
  20915513.0894     593523.03346    462480.37862
  22811693.980    -3935097.736 6  -3066302.57321
  20934901.4874  -14116295.20147 -10999682.86063
  23563954.370    -3775388.250 5  -2888841.92721
  22396203.2614  -10362741.89846  -4244257.31461
 91  5  6 20 37 44.9990000  0  6G18G19G11G 2G16G 6
  23080853.933    12132873.227 5   9360133.94121
  20917778.4254     605423.23646    471753.23862
  22814567.4484   -3920008.25446  -3054544.54961
  20929772.3624  -14143250.88547 -11020687.25363
  23565983.2304   -3764726.29645  -2880534.03061
  22389186.0424  -10399613.12546  -4272988.09161
 91  5  6 20 37 59.9990000  0  6G18G19G11G 2G16G 6
  23089827.362    12180029.640 6   9396879.00421
  20920058.870      617392.901 6    481080.22122
  22817466.0344   -3904768.93546  -3042669.76261
  20924658.9484  -14170122.43547 -11041626.08663
  23568036.019    -3753948.265 5  -2872135.67221
  22382173.4954  -10436465.47546  -4301704.14561
 91  5  6 20 38 14.9990000  0  6G18G19G11G 2G16G 6
  23098809.386    12227227.249 5   9433656.16721
  20922345.323      629423.881 6    490454.98922
  22820391.4804   -3889388.23846  -3030684.80861
  20919560.0734  -14196918.13247 -11062505.81763
  23570108.839    -3743062.398 5  -2863653.27421
  22375162.487   -10473307.125 6  -4330411.86921
 91  5  6 20 38 29.9990000  0  6G18G19G11G 2G16G 6
  23107797.3474   12274460.25645   9470460.91061
  20924646.1124     641510.95446    499873.45962
  22823347.3864   -3873871.66546  -3018593.98161
  20914473.4404  -14223643.25547 -11083330.55463
  23572197.9804   -3732074.22545  -2855091.16361
  22368153.5504  -10510143.39546  -4359115.38661
 91  5  6 20 38 44.9990000  0  6G18G19G11G 2G16G 6
  23116793.245    12321732.598 5   9507296.30521
  20926956.3624     653658.17946    509338.80462
  22826327.0654   -3858215.37246  -3006394.28361
  20909403.3624  -14250293.76047 -11104097.14663
  23574308.1364   -3720980.24245  -2846446.62661
  22361142.9174  -10546970.15246  -4387811.50361
 91  5  6 20 38 59.9990000  0  6G18G19G11G 2G16G 6
  23125797.050    12369047.272 5   9544164.68321
  20929282.6904     665869.06446    518853.75362
  22829332.0344   -3842416.27046  -2994083.30061
  20904347.0814  -14276866.40047 -11124803.06763
  23576438.6514   -3709777.01145  -2837716.93261
  22354140.6364  -10583784.00846  -4416497.56161
 91  5  6 20 39 14.9990000  0  6G18G19G11G 2G16G 6
  23134807.214    12416396.008 6   9581059.60821
  20931615.198      678135.278 6    528411.81422
  22832363.4804   -3826482.58746  -2981667.45261
  20899303.3314  -14303369.31947 -11145454.65963
  23578590.5654   -3698473.18245  -2828908.87661
  22347134.526   -10620592.995 6  -4445179.83321
 91  5  6 20 39 29.9990000  0  6G18G19G11G 2G16G 6
  23143825.394    12463785.737 5   9617986.47121
  20933962.425      690464.412 6    538018.90822
  22835423.1594   -3810407.19846  -2969141.17861
  20894274.5034  -14329795.31847 -11166046.31263
  23580764.417    -3687061.849 5  -2820017.01121
  22340132.847   -10657390.058 6  -4473852.81621
 91  5  6 20 39 44.9990000  0  6G18G19G11G 2G16G 6
  23152850.448    12511212.553 6   9654942.23921
  20936316.5034     702853.08846    547672.39262
  22838508.1754   -3794193.82946  -2956507.39561
  20889259.5654  -14356147.81047 -11186580.69263
  23582956.5974   -3675546.59245  -2811044.22161
  22333130.355   -10694178.274 6  -4502518.90321
 91  5  6 20 39 59.9990000  0  6G18G19G11G 2G16G 6
  23161884.769    12558678.481 6   9691928.46921
  20938689.440      715303.431 6    557373.93622
  22841620.7534   -3777840.59646  -2943764.62661
  20884259.5894  -14382424.67748 -11207056.14263
  23585162.8004   -3663925.43045  -2801988.88861
  22326133.925   -10730955.547 6  -4531176.46021
 91  5  6 20 40 14.9990000  0  6G18G19G11G 2G16G 6
  23170922.651    12606182.896 5   9728944.70521
  20941068.050      727815.284 6    567123.40222
  22844759.1444   -3761347.88346  -2930913.17061
  20879273.1054  -14408626.25348 -11227472.92363
  23587393.6054   -3652198.95845  -2792851.46461
  22319137.292   -10767722.042 6  -4559825.62621
 91  5  6 20 40 29.9980000  0  6G18G19G11G 2G16G 6
  23179971.568    12653723.620 5   9765989.22821
  20943463.100      740388.863 6    576920.97222
  22847923.420    -3744715.789 6  -2917953.11121
  20874301.8734  -14434749.46847 -11247828.64163
  23589643.6074   -3640366.89845  -2783631.81561
  22312144.3734  -10804474.16746  -4588463.59061
 91  5  6 20 40 44.9980000  0  6G18G19G11G 2G16G 6
  23189024.1864   12701303.47345   9803064.23461
  20945864.623      753022.960 6    586765.70022
  22851116.2254   -3727945.39146  -2904885.28161
  20869345.2174  -14460801.14848 -11268128.62463
  23591919.7094   -3628431.02145  -2774331.20961
  22305149.037   -10841219.828 6  -4617096.51921
 91  5  6 20 40 59.9980000  0  6G18G19G11G 2G16G 6
  23198087.545    12748923.170 5   9840170.29521
  20948283.107      765720.847 6    596660.13322
  22854333.232    -3711033.898 6  -2891707.51121
  20864401.8184  -14486775.29348 -11288368.19063
  23594211.459    -3616388.258 5  -2764947.37821
  22298161.8814  -10877952.28446  -4645719.15661
 91  5  6 20 41 14.9980000  0  6G18G19G11G 2G16G 6
  23207155.506    12796584.763 5   9877308.99821
  20950712.029      778484.998 6    606606.20422
  22857578.6394   -3693979.12846  -2878418.09561
  20859474.9754  -14512669.64248 -11308545.57963
  23596524.0454   -3604236.59845  -2755478.65261
  22291174.272   -10914669.395 6  -4674329.83421
 91  5  6 20 41 29.9980000  0  6G18G19G11G 2G16G 6
  23216234.537    12844289.617 5   9914481.41821
  20953156.912      791316.628 6    616604.85222
  22860851.412    -3676779.950 6  -2865016.14821
  20854562.647   -14538482.844 8 -11328659.73523
  23598858.5924   -3591975.09145  -2745924.33361
  22284190.8814  -10951369.55946  -4702927.30661
 91  5  6 20 41 44.9980000  0  6G18G19G11G 2G16G 6
  23225319.8264   12892031.68545   9951682.81261
  20955607.4204     804210.38746    626651.91162
  22864149.834    -3659442.015 6  -2851506.08821
  20849664.6234  -14564220.23648 -11348714.81763
  23601211.5614   -3579609.34145  -2736288.82661
  22277208.022   -10988058.176 6  -4731515.78821
 91  5  6 20 41 59.9980000  0  6G18G19G11G 2G16G 6
  23234411.0764   12939810.48245   9988912.85461
  20958072.647      817166.073 6    636747.23122
  22867476.654    -3641965.818 6  -2837888.29721
  20844781.498   -14589882.222 8 -11368711.14623
  23603583.193    -3567139.998 5  -2726572.55821
  22270229.920   -11024735.543 6  -4760095.50021
 91  5  6 20 42 14.9980000  0  6G18G19G11G 2G16G 6
  23243512.2794   12987628.10545  10026173.12061
  20960548.107      830186.322 6    646892.85222
  22870828.529    -3624349.065 6  -2824160.97621
  20839912.7724  -14615466.22248 -11388646.70263
  23605979.740    -3554564.698 5  -2716773.71221
  22263251.514   -11061399.032 6  -4788664.39821
 91  5  6 20 42 29.9980000  0  6G18G19G11G 2G16G 6
  23252616.8504   13035478.42645  10063458.87861
  20963040.842      843265.356 6    657084.28522
  22874206.412    -3606597.832 6  -2810328.86421
  20835058.3814  -14640978.13948 -11408526.09163
  23608387.412    -3541889.567 5  -2706897.12121
  22256277.428   -11098054.394 6  -4817226.96421
 91  5  6 20 42 44.9980000  0  6G18G19G11G 2G16G 6
  23261729.084    13083367.915 5  10100775.16821
  20965541.014      856409.394 6    667326.36522
  22877611.897    -3588706.040 6  -2796387.23121
  20830218.7874  -14666411.61548 -11428344.35763
  23610820.0534   -3529108.58845  -2696938.02561
  22249304.256   -11134695.285 6  -4845778.26221
 91  5  6 20 42 59.9980000  0  6G18G19G11G 2G16G 6
  23270850.8184   13131293.62245  10138119.64961
  20968054.8034     869616.10146    677617.27762
  22881040.240    -3570676.377 6  -2782338.15821
  20825392.9824  -14691769.28048 -11448103.54863
  23613272.3264   -3516224.44745  -2686898.57061
  22242334.100   -11171324.162 6  -4874320.18621
 91  5  6 20 43 14.9980000  0  6G18G19G11G 2G16G 6
  23279976.389    13179256.738 5  10175493.29121
  20970578.982      882887.376 6    687958.50722
  22884500.428    -3552507.203 6  -2768180.38421
  20820582.0454  -14717049.47048 -11467802.36863
  23615745.897    -3503235.794 5  -2676777.63821
  22235366.7324  -11207939.28146  -4902851.39261
 91  5  6 20 43 29.9980000  0  6G18G19G11G 2G16G 6
  23289109.4904   13227248.57945  10212889.34061
  20973115.4824     896214.68546    698343.39862
  22887982.967    -3534207.318 6  -2753920.75521
  20815784.5844  -14742260.64548 -11487447.41163
  23618235.5614   -3490151.19245  -2666581.96661
  22228401.404   -11244548.966 6  -4931378.36521
 91  5  6 20 43 44.9980000  0  6G18G19G11G 2G16G 6
  23298246.725    13275256.990 5  10250298.25921
  20975658.451      909586.229 6    708762.75722
  22891487.787    -3515788.835 6  -2739568.71021
  20810997.9514  -14767414.74648 -11507047.98063
  23620740.7874   -3476983.14244  -2656321.23761
  22221431.326   -11281165.155 6  -4959910.40721
 91  5  6 20 43 59.9980000  0  6G18G19G11G 2G16G 6
  23307390.928    13323300.961 5  10287734.92821
  20978217.373      923021.109 6    719231.47322
  22895018.537    -3497232.816 6  -2725109.50221
  20806226.4204  -14792492.60348 -11526589.13563
  23623266.084    -3463712.660 5  -2645980.71321
  22214465.365   -11317768.657 6  -4988432.56521
 91  5  6 20 44 14.9980000  0  6G18G19G11G 2G16G 6
  23316537.404    13371379.469 5  10325198.46621
  20980785.123      936518.845 6    729749.16222
  22898576.037    -3478539.936 6  -2710543.63821
  20801468.7094  -14817494.84248 -11546071.36563
  23625811.740    -3450340.600 5  -2635561.07521
  22207501.545   -11354359.952 6  -5016945.20821
 91  5  6 20 44 29.9980000  0  6G18G19G11G 2G16G 6
  23325694.740    13419494.006 5  10362690.10821
  20983365.193      950081.337 6
  22902159.092    -3459708.665 6  -2695869.94021
  20796725.0534  -14842419.55448 -11565493.18863
  23628373.873    -3436865.289 5
  22200543.811   -11390937.077 6  -5045446.80721
 91  5  6 20 44 44.9980000  0  6G18G19G11G 2G16G 6
  23334854.8574   13467638.88345  10400205.37761
  20985956.5684     963702.76246
  22905769.201    -3440745.089 6  -2681093.15121
  20791996.0454  -14867272.66748 -11584859.21163
  23630955.779    -3423293.002 5
  22193583.498   -11427505.771 6  -5073941.84321
 91  5  6 20 44 59.9980000  0  6G18G19G11G 2G16G 6
  23344023.0844   13515815.20445  10437745.15161
  20988564.912      977385.007 6
  22909402.7874   -3421647.62046  -2666212.03561
  20787279.4044  -14892052.51048 -11604168.15163
  23633558.342    -3409622.534 5
  22186626.1934  -11464064.28446  -5102428.93661
 91  5  6 20 45 14.9980000  0  6G18G19G11G 2G16G 6
  23353198.068    13564015.654 5  10475303.73821
  20991174.2014     991120.85246
  22913060.873    -3402423.625 6  -2651232.32121
  20782576.8894  -14916766.25848 -11623425.58263
  23636175.568    -3395860.910 4
  22179671.279   -11500619.693 6  -5130913.61921
 91  5  6 20 45 29.9980000  0  6G18G19G11G 2G16G 6
  23362373.256    13612249.256 5  10512888.15421
  20993803.2094    1004919.70946
  22916745.037    -3383064.053 6  -2636146.95221
  20777888.7954  -14941404.65448 -11642624.29763
  23638816.248    -3381999.060 5
  22172715.7094  -11537162.69746  -5159388.63161
 91  5  6 20 45 44.9980000  0  6G18G19G11G 2G16G 6
  23371559.6004   13660518.96045  10550500.68761
  20996439.131     1018785.103 6    793852.58422
  22920455.686    -3363565.655 6  -2620953.42021
  20773214.9594  -14965964.21647 -11661761.58463
  23641472.5764   -3368034.14244
  22165765.256   -11573689.742 6  -5187851.20221
 91  5  6 20 45 59.9980000  0  6G18G19G11G 2G16G 6
  23380750.2094   13708817.23145  10588135.48261
  20999090.092     1032709.944 6    804703.08322
  22924191.740    -3343935.861 6  -2605657.49921
  20768554.8034  -14990452.08447 -11680843.00863
  23644147.7484   -3353973.19144
  22158816.061   -11610207.948 6  -5216306.89121
 91  5  6 20 46 14.9980000  0  6G18G19G11G 2G16G 6
  23389950.7564   13757153.79645  10625800.12061
  21001751.147     1046703.692 6    815607.27922
  22927952.053    -3324165.321 6  -2590251.89521
  20763910.4754  -15014858.69947 -11699861.11563
  23646844.240    -3339807.212 4  -2604543.68721
  22151871.607   -11646707.621 6  -5244748.13221
 91  5  6 20 46 29.9980000  0  6G18G19G11G 2G16G 6
  23399153.6624   13805524.20345  10663491.15461
  21004429.264     1060762.421 6    826562.10722
  22931739.662    -3304258.243 6  -2574739.90421
  20759280.7094  -15039188.22047 -11718819.15263
  23649561.7954   -3325540.52245  -2593426.90961
  22144927.2954  -11683192.73946  -5273178.03761
 91  5  6 20 46 44.9980000  0  6G18G19G11G 2G16G 6
  23408363.0144   13853918.77545  10701200.96661
  21007113.287     1074877.060 6    837560.50522
  22935554.607    -3284224.149 6  -2559128.93521
  20754663.3424  -15063449.77047 -11737724.22163
  23652293.4044   -3311182.65744  -2582239.10161
  22137985.662   -11719672.401 6  -5301603.68821
 91  5  6 20 46 59.9980000  0  6G18G19G11G 2G16G 6
  23417577.6314   13902340.39145  10738931.89061
  21009812.381     1089050.426 6    848604.65922
  22939391.029    -3264060.251 6  -2543416.82521
  20750059.2254  -15087640.40647 -11756574.03863
  23655044.5294   -3296730.73044  -2570978.00161
  22131045.7724  -11756143.58046  -5330022.72161
 91  5  6 20 47 14.9980000  0  6G18G19G11G 2G16G 6
  23426796.7484   13950791.05045  10776685.42761
  21012519.8034    1103284.97946    859696.49162
  22943254.787    -3243764.409 6  -2527601.90321
  20745470.8424  -15111757.82347 -11775366.79763
  23657813.123    -3282182.737 5  -2559642.00521
  22124107.5064  -11792603.87546  -5358433.28261
 91  5  6 20 47 29.9980000  0  6G18G19G11G 2G16G 6
  23436025.0534   13999279.43145  10814468.35961
  21015242.1074    1117589.90346    870843.15562
  22947141.701    -3223328.021 6  -2511677.46321
  20740896.9754  -15135793.24547 -11794095.66563
  23660598.9904   -3267530.05745  -2548224.48661
  22117173.2254  -11829044.25446  -5386828.32061
 91  5  6 20 47 44.9980000  0  6G18G19G11G 2G16G 6
  23445257.8264   14047801.19445  10852277.30261
  21017976.272     1131961.530 6    882041.79822
  22951056.092    -3202755.043 6  -2495646.59221
  20736337.6234  -15159750.50147 -11812763.62363
  23663408.5614   -3252776.89244  -2536728.64561
  22110240.8504  -11865468.52746  -5415210.81161
 91  5  6 20 47 59.9980000  0  6G18G19G11G 2G16G 6
  23454497.3034   14096355.34145  10890111.48861
  21020724.334     1146398.609 6    893291.44322
  22954997.365    -3182046.980 6  -2479510.45621
  20731793.7404  -15183630.67747 -11831371.52063
  23666232.6004   -3237924.56644  -2525155.53561
  22103313.8184  -11901877.74046  -5443581.56461
 91  5  6 20 48 14.9980000  0  6G18G19G11G 2G16G 6
  23463743.178    14144941.771 5  10927970.83821
  21023482.8974    1160901.44546    904592.32662
  22958963.4204   -3161203.47946  -2463268.78661
  20727264.1474  -15207433.50147 -11849919.14463
  23669081.795    -3222972.941 4  -2513505.04721
  22096388.1074  -11938271.36446  -5471940.17461
 91  5  6 20 48 29.9980000  0  6G18G19G11G 2G16G 6
  23472997.2094   14193565.61845  10965859.31561
  21026258.3424    1175475.86646    915948.98962
  22962956.131    -3140219.206 6  -2446917.42321
  20722750.7174  -15231153.42048 -11868402.16663
  23671945.107    -3207916.759 5  -2501773.09021
  22089466.1314  -11974643.77046  -5500282.25561
 91  5  6 20 48 44.9980000  0  6G18G19G11G 2G16G 6
  23482253.9044   14242217.55645  11003769.69161
  21029041.5374    1190112.61646    927354.21762
  22966974.365    -3119103.618 6  -2430463.74021
  20718250.9044  -15254799.41047 -11886827.57963
  23674829.3574   -3192765.38944  -2489966.96861
  22082547.3734  -12011004.08546  -5528614.89861
 91  5  6 20 48 59.9980000  0  6G18G19G11G 2G16G 6
  23491515.904    14290882.469 5  11041690.18221
  21031839.1624    1204796.99746    938796.56262
  22971017.217    -3097871.624 6  -2413919.35421
  20713762.1394  -15278386.22748 -11905206.88563
  23677723.287    -3177533.910 5  -2478098.42421
  22075628.475   -12047366.929 6  -5556949.53021
 91  5  6 20 49 14.9980000  0  6G18G19G11G 2G16G 6
  23500784.732    14339576.448 5  11079633.32121
  21034643.6624    1219545.18946    950288.62962
  22975081.404    -3076507.472 6  -2397271.98621
  20709288.0064  -15301897.98747 -11923527.70963
  23680643.4044   -3162206.50945  -2466155.12261
  22068710.8574  -12083716.26246  -5585273.62861
 91  5  6 20 49 29.9980000  0  6G18G19G11G 2G16G 6
  23510053.459    14388302.136 5  11117601.15921
  21037463.5454    1234360.15646    961832.72962
  22979171.318    -3055008.512 6  -2380519.57221
  20704828.8504  -15325331.86148 -11941787.84363
  23683577.3184   -3146780.68545  -2454135.13161
  22061796.732   -12120048.971 6  -5613584.77721
 91  5  6 20 49 44.9980000  0  6G18G19G11G 2G16G 6
  23519332.0684   14437047.94445  11155584.68961
  21040290.6864    1249230.83946    973420.24562
  22983287.897    -3033386.119 6  -2363670.97721
  20700383.3034  -15348699.07248 -11959996.02963
  23686530.4204   -3131268.06045  -2442047.48961
  22054884.1234  -12156376.15746  -5641891.61961
 91  5  6 20 49 59.9980000  0  6G18G19G11G 2G16G 6
  23528613.5764   14485826.62245  11193593.83161
  21043136.8184    1264170.19046    985061.26862
  22987426.490    -3011627.570 6  -2346716.28521
  20695951.0064  -15371986.58648 -11978142.11463
  23689501.076    -3115655.578 5  -2429882.07121
  22047974.506   -12192684.781 6  -5670183.99821
 91  5  6 20 50 14.9980000  0  6G18G19G11G 2G16G 6
  23537903.0614   14534631.76045  11231623.57661
  21045989.3574    1279172.29446    996751.19262
  22991592.568    -2989739.142 6  -2329660.38921
  20691534.2954  -15395200.46448 -11996230.82063
  23692487.084    -3099950.038 5  -2417644.10921
  22041068.240   -12228980.878 6  -5698466.62321
 91  5  6 20 50 29.9980000  0  6G18G19G11G 2G16G 6
  23547196.592    14583465.589 5  11269675.69221
  21048859.459     1294239.476 6   1008491.82622
  22995783.498    -2967718.715 6  -2312501.63221
  20687130.8974  -15418338.38448 -12014260.34163
  23695504.2644   -3084148.87945  -2405331.64561
  22034163.592   -12265261.903 6  -5726737.48921
 91  5  6 20 50 44.9980000  0  6G18G19G11G 2G16G 6
  23556493.1704   14632328.30145  11307750.31461
  21051735.8574    1309372.49746   1020283.76062
  23000001.006    -2945565.775 6  -2295239.62221
  20682742.631   -15441399.521 8 -12032230.02823
  23698523.4984   -3068252.02445  -2392944.63261
  22027262.193   -12301527.103 6  -5754996.03821
 91  5  6 20 50 59.9980000  0  6G18G19G11G 2G16G 6
  23565794.936    14681218.208 5  11345846.11921
  21054629.8034    1324570.04046   1032125.97162
  23004238.139    -2923281.774 6  -2277875.48321
  20678368.1074  -15464385.28948 -12050140.98863
  23701570.209    -3052260.772 5  -2380484.04421
  22020364.607   -12337777.536 6  -5783243.08421
 91  5  6 20 51 14.9980000  0  6G18G19G11G 2G16G 6
  23575109.693    14730139.581 5  11383966.43721
  21057534.5534    1339836.51146   1044021.89562
  23008506.459    -2900862.761 6  -2260406.14721
  20674009.0064  -15487291.22348 -12067989.74363
  23704626.4514   -3036171.33645  -2367946.97061
  22013470.1624  -12374008.92646  -5811475.27361
 91  5  6 20 51 29.9980000  0  6G18G19G11G 2G16G 6
  23584420.982    14779091.397 5  11422110.47021
  21060453.3504    1355171.24346   1055971.01062
  23012796.0684   -2878309.88246  -2242832.49861
  20669665.5764  -15510118.41348 -12085777.13563
  23707708.475    -3019984.762 5  -2355334.19021
  22006577.998   -12410222.071 6  -5839693.26121
 91  5  6 20 51 44.9980000  0  6G18G19G11G 2G16G 6
  23593742.631    14828071.294 5  11460276.41421
  21063382.1934    1370572.55146   1067971.99762
  23017112.5224   -2855625.21246  -2225156.14361
  20665336.6934  -15532868.79348 -12103504.67663
  23710806.998    -3003702.949 5  -2342647.21521
  21999689.022   -12446418.739 6  -5867898.40421
 91  5  6 20 51 59.9980000  0  6G18G19G11G 2G16G 6
  23603067.115    14877075.522 5  11498461.29621
  21066327.4674    1386036.83746   1080022.06362
  23021455.162    -2832812.533 6  -2207380.05321
  20661020.8034  -15555545.76148 -12121175.01163
  23713919.7254   -2987330.13945  -2329889.32261
  21992805.232   -12482602.288 6  -5896093.32521
 91  5  6 20 52 14.9980000  0  6G18G19G11G 2G16G 6
  23612395.959    14926100.500 5  11536662.33121
  21069278.7564    1401560.73846   1092118.57462
  23025820.787    -2809875.521 6  -2189507.07421
  20656718.9204  -15578152.78148 -12138790.84463
  23717055.725    -2970869.986 4  -2317063.35321
  21985920.623   -12518776.114 6  -5924280.67221
 91  5  6 20 52 29.9980000  0  6G18G19G11G 2G16G 6
  23621730.4204   14975137.96145  11574873.12161
  21072244.4124    1417136.35846   1104255.39562
  23030206.881    -2786822.359 6  -2171543.59821
  20652428.162   -15600697.903 8 -12156358.45223
  23720201.3034   -2954330.77945  -2304175.79361
  21979037.857   -12554948.025 6  -5952466.52421
 91  5  6 20 52 44.9980000  0  6G18G19G11G 2G16G 6
  23631065.709    15024198.681 5  11613102.01821
  21075218.5144    1432774.72446   1116441.10462
  23034616.857    -2763642.253 6  -2153481.19621
  20648152.756   -15623170.158 8 -12173869.27623
  23723368.0844   -2937701.54144  -2291218.09361
  21972155.740   -12591106.924 6  -5980642.23921
 91  5  6 20 52 59.9980000  0  6G18G19G11G 2G16G 6
  23640408.0374   15073289.56645  11651354.41561
  21078208.3114    1448483.08546   1128681.35462
  23039055.709    -2740328.374 6  -2135314.55621
  20643891.412   -15645562.432 8 -12191317.77623
  23726551.084    -2920975.767 5  -2278185.13821
  21965278.334   -12627245.629 6  -6008802.21621
 91  5  6 20 53 14.9980000  0  6G18G19G11G 2G16G 6
  23649754.4754   15122404.04945  11689625.22161
  21081209.6314    1464255.16946   1140971.26162
  23043515.615    -2716887.068 6  -2117048.61821
  20639644.0614  -15667880.97048 -12208708.81863
  23729747.0064   -2904159.54345  -2265081.74861
  21958405.686   -12663370.274 6  -6036951.23621
 91  5  6 20 53 29.9980000  0  6G18G19G11G 2G16G 6
  23659102.873    15171541.602 5  11727913.99721
  21084226.865     1480090.876 6   1153310.74722
  23048000.834    -2693318.773 6  -2098683.73021
  20635410.6474  -15690125.94848 -12226042.53963
  23732965.803    -2887253.766 5  -2251908.52121
  21951533.412   -12699480.945 6  -6065089.37021
 91  5  6 20 53 44.9980000  0  6G18G19G11G 2G16G 6
  23668458.772    15220701.979 5  11766220.55121
  21087249.3654    1495990.12846   1165699.74362
  23052510.045    -2669623.823 6  -2080220.15221
  20631192.2644  -15712297.59248 -12243319.11863
  23736202.1394   -2870258.89945  -2238665.93161
  21944665.490   -12735577.597 6  -6093216.57721
 91  5  6 20 53 59.9980000  0  6G18G19G11G 2G16G 6
  23677819.756    15269889.483 5  11804548.24121
  21090289.326     1511957.683 6   1178141.96722
  23057042.936    -2645797.853 6  -2061654.47621
  20626987.4984  -15734391.26848 -12260534.94063
  23739449.818    -2853170.326 4  -2225350.28521
  21937798.139   -12771655.590 6  -6121329.25121
 91  5  6 20 54 14.9980000  0  6G18G19G11G 2G16G 6
  23687185.1234   15319100.24545  11842894.07261
  21093339.0224    1527989.93346   1190634.60562
  23061599.8814   -2621844.81846  -2042989.78461
  20622797.1864  -15756410.64548 -12277692.86763
  23742717.4124   -2835992.20444  -2211964.87861
  21930935.147   -12807718.326 6  -6149430.03421
 91  5  6 20 54 29.9980000  0  6G18G19G11G 2G16G 6
  23696551.4284   15368335.35545  11881258.85061
  21096401.068     1544088.371 6   1203178.81722
  23066183.8184   -2597763.49446  -2024225.12861
  20618621.1624  -15778354.04348 -12294791.59163
  23746007.2484   -2818723.05945  -2198508.54561
  21924077.834   -12843764.300 6  -6177517.75321
 91  5  6 20 54 44.9980000  0  6G18G19G11G 2G16G 6
  23705928.014    15417605.949 5  11919651.28621
  21099480.8504    1560264.62646   1215783.66062
  23070792.350    -2573542.611 6  -2005351.72921
  20614463.7094  -15800210.22348 -12311822.35363
  23749314.6704   -2801351.88645  -2184972.71361
  21917223.389   -12879781.854 6  -6205583.33221
 91  5  6 20 54 59.9980000  0  6G18G19G11G 2G16G 6
  23715311.2794   15466902.25745  11958063.75461
  21102570.701     1576508.896 6   1228441.50822
  23075428.5614   -2549192.21246  -1986377.40661
  20610318.6074  -15821988.88748 -12328792.70863
  23752639.373    -2783888.614 5  -2171365.09421
  21910371.701   -12915780.768 6  -6233634.38421
 91  5  6 20 55 14.9980000  0  6G18G19G11G 2G16G 6
  23724692.857    15516209.086 5  11996484.43421
  21105672.795     1592806.356 6   1241140.80522
  23080081.615    -2524727.274 6  -1967313.83621
  20606185.443   -15843704.842 8 -12345714.20623
  23755973.0844   -2766348.20744  -2157697.40961
  21903522.045   -12951775.700 6  -6261682.32121
 91  5  6 20 55 29.9980000  0  6G18G19G11G 2G16G 6
  23734080.7254   15565538.22045  12034922.48261
  21108789.029     1609169.263 6   1253891.09322
  23084758.756    -2500136.029 6  -1948151.84021
  20602067.2484  -15865346.16047 -12362577.54663
  23759330.209    -2748719.105 5  -2143960.59121
  21896676.451   -12987754.541 6  -6289717.72621
 91  5  6 20 55 44.9980000  0  6G18G19G11G 2G16G 6
  23743473.7324   15614889.96045  12073378.13861
  21111912.428     1625598.276 6   1266692.89622
  23089464.756    -2475418.194 6  -1928891.20921
  20597963.318   -15886912.253 7 -12379382.26623
  23762701.857    -2731001.148 5  -2130154.53421
  21889832.834   -13023716.563 6  -6317740.03021
 91  5  6 20 55 59.9980000  0  6G18G19G11G 2G16G 6
  23752869.7174   15664269.49645  12111855.45461
  21115054.404     1642098.931 6   1279550.52522
  23094192.389    -2450568.498 6  -1909527.82021
  20593875.045   -15908397.554 7 -12396124.03523
  23766091.240    -2713188.892 5  -2116274.99921
  21882994.006   -13059656.051 6  -6345744.76921
 91  5  6 20 56 14.9980000  0  5G18G19G11G 2G 6
  23762270.7724   15713674.87145  12150352.91561
  21118205.1234    1658669.47746   1292462.61362
  23098947.232    -2425588.961 6  -1890063.26421
  20589801.529   -15929803.931 7 -12412804.30023
  21876159.225   -13095574.712 6  -6373733.28221
 91  5  6 20 56 29.9980000  0  5G18G19G11G 2G 6
  23771676.686    15763099.745 5  12188865.56221
  21121372.8974    1675303.93446   1305424.49862
  23103722.092    -2400486.045 6  -1870502.56221
  20585741.092   -15951137.397 8 -12429427.75723
  21869324.522   -13131478.597 6  -6401710.28721
 91  5  6 20 56 44.9980000  0  5G18G19G11G 2G 6
  23781084.662    15812532.513 5  12227384.36121
  21124547.6624    1691991.06646   1318427.43062
  23108520.107    -2375271.341 6  -1850854.75421
  20581693.279   -15972409.340 8 -12446003.27123
  21862494.936   -13167378.853 6  -6429684.45621
 91  5  6 20 56 59.9980000  0  5G18G19G11G 2G 6
  23790494.0374   15861982.60845  12265916.65861
  21127735.6934    1708740.66946   1331479.03262
  23113343.1074   -2349935.23046  -1831112.34661
  20577660.084   -15993610.011 8 -12462523.25323
  21855666.287   -13203265.641 6  -6457648.13521
 91  5  6 20 57 14.9980000  0  5G18G19G11G 2G 6
  23799907.9674   15911459.25045  12304469.68161
  21130934.2874    1725562.22246   1344586.70362
  23118190.928    -2324468.550 6  -1811268.19421
  20573641.170   -16014730.127 8 -12478980.46223
  21848840.217   -13239129.393 6  -6485593.86422
 91  5  6 20 57 29.9980000  0  5G18G19G11G 2G 6
  23809328.0374   15960962.01945  12343043.01361
  21134152.9594    1742455.47046   1357750.24562
  23123061.686    -2298871.682 6  -1791322.60121
  20569636.662   -16035769.957 8 -12495375.10423
  21842021.0224  -13274970.21046  -6513521.71561
 91  5  6 20 57 44.9980000  0  5G18G19G11G 2G 6
  23818751.022    16010478.556 5  12381627.09521
  21137375.3574    1759408.40146   1370960.29062
  23127952.662    -2273157.045 6  -1771285.23421
  20565645.256   -16056741.575 8 -12511716.60923
  21835203.029   -13310800.104 6  -6541441.06221
 91  5  6 20 57 59.9980000  0  5G18G19G11G 2G 6
  23828179.1154   16060016.12845  12420227.57461
  21140616.0374    1776428.79546   1384222.90762
  23132872.326    -2247317.246 6  -1751150.34621
  20561670.240   -16077637.211 8 -12527998.89823
  21828387.170   -13346611.252 6  -6569345.79621
 91  5  6 20 58 14.9980000  0  5G18G19G11G 2G 6
  23837609.7484   16109572.44845  12458842.64461
  21143866.3574    1793514.66646   1397536.54262
  23137810.475    -2221354.612 6  -1730919.73921
  20557706.373   -16098458.811 8 -12544223.49823
  21821577.1624  -13382405.61646  -6597237.44761
 91  5  6 20 58 29.9980000  0  5G18G19G11G 2G 6
  23847044.951    16159154.778 5  12497478.01621
  21147133.3114    1810673.62446   1410907.12662
  23142778.381    -2195261.750 6  -1710587.66421
  20553761.522   -16119199.024 8 -12560384.67823
  21814770.0764  -13418175.51946  -6625110.04661
 91  5  6 20 58 44.9980000  0  5G18G19G11G 2G 6
  23856482.8734   16208750.32345  12536123.65561
  21150410.2874    1827893.15446   1424324.91562
  23147762.7484   -2169051.66646  -1690164.23261
  20549827.662   -16139870.603 8 -12576492.37423
  21807964.7794  -13453933.54546  -6652973.38561
 91  5  6 20 58 59.9980000  0  5G18G19G11G 2G 6
  23865923.654    16258358.022 5  12574778.76621
  21153697.4044    1845172.47446   1437789.28662
  23152773.498    -2142725.307 6  -1669650.20821
  20545906.756   -16160474.225 8 -12592547.11723
  21801163.3814  -13489680.20546  -6680827.86661
 91  5  6 20 59 14.9980000  0  5G18G19G11G 2G 6
  23875366.9124   16307980.69645  12613445.56761
  21156995.5144    1862514.53146   1451302.54662
  23157804.764    -2116280.018 6  -1649043.51721
  20541999.1394  -16181006.98048 -12608546.64063
  21794363.1474  -13525412.52946  -6708671.17462
 91  5  6 20 59 29.9980000  0  5G18G19G11G 2G 6
  23884812.209    16357614.560 5  12652121.06821
  21160309.9674    1879916.26546   1464862.30462
  23162860.982    -2089719.256 6  -1628346.83021
  20538102.912   -16201472.021 8 -12624493.40023
  21787565.951   -13561133.559 6  -6736505.68521
 91  5  6 20 59 44.9980000  0  5G18G19G11G 2G 6
  23894259.100    16407262.576 5  12690807.60121
  21163631.2324    1897380.79646   1478470.99962
  23167938.506    -2063040.288 6  -1607558.04121
  20534223.0684  -16221866.39448 -12640385.09263
  21780772.4514  -13596840.16946  -6764328.96261
 91  5  6 20 59 59.9980000  0  5G18G19G11G 2G 6
  23903710.389    16456932.508 5  12729511.20821
  21166972.4594    1914916.27946   1492134.98462
  23173040.295    -2036235.367 6  -1586671.10821
  20530357.7254  -16242182.14248 -12656215.51563
  21773979.6004  -13632524.12746  -6792134.58661
 91  5  6 21  0 14.9980000  0  5G18G19G11G 2G 6
  23913163.7404   16506611.52845  12768221.90161
  21170316.0844    1932510.09646   1505844.42162
  23178158.686    -2009317.221 6  -1565695.94321
  20526504.0614  -16262431.77248 -12671994.42163
  21767191.857   -13668197.817 6  -6819932.21221
 91  5  6 21  0 29.9980000  0  5G18G19G11G 2G 6
  23922617.2484   16556306.67845  12806945.16161
  21173678.6474    1950169.54346   1519604.99862
  23183305.3034   -1982278.95946  -1544627.18161
  20522664.764   -16282608.099 8 -12687716.20723
  21760406.482   -13703854.014 6  -6847716.20521
 91  5  6 21  0 44.9980000  0  5G18G19G11G 2G 6
  23932078.740    16606020.200 4  12845682.74321
  21177050.4364    1967897.34546   1533418.83862
  23188472.787    -1955118.206 6  -1523462.98021
  20518838.9284  -16302708.51148 -12703378.83463
  21753624.131   -13739489.924 6  -6875484.39521
 91  5  6 21  0 59.9980000  0  5G18G19G11G 2G 6
  23941542.2954   16655745.48244  12884429.46861
  21180438.6074    1985687.15246   1547280.98762
  23193663.576    -1927841.611 6  -1502208.50721
  20515027.8114  -16322739.35448 -12718987.26063
  21746846.990   -13775111.860 6  -6903241.68921
 91  5  6 21  1 14.9980000  0  4G19G11G 2G 6
  21183831.6394    2003535.16246   1561188.49662
  23198875.951    -1900453.297 6  -1480866.98521
  20511229.740   -16342704.583 8 -12734544.55123
  21740070.0684  -13810723.54546  -6930991.00261
 91  5  6 21  1 29.9980000  0  4G19G11G 2G 6
  21187243.8894    2021451.99546   1575149.63162
  23204112.795    -1872942.806 6  -1459430.26321
  20507444.6234  -16362593.53548 -12750042.40763
  21733296.740   -13846314.094 6  -6958723.83922
 91  5  6 21  1 44.9980000  0  4G19G11G 2G 6
  21190662.9204    2039430.71946   1589158.99862
  23209367.529    -1845317.816 6  -1437904.31721
  20503672.0294  -16382413.65448 -12765486.62463
  21726527.5454  -13881890.71146  -6986445.82662
 91  5  6 21  1 59.9980000  0  4G19G11G 2G 6
  21194098.0064    2057473.55746   1603218.31862
  23214647.881    -1817576.311 6  -1416287.58121
  20499914.7254  -16402162.57148 -12780875.36263
  21719760.318   -13917450.992 6  -7014155.07722
 91  5  6 21  2 14.9980000  0  4G19G11G 2G 6
  21197543.9204    2075586.11846   1617331.97062
  23219953.061    -1789712.980 6  -1394575.91621
  20496170.8114  -16421834.82848 -12796204.36563
  21712996.2094  -13952989.28246  -7041847.19662
 91  5  6 21  2 29.9980000  0  4G19G11G 2G 6
  21201003.1544    2093763.07146   1631495.80062
  23225273.881    -1761733.356 6  -1372773.62821
  20492440.8814  -16441435.76248 -12811477.78963
  21706237.842   -13988510.745 6  -7069526.20322
 91  5  6 21  2 44.9980000  0  4G19G11G 2G 6
  21204473.7874    2112004.92146   1645710.19562
  23230620.615    -1733637.266 6  -1350880.59621
  20488724.0614  -16460964.74148 -12826695.14663
  21699482.537   -14024014.662 6  -7097191.54022
 91  5  6 21  2 59.9980000  0  4G19G11G 2G 6
  21207959.6394    2130309.69546   1659973.61962
  23235990.717    -1705427.162 6  -1328898.71521
  20485022.4984  -16480423.93248 -12841858.12763
  21692727.787   -14059503.108 6  -7124844.82021
 91  5  6 21  3 14.9980000  0  4G19G11G 2G 6
  21211453.2094    2148681.69246   1674289.42462
  23241379.076    -1677098.968 6  -1306824.82621
  20481332.7014  -16499809.12848 -12856963.44763
  21685979.232   -14094971.600 6  -7152482.55121
 91  5  6 21  3 29.9980000  0  4G19G11G 2G 6
  21214961.6394    2167109.56346   1688648.76862
  23246790.982    -1648664.376 6  -1284668.02221
  20477654.9124  -16519131.67848 -12872019.95163
  21679231.1394  -14130431.54346  -7180113.61562
 91  5  6 21  3 44.9980000  0  4G19G11G 2G 6
  21218478.6934    2185600.90446   1703057.57662
  23252221.764    -1620116.115 6  -1262422.64321
  20473992.147   -16538384.092 8 -12887021.80423
  21672486.420   -14165875.108 6  -7207731.92322
 91  5  6 21  3 59.9980000  0  4G19G11G 2G 6
  21222013.2014    2204162.46046   1717521.09262
  23257678.2324   -1591447.67246  -1240083.60961
  20470343.2254  -16557559.83648 -12901963.91363
  21665745.506   -14201295.579 6  -7235332.23722
 91  5  6 21  4 14.9980000  0  4G19G11G 2G 6
  21225553.8574    2222784.24746   1732031.54262
  23263154.772    -1562669.455 6  -1217659.04021
  20466706.311   -16576668.873 8 -12916854.04623
  21659008.678   -14236702.881 6  -7262922.29022
 91  5  6 21  4 29.9980000  0  4G19G11G 2G 6
  21229109.756     2241464.640 6   1746587.66822
  23268651.678    -1533783.425 6  -1195150.46921
  20463082.7564  -16595712.97648 -12931693.58063
  21652271.7644  -14272098.52746  -7290503.25662
 91  5  6 21  4 44.9980000  0  4G19G11G 2G 6
  21232676.5374    2260211.41046   1761195.50762
  23274170.787    -1504782.176 6  -1172552.11521
  20459472.8264  -16614684.36448 -12946476.45263
  21645539.5764  -14307474.72446  -7318069.06462
 91  5  6 21  4 59.9980000  0  4G19G11G 2G 6
  21236257.6544    2279024.88646   1775855.32662
  23279711.568    -1475665.765 6  -1149864.03121
  20455875.2014  -16633582.93348 -12961202.58163
  21638812.803   -14342831.042 6  -7345619.38522
 91  5  6 21  5 14.9980000  0  4G19G11G 2G 6
  21239848.8114    2297900.57146   1790563.62162
  23285273.0144   -1446438.71246  -1127089.73561
  20452292.6074  -16652413.00348 -12975875.33463
  21632087.232   -14378171.696 6  -7373157.50222
 91  5  6 21  5 29.9980000  0  4G19G11G 2G 6
  21243452.9904    2316844.55146   1805325.13062
  23290857.475    -1417095.469 6  -1104224.88621
  20448723.7954  -16671168.79748 -12990490.21163
  21625365.0294  -14413490.75246  -7400678.78562
 91  5  6 21  5 44.9980000  0  4G19G11G 2G 6
  21247069.4204    2335852.96946   1820136.85162
  23296463.6074   -1387640.09246  -1081272.67561
  20445168.1544  -16689854.04048 -13005050.11463
  21618649.420   -14448791.675 6  -7428185.94722
 91  5  6 21  5 59.9980000  0  4G19G11G 2G 6
  21250705.6234    2354930.07246   1835002.09662
  23302090.475    -1358068.636 6  -1058230.00521
  20441626.0454  -16708464.60048 -13019551.81963
  21611935.272   -14484070.245 6  -7455675.68521
 91  5  6 21  6 14.9980000  0  4G19G11G 2G 6
  21254343.5144    2374070.80346   1849916.91762
  23307737.522    -1328386.562 6  -1035101.14621
  20438098.006   -16727005.775 8 -13033999.46323
  21605225.834   -14519331.383 6  -7483151.84322
 91  5  6 21  6 29.9980000  0  4G19G11G 2G 6
  21257998.9284    2393261.10546   1864870.36462
  23313403.0534   -1298608.59846  -1011897.56461
  20434580.740   -16745491.742 8 -13048404.08823
  21598515.139   -14554589.316 6  -7510625.50022
 91  5  6 21  6 44.9980000  0  4G19G11G 2G 6
  21261660.5534    2412516.77446   1879874.74562
  23319093.1544   -1268719.08146   -988607.06361
  20431075.498   -16763906.671 8 -13062753.36023
  21591811.006   -14589828.008 6  -7538084.16822
 91  5  6 21  6 59.9980000  0  4G19G11G 2G 6
  21265336.6474    2431832.88646   1894926.22662
  23324799.147    -1238723.086 6   -965233.58521
  20427584.068   -16782255.394 8 -13077051.04223
  21585106.834   -14625052.268 6  -7565531.58922
 91  5  6 21  7 14.9980000  0  4G19G11G 2G 6
  21269022.1314    2451208.20346   1910023.83862
  23330527.381    -1208622.414 6   -941778.54321
  20424104.678   -16800539.422 8 -13091298.31323
  21578407.1004  -14660263.26846  -7592968.67362
 91  5  6 21  7 29.9980000  0  4G19G11G 2G 6
  21272721.0844    2470644.22146   1925168.75262
  23336277.576    -1178415.935 6   -918241.05421
  20420638.623   -16818757.405 8 -13105494.11923
  21571710.256   -14695459.565 6  -7620394.30922
 91  5  6 21  7 44.9980000  0  4G19G11G 2G 6
  21276432.0454    2490143.41946   1940362.90162
  23342046.326    -1148101.539 6   -894619.46421
  20417184.0534  -16836906.80848 -13119636.48263
  21565015.1314  -14730638.46646  -7647806.38362
 91  5  6 21  7 59.9980000  0  4G19G11G 2G 6
  21280154.4824    2509702.95246   1955604.06362
  23347834.147    -1117682.172 6   -870916.09021
  20413743.1624  -16854990.38748 -13133727.55863
  21558324.232   -14765802.628 6  -7675206.97722
 91  5  6 21  8 14.9980000  0  4G19G11G 2G 6
  21283888.5764    2529330.75346   1970898.42062
  23353645.068    -1087150.344 6   -847125.07721
  20410315.0924  -16873000.50148 -13147761.38663
  21551636.842   -14800944.082 6  -7702589.87222
 91  5  6 21  8 29.9980000  0  4G19G11G 2G 6
  21287638.5374    2549025.25746   1986244.75362
  23359476.139    -1056507.999 6   -823247.94821
  20406903.3184  -16890939.08248 -13161739.47163
  21544953.3504  -14836064.36946  -7729956.27362
 91  5  6 21  8 44.9980000  0  4G19G11G 2G 6
  21291396.045     2568782.195 6   2001639.74222
  23365326.170    -1025759.813 6   -799288.34521
  20403501.9674  -16908810.40948 -13175665.15263
  21538272.467   -14871167.715 6  -7757309.47722
 91  5  6 21  8 59.9980000  0  4G19G11G 2G 6
  21295170.4754    2588606.16746   2017086.96362
  23371195.8654    -994901.62146   -775243.03561
  20400114.1474  -16926609.94848 -13189534.89463
  21531595.920   -14906249.493 6  -7784645.87422
 91  5  6 21  9 14.9980000  0  4G19G11G 2G 6
  21298951.2014    2608489.81146   2032580.68162
  23377089.6624    -963940.91446   -751117.83161
  20396739.3184  -16944345.01548 -13203354.39763
  21524924.0064  -14941316.83846  -7811971.02062
 91  5  6 21  9 29.9980000  0  4G19G11G 2G 6
  21302747.7404    2628433.31346   2048121.04662
  23383001.842     -932877.664 6   -726912.73021
  20393376.4674  -16962015.31348 -13217123.43063
  21518253.100   -14976369.357 6  -7839284.62122
 91  5  6 21  9 44.9980000  0  4G19G11G 2G 6
  21306555.6474    2648441.19446   2063711.57162
  23388931.5454    -901707.96546   -702624.68261
  20390028.0844  -16979616.55548 -13230838.65463
  21511585.8654  -15011402.58647  -7866583.18162
 91  5  6 21  9 59.9980000  0  4G19G11G 2G 6
  21310379.3974    2668520.76046   2079357.95162
  23394885.7484    -870424.97846   -678248.34561
  20386692.1934  -16997141.46848 -13244494.40463
  21504926.303   -15046409.118 7  -7893860.94722
 91  5  6 21 10 14.9980000  0  4G19G11G 2G 6
  21314209.7324    2688667.87646   2095056.97662
  23400860.443     -839032.921 6   -653787.03221
  20383371.3184  -17014594.17548 -13258093.88963
  21498268.248   -15081392.828 7  -7921120.92722
 91  5  6 21 10 29.9980000  0  4G19G11G 2G 6
  21318057.8974    2708879.18246   2110806.01662
  23406852.9754    -807535.40846   -629243.53761
  20380063.6474  -17031978.17148 -13271639.83164
  21491614.1704  -15116356.84047  -7948365.55362
 91  5  6 21 10 44.9980000  0  4G19G11G 2G 6
  21321913.2484    2729154.35646   2126604.81662
  23412865.990     -775933.309 6   -604618.55121
  20376768.0224  -17049293.96048 -13285132.62664
  21484965.248   -15151301.636 7  -7975595.21222
 91  5  6 21 10 59.9980000  0  4G19G11G 2G 6
  21325786.1624    2749488.52646   2142449.59162
  23418899.076     -744231.772 6   -579916.07721
  20373486.1784  -17066546.44148 -13298576.09064
  21478318.709   -15186231.940 7  -8002813.58022
 91  5  6 21 11 14.9980000  0  4G19G11G 2G 6
  21329665.2014    2769886.33746   2158343.96262
  23424952.365     -712426.599 6   -555132.83921
  20370214.5224  -17083730.99748 -13311966.62564
  21471674.592   -15221142.997 7  -8030016.94622
 91  5  6 21 11 29.9980000  0  4G19G11G 2G 6
  21333562.6154    2790359.24446   2174296.84462
  23431026.5764    -680506.70946   -530260.22761
  20366960.7724  -17100836.33148 -13325295.43064
  21465037.842   -15256023.243 7  -8057196.30722
 91  5  6 21 11 44.9980000  0  4G19G11G 2G 6
  21337470.6004    2810899.83846   2190302.47462
  23437121.686     -648479.801 6   -505304.21821
  20363719.3264  -17117869.86148 -13338568.27864
  21458403.443   -15290880.038 7  -8084357.39522
 91  5  6 21 11 59.9980000  0  4G19G11G 2G 6
  21341390.0684    2831486.62746   2206344.09162
  23443231.139     -616367.483 6   -480281.65021
  20360486.6394  -17134853.14148 -13351801.97964
  21451771.248   -15325734.543 7  -8111516.69322
 91  5  6 21 12 14.9980000  0  4G19G11G 2G 6
  21345316.0534    2852134.47246   2222433.28962
  23449361.2954    -584155.34246   -455181.30661
  20357269.4984  -17151771.45948 -13364985.05664
  21445141.803   -15360571.831 7  -8138662.58022
 91  5  6 21 12 29.9980000  0  4G19G11G 2G 6
  21349259.7324    2872846.10646   2238572.19562
  23455509.3814    -551841.13846   -430001.44161
  20354061.0924  -17168622.11448 -13378115.40664
  21438516.670   -15395389.177 7  -8165792.92722
 91  5  6 21 12 44.9980000  0  4G19G11G 2G 6
  21353210.3814    2893622.93846   2254761.89862
  23461679.975     -519423.673 6   -404741.09921
  20350867.1704  -17185403.79648 -13391192.01064
  21431894.936   -15430185.062 7  -8192906.55722
 91  5  6 21 12 59.9980000  0  4G19G11G 2G 6
  21357181.4904    2914468.72546   2271005.33562
  23467868.6234    -486899.46546   -379397.58261
  20347688.7014  -17202112.79148 -13404211.97764
  21425278.014   -15464955.562 7  -8220000.40422
 91  5  6 21 13 14.9980000  0  4G19G11G 2G 6
  21361157.0294    2935384.68346   2287303.44962
  23474077.9124    -454267.80145   -353970.34461
  20344522.6624  -17218748.07448 -13417174.50364
  21418665.834   -15499699.487 7  -8247073.54022
 91  5  6 21 13 29.9980000  0  4G19G11G 2G 6
  21365152.1074    2956361.16446   2303648.72862
  23480305.6314    -421538.63146   -328467.11961
  20341368.2564  -17235319.23448 -13430087.06663
  21412057.850   -15534426.303 7  -8274133.34622
 91  5  6 21 13 44.9980000  0  4G19G11G 2G 6
  21369155.0684    2977404.19846   2320045.86462
  23486553.6544    -388706.29146   -302883.50761
  20338228.2644  -17251820.17348 -13442944.91264
  21405455.076   -15569129.633 7  -8301174.85222
 91  5  6 21 13 59.9980000  0  4G19G11G 2G 6
  21373175.7254    2998511.81846   2336493.32762
  23492818.248     -355773.170 5   -277221.35121
  20335102.2254  -17268253.11448 -13455749.77264
  21398855.522   -15603811.516 7  -8328199.64622
 91  5  6 21 14 14.9980000  0  4G19G11G 2G 6
  21377199.0294    3019672.39846   2352982.05962
  23499104.2404    -322751.22546   -251490.00061
  20331985.3114  -17284629.88948 -13468510.86763
  21392256.412   -15638483.503 7  -8355216.72822
 91  5  6 21 14 29.9980000  0  4G19G11G 2G 6
  21381239.0144    3040898.34946   2369521.72262
  23505408.772     -289628.272 6   -225679.92721
  20328881.936   -17300938.157 8 -13481218.58323
  21385661.881   -15673132.888 7  -8382216.19522
 91  5  6 21 14 44.9980000  0  4G19G11G 2G 6
  21385289.8184    3062185.37046   2386108.97862
  23511729.9434    -256408.95646   -199794.76861
  20325791.998   -17317182.165 8 -13493876.22723
  21379072.029   -15707763.950 7  -8409201.39622
 91  5  6 21 14 59.9980000  0  4G19G11G 2G 6
  21389352.7874    3083538.16346   2402747.48962
  23518069.256     -223089.006 6   -173831.20821
  20322712.373   -17333357.342 8 -13506480.23623
  21372487.100   -15742371.917 7  -8436168.59622
 91  5  6 21 15 14.9980000  0  4G19G11G 2G 6
  21393427.0924    3104954.39546   2419435.42362
  23524427.5614    -189670.95046   -147791.19061
  20319648.154   -17349465.872 8 -13519032.31324
  21365905.295   -15776958.879 7  -8463119.42722
 91  5  6 21 15 29.9980000  0  4G19G11G 2G 6
  21397519.2954    3126434.18046   2436172.88362
  23530806.9824    -156155.08946   -121674.97061
  20316594.639   -17365507.799 8 -13531532.48923
  21359327.904   -15811524.629 7  -8490053.73222
 91  5  6 21 15 44.9980000  0  4G19G11G 2G 6
  21401614.1934    3147977.51046   2452959.85762
  23537201.717     -122541.870 6    -95482.86321
  20313554.6864  -17381483.22148 -13543980.84163
  21352753.951   -15846069.186 7  -8516971.52122
 91  5  6 21 15 59.9980000  0  4G19G11G 2G 6
  21405726.1004    3169582.55346   2469794.91462
  23543618.2254     -88833.34546    -69216.52161
  20310527.014   -17397393.933 8 -13556378.77523
  21346184.818   -15880594.031 7  -8543873.95322
 91  5  6 21 16 14.9980000  0  4G19G11G 2G 6
  21409848.9754    3191248.66746   2486677.56562
  23550051.5844     -55030.76046    -42876.87761
  20307510.1624  -17413241.02748 -13568727.12963
  21339618.834   -15915099.960 7  -8570761.65122
 91  5  6 21 16 29.9980000  0  4G19G11G 2G 6
  21413983.6544    3212977.52746   2503609.10462
  23556500.4124     -21132.77246    -16462.90261
  20304507.076   -17429022.835 8 -13581024.62323
  21333057.1394  -15949585.02647  -8597633.08762
 91  5  6 21 16 44.9980000  0  4G19G11G 2G 6
  21418130.725     3234771.792 6   2520591.61021
  23562969.498       12862.983 6     10027.27921
  20301517.975   -17444736.625 8 -13593269.10823
  21326498.498   -15984046.459 7  -8624486.10822
 91  5  6 21 16 59.9980000  0  4G19G11G 2G 6
  21422290.8184    3256627.54046   2537622.01961
  23569457.7874      46952.39046     36590.42961
  20298539.850   -17460386.388 8 -13605463.70523
  21319944.1864  -16018487.95647  -8651323.59662
 91  5  6 21 17 14.9980000  0  4G19G11G 2G 6
  21426463.8504    3278557.97046   2554710.62561
  23575963.5534      81148.28746     63236.55461
  20295576.873   -17475959.050 8 -13617598.22423
  21313395.897   -16052896.263 7  -8678135.22122
 91  5  6 21 17 29.9980000  0  4G19G11G 2G 6
  21430649.897     3300549.271 6   2571846.65822
  23582486.7254     115436.45046     89954.58761
  20292624.850   -17491468.509 8 -13629683.49523
  21306852.998   -16087285.155 7  -8704931.71322
 91  5  6 21 17 44.9980000  0  4G19G11G 2G 6
  21434845.8114    3322605.72446   2589033.46661
  23589031.7094     149820.82346    116747.57561
  20289686.107   -17506910.572 8 -13641716.24923
  21300314.248   -16121650.116 7  -8731709.56022
 91  5  6 21 17 59.9980000  0  4G19G11G 2G 6
  21439056.592     3344734.258 6   2606276.43821
  23595596.6314     184308.00846    143620.66161
  20286762.912   -17522278.331 8 -13653691.10623
  21293778.412   -16155984.063 7  -8758463.23922
 91  5  6 21 18 14.9980000  0  4G19G11G 2G 6
  21443278.045     3366921.836 6   2623565.41421
  23602175.7014     218884.67546    170563.48961
  20283849.123   -17537584.656 8 -13665618.09523
  21287249.881   -16190299.807 7  -8785202.73422
 91  5  6 21 18 29.9980000  0  4G19G11G 2G 6
  21447516.303     3389174.112 6   2640904.80721
  23608772.1784     253556.12146    197580.16661
  20280949.076   -17552824.092 8 -13677492.96123
  21280723.865   -16224591.632 7  -8811923.58822
 91  5  6 21 18 44.9980000  0  4G19G11G 2G 6
  21451759.631     3411488.699 6   2658292.75122
  23615387.998      288319.582 6    224668.54721
  20278062.006   -17567999.177 8 -13689317.68123
  21274201.951   -16258861.701 7  -8838627.49022
 91  5  6 21 18 59.9980000  0  4G19G11G 2G 6
  21456020.568     3433868.295 6   2675731.34921
  23622021.5224     323177.32846    251830.38161
  20275186.795   -17583107.403 8 -13701090.30723
  21267686.373   -16293107.437 7  -8865312.43922
 91  5  6 21 19 14.9980000  0  4G19G11G 2G 6
  21460286.8034    3456302.82646   2693212.75962
  23628671.7794     358118.98045    279057.61761
  20272323.131   -17598158.780 8 -13712818.63323
  21261170.873   -16327338.550 7  -8891985.98522
 91  5  6 21 19 29.9980000  0  4G19G11G 2G 6
  21464567.131     3478793.959 6   2710738.27722
  23635336.4514     393145.88745    306351.27661
  20269468.107   -17613151.714 8 -13724501.42223
  21254661.123   -16361553.334 7  -8918646.80722
 91  5  6 21 19 44.9980000  0  4G19G11G 2G 6
  21468861.287     3501357.769 6   2728320.42122
  23642025.045      428273.736 5    333723.59321
  20266631.115   -17628070.236 8 -13736126.22623
  21248155.600   -16395735.467 7  -8945282.18922
 91  5  6 21 19 59.9980000  0  4G19G11G 2G 6
  21473167.014     3523988.198 6   2745954.48122
  23648726.7874     463496.08045    361169.54361
  20263804.170   -17642920.450 8 -13747697.80423
  21241656.818   -16429890.956 7  -8971896.80922
 91  5  6 21 20 14.9980000  0  4G19G11G 2G 6
  21477484.115     3546673.085 6   2763630.97122
  23655443.5064     498800.57545    388679.51161
  20260989.998   -17657714.435 8 -13759225.56923
  21235159.350   -16464031.754 7  -8998499.97822
 91  5  6 21 20 29.9980000  0  4G19G11G 2G 6
  21481814.787     3569426.198 6   2781360.62522
  23662176.6154     534200.44845    416263.77861
  20258186.779   -17672438.824 8 -13770699.10523
  21228669.029   -16498144.163 7  -9025081.02922
 91  5  6 21 20 44.9980000  0  4G19G11G 2G 6
  21486157.4824    3592244.58246   2799141.13962
  23668930.725      569692.409 5    443919.82121
  20255398.537   -17687096.447 8 -13782120.61123
  21222181.787   -16532230.790 7  -9051641.99322
 91  5  6 21 20 59.9980000  0  4G19G11G 2G 6
  21490513.4674    3615130.10046   2816973.97062
  23675703.8574     605278.13045    471648.92961
  20252621.897   -17701685.503 8 -13793488.69023
  21215700.389   -16566289.625 7  -9078181.29822
 91  5  6 21 21 14.9980000  0  4G19G11G 2G 6
  21494876.428     3638068.327 6   2834847.87222
  23682491.3654     640942.70746    499439.45961
  20249855.623   -17716220.568 8 -13804814.69723
  21209222.373   -16600335.107 7  -9104710.19722
 91  5  6 21 21 29.9980000  0  4G19G11G 2G 6
  21499254.350     3661066.350 6   2852768.36222
  23689295.357      676692.873 6    527296.70021
  20247101.686   -17730694.491 8 -13816093.06123
  21202747.154   -16634359.815 7  -9131222.90822
 91  5  6 21 21 44.9980000  0  4G19G11G 2G 6
  21503639.912     3684125.905 6   2870736.79922
  23696112.9594     712530.19446    555221.86261
  20244359.842   -17745105.522 8 -13827322.42024
  21196275.600   -16668361.877 7  -9157717.97422
 91  5  6 21 21 59.9980000  0  4G19G11G 2G 6
  21508042.725     3707245.694 6   2888752.17322
  23702947.5294     748452.89746    583213.56361
  20241629.342   -17759455.148 8 -13838503.93023
  21189810.170   -16702342.429 7  -9184196.28222
 91  5  6 21 22 14.9980000  0  4G19G11G 2G 6
  21512450.545     3730427.786 6   2906816.09222
  23709802.178      784462.587 6    611273.03821
  20238909.561   -17773741.502 8 -13849636.13523
  21183349.147   -16736299.379 7  -9210656.19622
 91  5  6 21 22 29.9980000  0  4G19G11G 2G 6
  21516878.193     3753673.580 6   2924929.65222
  23716671.389      820560.481 6    639401.23621
  20236204.162   -17787963.103 8 -13860717.88623
  21176891.732   -16770231.020 7  -9237096.39022
 91  5  6 21 22 44.9980000  0  4G19G11G 2G 6
  21521312.9044    3776987.84346   2943096.56962
  23723556.693      856751.015 6    667601.63621
  20233511.404   -17802115.304 8 -13871745.55723
  21170438.397   -16804132.356 7  -9263512.97022
 91  5  6 21 22 59.9980000  0  4G19G11G 2G 6
  21525761.670     3800369.751 6   2961316.19322
  23730461.154      893033.021 6    695873.31421
  20230831.037   -17816198.844 8 -13882719.72724
  21163993.951   -16838004.163 7  -9289906.53322
 91  5  6 21 23 14.9980000  0  4G19G11G 2G 6
  21530224.904     3823827.982 6   2979595.29122
  23737385.1704     929414.63346    724222.61361
  20228165.951   -17830205.196 8 -13893633.75123
  21157556.779   -16871837.831 7  -9316270.38422
 91  5  6 21 23 29.9980000  0  4G19G11G 2G 6
  21534703.654     3847358.199 6   2997930.48522
  23744326.748      965891.368 6    752646.01821
  20225514.350   -17844138.805 8 -13904491.08923
  21151124.342   -16905637.110 7  -9342607.43922
 91  5  6 21 23 44.9980000  0  4G19G11G 2G 6
  21539192.482     3870950.148 6   3016313.77722
  23751284.4204    1002452.50946    781135.19861
  20222874.850   -17858010.063 8 -13915299.84524
  21144697.936   -16939412.333 7  -9368925.74722
 91  5  6 21 23 59.9980000  0  4G19G11G 2G 6
  21543692.4754    3894591.64446   3034735.68362
  23758256.217     1039085.597 6    809680.44721
  20220244.443   -17871830.992 8 -13926069.38524
  21138273.443   -16973175.510 7  -9395234.67122
 91  5  6 21 24 14.9980000  0  4G19G11G 2G 6
  21548205.248     3918307.544 6   3053215.55722
  23765245.647     1075815.151 6    838300.85121
  20217627.865   -17885576.944 8 -13936780.49924
  21131855.365   -17006901.743 7  -9421514.80822
 91  5  6 21 24 29.9980000  0  4G19G11G 2G 6
  21552732.287     3942097.150 6   3071752.87122
  23772251.357     1112640.247 6    866995.70721
  20215026.178   -17899248.395 8 -13947433.56223
  21125443.389   -17040591.263 7  -9447766.33522
 91  5  6 21 24 44.9980000  0  4G19G11G 2G 6
  21557271.9674    3965953.77646   3090342.40962
  23779274.6074    1149553.68045    895759.38061
  20212438.209   -17912852.363 8 -13958034.03723
  21119039.147   -17074250.788 7  -9473994.49322
 91  5  6 21 24 59.9980000  0  4G19G11G 2G 6
  21561827.232     3989879.236 6   3108985.58122
  23786320.529     1186556.884 5    924593.01721
  20209862.264   -17926387.197 8 -13968580.64324
  21112638.881   -17107878.311 7  -9500197.71322
 91  5  6 21 25 14.9980000  0  4G19G11G 2G 6
  21566389.631     4013872.084 6   3127681.26922
  23793373.9984    1223648.19645    953495.30761
  20207299.779   -17939854.301 8 -13979074.47123
  21106244.717   -17141475.059 7  -9526376.95222
 91  5  6 21 25 29.9980000  0  4G19G11G 2G 6
  21570971.068     4037936.531 6   3146432.73522
  23800452.2724    1260831.35145    982469.15561
  20204751.287   -17953249.598 8 -13989512.34624
  21099858.818   -17175036.821 7  -9552528.92922
 91  5  6 21 25 44.9980000  0  4G19G11G 2G 6
  21575563.522     4062076.760 6   3165243.25922
  23807545.7404    1298110.19445   1011517.57161
  20202216.779   -17966568.902 8 -13999891.00523
  21093479.3894  -17208559.28747  -9578650.29062
 91  5  6 21 25 59.9980000  0  4G19G11G 2G 6
  21580172.631     4086285.172 6   3184106.90922
  23814656.3344    1335476.83745   1040634.40461
  20199694.803   -17979819.854 8 -14010216.39824
  21087106.873   -17242049.757 7  -9604746.71422
 91  5  6 21 26 14.9980000  0  4G19G11G 2G 6
  21584789.732     4110564.240 6   3203025.61722
  23821781.740     1372933.343 5   1069821.24621
  20197186.022   -17993000.041 8 -14020486.65224
  21080740.373   -17275505.591 7  -9630816.15522
 91  5  6 21 26 29.9980000  0  4G19G11G 2G 6
  21589428.256     4134920.744 6   3222004.66722
  23828930.029     1410486.122 5   1099083.10621
  20194692.803   -18006102.851 8 -14030696.61123
  21074381.561   -17308919.942 7  -9656853.26622
 91  5  6 21 26 44.9980000  0  4G19G11G 2G 6
  21594074.850     4159347.825 6   3241038.71122
  23836092.553     1448128.065 5   1128414.44421
  20192212.459   -18019135.150 8 -14040851.63024
  21068029.2874  -17342299.33047  -9682863.13662
 91  5  6 21 26 59.9980000  0  4G19G11G 2G 6
  21598737.0224    4183850.20046   3260131.43062
  23843270.8424    1485863.47645   1157818.63561
  20189747.287   -18032092.245 8 -14050948.04023
  21061686.061   -17375638.847 7  -9708841.94022
 91  5  6 21 27 14.9980000  0  4G19G11G 2G 6
  21603414.389     4208433.858 6   3279287.48422
  23850474.889     1523698.038 5   1187300.05921
  20187297.631   -18044968.128 8 -14060981.17723
  21055350.045   -17408932.402 7  -9734784.92522
 91  5  6 21 27 29.9980000  0  4G19G11G 2G 6
  21608108.756     4233091.363 6   3298501.07922
  23857690.6934    1561623.94045   1216852.67361
  20184861.076   -18057770.512 8 -14070957.03924
  21049021.959   -17442187.349 7  -9760697.82722
 91  5  6 21 27 44.9980000  0  4G19G11G 2G 6
  21612809.3184    4257805.29346   3317758.64162
  23864922.5064    1599623.45145   1246462.64761
  20182436.568   -18070516.711 8 -14080889.12123
  21042697.5454  -17475420.74347  -9786593.94162
 91  5  6 21 27 59.9980000  0  4G19G11G 2G 6
  21617528.670     4282594.085 6   3337074.53222
  23872171.6394    1637714.53445   1276143.97261
  20180024.568   -18083188.318 8 -14090763.08023
  21036380.4434  -17508614.18247  -9812458.91862
 91  5  6 21 28 14.9980000  0  4G19G11G 2G 6
  21622255.561     4307449.944 6   3356442.68522
  23879436.1934    1675889.20145   1305890.43961
  20177625.990   -18095793.038 8 -14100584.91523
  21030071.3034  -17541775.04547  -9838298.51062
 91  5  6 21 28 29.9980000  0  4G19G11G 2G 6
  21627003.068     4332381.170 6   3375869.56822
  23886716.0844    1714155.49045   1335708.29061
  20175241.076   -18108322.858 8 -14110348.39223
  21023767.451   -17574894.918 7  -9864106.16122
 91  5  6 21 28 44.9980000  0  4G19G11G 2G 6
  21631760.389     4357388.514 6   3395355.76822
  23894017.8574    1752513.57346   1365597.68961
  20172871.256   -18120777.179 8 -14120053.03723
  21017472.8424  -17607972.96147  -9889881.22262
 91  5  6 21 28 59.9980000  0  4G19G11G 2G 6
  21636532.420     4382462.559 6   3414893.93522
  23901332.256     1790953.709 6   1395551.01621
  20170513.100   -18133165.390 8 -14129706.16923
  21011185.240   -17641018.430 7  -9915630.89822
 91  5  6 21 29 14.9980000  0  4G19G11G 2G 6
  21641316.225     4407610.841 6   3434489.94622
  23908661.756     1829483.123 6   1425573.91621
  20168170.920   -18145480.047 8 -14139301.98623
  21004903.6474  -17674023.66947  -9941349.22362
 91  5  6 21 29 29.9980000  0  3G19G 2G 6
  21646118.147     4432841.079 6   3454149.82322
  20165842.537   -18157713.189 8 -14148834.28223
  20998633.7404  -17706980.50747  -9967029.83462
 91  5  6 21 29 44.9980000  0  3G19G 2G 6
  21650932.748     4458138.744 6   3473862.24122
  20163527.764   -18169879.782 8 -14158314.72423
  20992367.2724  -17739903.52347  -9992684.09763
 91  5  6 21 29 59.9980000  0  3G19G 2G 6
  21655760.123     4483502.244 6   3493625.96022
  20161224.287   -18181981.431 8 -14167744.55823
  20986109.4754  -17772794.13647 -10018313.10563
 91  5  6 21 30 14.9980000  0  3G19G 2G 6
  21660597.3894    4508932.79146   3513441.91562
  20158934.490   -18194016.751 8 -14177122.71023
  20979856.2794  -17805650.71647 -10043915.59463
 91  5  6 21 30 29.9980000  0  3G19G 2G 6
  21665450.357     4534428.271 6   3533308.47222
  20156655.693   -18205987.939 8 -14186450.88724
  20973611.0294  -17838475.40247 -10069493.23462
 91  5  6 21 30 44.9980000  0  3G19G 2G 6
  21670315.131     4559994.220 6   3553229.93922
  20154392.037   -18217889.569 8 -14195724.86424
  20967370.7094  -17871262.43347 -10095041.52962
 91  5  6 21 30 59.9980000  0  3G19G 2G 6
  21675198.787     4585641.740 6   3573214.97322
  20152141.693   -18229710.582 8 -14204936.02424
  20961141.3344  -17904000.42447 -10120551.61562
 91  5  6 21 31 14.9980000  0  3G19G 2G 6
  21680086.522     4611345.160 6   3593243.56122
  20149903.186   -18241476.716 8 -14214104.41823
  20954915.7174  -17936714.94547 -10146043.41363
 91  5  6 21 31 29.9980000  0  3G19G 2G 6
  21684995.498     4637119.157 6   3613327.14622
  20147677.123   -18253173.358 8 -14223218.66523
  20948697.0374  -17969390.96447 -10171505.20863
 91  5  6 21 31 44.9980000  0  3G19G 2G 6
  21689908.834     4662961.539 6   3633464.01222
  20145464.045   -18264802.671 8 -14232280.45023
  20942487.2094  -18002030.60147 -10196938.65062
 91  5  6 21 31 59.9980000  0  3G19G 2G 6
  21694839.311     4688872.567 6   3653654.36822
  20143264.357   -18276364.462 8 -14241289.61523
  20936282.6784  -18034633.21847 -10222343.24863
 91  5  6 21 32 14.9980000  0  3G19G 2G 6
  21699784.717     4714859.682 6   3673904.01622
  20141078.545   -18287851.443 8 -14250240.49023
  20930085.3264  -18067191.47747 -10247713.28463
 91  5  6 21 32 29.9980000  0  3G19G 2G 6
  21704741.842     4740918.414 6   3694209.46722
  20138904.826   -18299268.071 8 -14259136.54423
  20923900.326   -18099709.543 7 -10273051.98923
 91  5  6 21 32 44.9980000  0  3G19G 2G 6
  21709717.522     4767053.386 6   3714574.32622
  20136747.592   -18310609.817 8 -14267974.25024
  20917719.6234  -18132182.58647 -10298355.62163
 91  5  6 21 32 59.9980000  0  3G19G 2G 6
  21714705.139     4793264.603 6   3734998.60222
  20134602.826   -18321876.580 8 -14276753.52723
  20911547.3734  -18164610.37647 -10323623.98963
 91  5  6 21 33 14.9980000  0  3G19G 2G 6
  21719704.881     4819537.706 6   3755471.09922
  20132470.100   -18333082.807 8 -14285485.63223
  20905383.5764  -18197007.15247 -10348868.19463
 91  5  6 21 33 29.9980000  0  3G19G 2G 6
  21724717.272     4845875.221 6   3775993.78822
  20130350.123   -18344226.173 8 -14294168.75523
  20899225.4674  -18229370.24847 -10374086.14863
 91  5  6 21 33 44.9980000  0  3G19G 2G 6
  21729739.803     4872277.624 6   3796567.03922
  20128240.936   -18355306.094 8 -14302802.44423
  20893073.1474  -18261698.76347 -10399277.15563
 91  5  6 21 33 59.9980000  0  3G19G 2G 6
  21734779.318     4898750.490 6   3817195.19622
  20126147.318   -18366317.077 8 -14311382.40923
  20886928.5684  -18293987.07747 -10424436.84063
 91  5  6 21 34 14.9980000  0  3G19G 2G 6
  21739828.248     4925290.600 6   3837875.74922
  20124063.678   -18377262.469 8 -14319911.26823
  20880791.7254  -18326238.11747 -10449567.48263
 91  5  6 21 34 29.9980000  0  3G19G 2G 6
  21744895.850     4951907.324 6   3858615.99922
  20121994.404   -18388132.965 8 -14328381.76823
  20874663.2644  -18358442.38947 -10474661.67763
 91  5  6 21 34 44.9980000  0  3G19G 2G 6
  21749971.154     4978593.368 6   3879410.26322
  20119938.889   -18398935.805 8 -14336799.54823
  20868541.9824  -18390606.99347 -10499724.96763
 91  5  6 21 34 59.9980000  0  3G19G 2G 6
  21755065.287     5005347.924 6   3900257.91922
  20117895.615   -18409671.786 8 -14345165.23223
  20862430.3814  -18422732.36147 -10524757.67963
 91  5  6 21 35 14.9980000  0  3G19G 2G 6
  21760168.217     5032168.822 6   3921157.26322
  20115865.076   -18420343.241 8 -14353480.63823
  20856323.4514  -18454820.60747 -10549761.46963
 91  5  6 21 35 29.9980000  0  3G19G 2G 6
  21765284.709     5059057.200 6   3942109.19722
  20113846.725   -18430949.235 8 -14361745.03723
  20850226.357   -18486870.449 7 -10574735.32923
 91  5  6 21 35 44.9980000  0  3G19G 2G 6
  21770413.037     5086007.481 6   3963109.36622
  20111840.084   -18441495.223 8 -14369962.67423
  20844132.1004  -18518887.18947 -10599683.40863
 91  5  6 21 35 59.9980000  0  3G19G 2G 6
  21775556.334     5113025.528 6   3984162.33322
  20109846.3344  -18451975.34848 -14378128.99163
  20838046.537   -18550864.802 7 -10624600.97723
 91  5  6 21 36 14.9980000  0  3G19G 2G 6
  21780708.8504    5140117.70846   4005273.07062
  20107864.795   -18462383.263 8 -14386239.04423
  20831970.342   -18582796.551 7 -10649482.81823
 91  5  6 21 36 29.9980000  0  3G19G 2G 6
  21785876.3894    5167271.49446   4026431.80862
  20105896.373   -18472731.508 8 -14394302.60123
  20825900.9824  -18614694.76447 -10674338.52963
 91  5  6 21 36 44.9980000  0  3G19G 2G 6
  21791054.7484    5194483.77046   4047636.11662
  20103937.8814  -18483023.39048 -14402322.23463
  20819836.6074  -18646562.41547 -10699170.42763
 91  5  6 21 36 59.9980000  0  3G19G 2G 6
  21796244.193     5221753.391 6   4068885.11622
  20101989.9514  -18493260.04148 -14410298.83363
  20813778.2564  -18678400.46847 -10723979.26063
 91  5  6 21 37 14.9980000  0  3G19G 2G 6
  21801443.4594    5249081.31346   4090179.54062
  20100052.5534  -18503440.46048 -14418231.61763
  20807725.2094  -18710207.47647 -10748763.90063
 91  5  6 21 37 29.9980000  0  3G19G 2G 6
  21806659.4204    5276472.47746   4111523.24562
  20098126.178   -18513559.807 8 -14426116.80923
  20801679.1394  -18741978.54747 -10773520.54163
 91  5  6 21 37 44.9980000  0  3G19G 2G 6
  21811880.709     5303922.196 6   4132912.58421
  20096212.232   -18523622.642 8 -14433957.96523
  20795639.1784  -18773718.06747 -10798252.59863
 91  5  6 21 37 59.9980000  0  3G19G 2G 6
  21817118.4204    5331443.04246   4154357.34261
  20094310.1474  -18533616.58848 -14441745.44663
  20789607.6704  -18805413.33547 -10822950.17063
 91  5  6 21 38 14.9980000  0  3G19G 2G 6
  21822368.0684    5359034.79746   4175857.35161
  20092421.607   -18543541.921 8 -14449479.46023
  20783584.6544  -18837064.29747 -10847613.21863
 91  5  6 21 38 29.9980000  0  3G19G 2G 6
  21827632.0294    5386688.34746   4197405.51461
  20090544.561   -18553407.803 8 -14457167.14523
  20777566.6234  -18868679.92347 -10872248.73663
 91  5  6 21 38 44.9980000  0  3G19G 2G 6
  21832906.1314    5414409.99846   4219006.73561
  20088679.537   -18563207.805 8 -14464803.49923
  20771558.4674  -18900253.48347 -10896851.46763
 91  5  6 21 38 59.9980000  0  3G19G 2G 6
  21838196.2174    5442192.53746   4240655.40661
  20086825.873   -18572949.295 8 -14472394.25623
  20765557.7724  -18931792.10247 -10921426.97763
 91  5  6 21 39 14.9980000  0  3G19G 2G 6
  21843493.3424    5470042.13246   4262356.32861
  20084984.654   -18582626.225 8 -14479934.70523
  20759564.1074  -18963289.52447 -10945970.38163
 91  5  6 21 39 29.9980000  0  3G19G 2G 6
  21848804.9904    5497960.31046   4284110.68861
  20083154.732   -18592237.139 8 -14487423.71423
  20753579.0454  -18994743.75047 -10970480.12763
 91  5  6 21 39 44.9980000  0  4G15G19G 2G 6
  23579775.2324         -0.42955
  21854129.3734    5525943.87146   4305916.00161
  20081338.193   -18601785.116 8 -14494863.68123
  20747600.7014  -19026157.89047 -10994958.63863
 91  5  6 21 39 59.9980000  0  4G15G19G 2G 6
  23573666.0454     -32094.33045
  21859468.9044    5553996.83646   4327775.39361
  20079533.561   -18611266.299 8 -14502251.59923
  20741630.647   -19057527.627 7 -11019402.54523
 91  5  6 21 40 14.9980000  0  4G15G19G 2G 6
  23567578.6474     -64094.40145        -0.39671
  21864819.6474    5582121.41646   4349690.59361
  20077743.529   -18620678.328 8 -14509585.63323
  20735669.8504  -19088850.63347 -11043810.04163
 91  5  6 21 40 29.9980000  0  4G15G19G 2G 6
  23561504.8734     -96003.06945    -24864.19961
  21870188.1544    5610314.56946   4371659.22061
  20075962.936   -18630024.381 8 -14516868.25523
  20729719.342   -19120129.507 7 -11068183.15023
 91  5  6 21 40 44.9980000  0  4G15G19G 2G 6
  23555449.0064    -127824.29645    -49659.87661
  21875562.3654    5638571.94646   4393677.88861
  20074197.381   -18639308.830 8 -14524102.87923
  20723774.951   -19151368.501 7 -11092525.18023
 91  5  6 21 40 59.9980000  0  4G15G19G 2G 6
  23549413.2724    -159561.70345    -74390.21961
  21880953.8114    5666889.63946   4415743.56061
  20072441.514   -18648535.631 8 -14531292.57423
  20717836.342   -19182571.223 7 -11116838.94723
 91  5  6 21 41 14.9980000  0  4G15G19G 2G 6
  23543387.443     -191209.451 5    -99050.73121
  21886353.7094    5695273.13346   4437860.50761
  20070698.467   -18657699.276 8 -14538433.05923
  20711906.014   -19213731.989 7 -11141120.02123
 91  5  6 21 41 29.9980000  0  4G15G19G 2G 6
  23537379.873     -222768.449 5   -123642.08021
  21891767.2324    5723721.22146   4460027.78561
  20068965.248   -18666801.289 8 -14545525.52223
  20705985.225   -19244852.010 7 -11165369.34623
 91  5  6 21 41 44.9980000  0  4G15G19G 2G 6
  23531392.1154    -254237.45645   -148163.29061
  21897191.1864    5752234.70346   4482246.02261
  20067245.795   -18675840.804 8 -14552569.28223
  20700069.7174  -19275930.04047 -11189585.95163
 91  5  6 21 41 59.9980000  0  4G15G19G 2G 6
  23525422.7094    -285612.06445   -172610.95761
  21902633.2094    5780817.72546   4504518.43961
  20065537.779   -18684813.666 8 -14559561.10323
  20694164.522   -19306961.699 7 -11213766.42223
 91  5  6 21 42 14.9980000  0  4G15G19G 2G 6
  23519471.482     -316900.955 5   -196991.83521
  21908080.6624    5809460.92546   4526837.75261
  20063841.732   -18693729.126 8 -14566508.19723
  20688267.912   -19337956.043 7 -11237917.81823
 91  5  6 21 42 29.9980000  0  4G15G19G 2G 6
  23513537.147     -348094.674 5   -221298.56321
  21913546.0374    5838173.40045   4549211.04762
  20062157.709   -18702578.153 8 -14573403.52123
  20682378.076   -19368903.737 7 -11262032.86323
 91  5  6 21 42 44.9980000  0  4G15G19G 2G 6
  23507615.592     -379192.362 5   -245530.45021
  21919022.3734    5866955.80046   4571638.82561
  20060486.443   -18711360.135 8 -14580246.60223
  20676498.0684  -19399803.98647 -11286110.94163
 91  5  6 21 42 59.9970000  0  5G15G19G13G 2G 6
  23501715.9464    -410199.45245   -269691.75261
  21924511.1344    5895798.35946   4594113.48661
  23372923.0484         -0.15254
  20058826.532   -18720082.383 8 -14587043.13823
  20670626.7204  -19430662.25247 -11310156.30063
 91  5  6 21 43 14.9970000  0  5G15G19G13G 2G 6
  23495831.603     -441116.746 5
  21930010.6104    5924707.64646   4616640.14661
  23360299.7514     -66324.42644
  20057178.946   -18728743.279 8 -14593791.87023
  20664760.4624  -19461479.69947
 91  5  6 21 43 29.9970000  0  5G15G19G13G 2G 6
  23489964.8994    -471943.21145
  21935529.1184    5953680.64345   4639216.44361
  23347684.6184    -132621.66644
  20055542.274   -18737343.457 8 -14600493.28624
  20658904.9784  -19492255.26247
 91  5  6 21 43 44.9970000  0  5G15G19G13G 2G 6
  23484118.0714    -502675.52245
  21941052.1734    5982720.19046   4661844.60061
  23335074.3214    -198888.48444
  20053917.306   -18745879.788 8 -14607144.95223
  20653056.7124  -19522985.66547 -11382096.51163
 91  5  6 21 43 59.9970000  0  5G15G19G13G 2G 6
  23478284.5644    -533318.18745
  21946592.9074    6011821.18846   4684520.64361
  23322468.8294    -265129.71745
  20052304.204   -18754357.727 8 -14613751.12124
  20647216.2744  -19553675.87947 -11406010.92763
 91  5  6 21 44 14.9970000  0  5G15G19G13G 2G 6
  23472474.0874    -563866.23045
  21952139.9544    6040988.53246   4707248.37961
  23309870.321     -331340.101 5
  20050702.790   -18762772.456 8 -14620308.03423
  20641385.7284  -19584320.83547 -11429890.07863
 91  5  6 21 44 29.9970000  0  5G15G19G13G 2G 6
  23466676.532     -594316.952 5        -0.47631
  21957703.1574    6070224.56846   4730029.64661
  23297275.0174    -397517.07544
  20049115.001   -18771121.713 8 -14626813.93424
  20635562.2044  -19614917.82347 -11453731.84863
 91  5  6 21 44 44.9970000  0  5G15G19G13G 2G 6
  23460904.548     -624672.892 5    -23654.37421
  21963279.5244    6099526.64346   4752862.37061
  23284688.423     -463662.852 4        -0.42231
  20047536.689   -18779408.179 8 -14633270.90223
  20629749.1034  -19645469.50447 -11477538.31363
 91  5  6 21 44 59.9970000  0  5G15G19G13G 2G 6
  23455143.829     -654934.112 5    -47234.47721
  21968869.5644    6128893.55946   4775745.62161
  23272107.8144    -529777.87844    -51518.25061
  20045972.642   -18787632.853 8 -14639679.72523
  20623943.728   -19675976.493 7 -11501309.95123
 91  5  6 21 45 14.9970000  0  5G15G19G13G 2G 6
  23449406.196     -685099.764 5    -70740.11521
  21974467.8684    6158326.06046   4798679.96361
  23259528.6424    -595860.85544   -103011.17961
  20044418.993   -18795794.767 8 -14646039.64623
  20618147.2434  -19706437.81847 -11525046.00963
 91  5  6 21 45 29.9970000  0  5G15G19G13G 2G 6
  23443680.470     -715171.818 5    -94172.84721
  21980083.4624    6187821.94946   4821663.71561
  23246961.5014    -661913.70843   -154480.56761
  20042877.962   -18803896.577 8 -14652352.72823
  20612358.1184  -19736855.54847 -11548748.09963
 91  5  6 21 45 44.9970000  0  5G15G19G13G 2G 6
  23437973.4394    -745146.29145   -117529.48961
  21985707.3374    6217384.96246   4844699.76361
  23234397.774     -727932.386 4   -205923.37221
  20041348.110   -18811934.629 8 -14658616.13523
  20606580.3994  -19767225.75147 -11572413.15463
 91  5  6 21 45 59.9970000  0  5G15G19G13G 2G 6
  23432289.2744    -775026.10045   -140812.37061
  21991344.9784    6247011.61446   4867785.40761
  23221835.032     -793919.942 4   -257341.92221
  20039829.032   -18819912.379 8 -14664832.54823
  20600808.8294  -19797551.61247 -11596043.66063
 91  5  6 21 46 14.9970000  0  5G15G19G13G 2G 6
  23426621.040     -804810.584 5   -164021.01921
  21996992.9154    6276702.40246   4890921.03061
  23209294.079     -859875.499 4   -308735.53521
  20038323.571   -18827829.221 8 -14671001.50223
  20595046.6894  -19827832.30347 -11619638.96563
 91  5  6 21 46 29.9970000  0  5G15G19G13G 2G 6
  23420969.3534    -834505.81645   -187160.08061
  22002657.9544    6306450.54746   4914101.32961
  23196743.595     -925805.421 4   -360109.18421
  20036827.017   -18835691.795 8 -14677128.16823
  20589291.9544  -19858074.30147 -11643204.11963
 91  5  6 21 46 44.9970000  0  5G15G19G13G 2G 6
  23415340.7434    -864106.48645   -210225.49061
  22008330.7284    6336260.83846   4937330.06561
  23184205.4074    -991704.24944   -411458.59361
  20035342.001   -18843495.444 8 -14683208.91623
  20583544.3764  -19888272.60247 -11666735.22863
 91  5  6 21 46 59.9970000  0  5G15G19G13G 2G 6
  23409724.821     -893613.065 5   -233217.58521
  22014014.0794    6366132.90045   4960606.92961
  23171668.540    -1057571.994 4   -462783.76221
  20033868.220   -18851240.800 8 -14689244.24423
  20577805.4934  -19918427.46747 -11690232.48963
 91  5  6 21 47 14.9970000  0  5G15G19G13G 2G 6
  23404126.2354    -923022.69545   -256134.11661
  22019711.3844    6396068.96946   4983933.67461
  23159138.071    -1123406.293 4   -514082.91921
  20032405.009   -18858925.427 8 -14695232.24823
  20572077.5954  -19948536.34747 -11713693.91863
 91  5  6 21 47 29.9970000  0  5G15G19G13G 2G 6
  23398550.1104    -952339.37745   -278978.21961
  22025420.8604    6426064.75445   5007306.94761
  23146618.220    -1189210.608 5   -565358.67321
  20030953.282   -18866553.637 8 -14701176.29123
  20566354.9464  -19978603.11247 -11737122.53063
 91  5  6 21 47 44.9970000  0  5G15G19G13G 2G 6
  23392987.4784    -981560.10945   -301747.56061
  22031137.9544    6456122.65146   5030728.62261
  23134105.712    -1254982.153 5   -616608.90321
  20029513.743   -18874122.970 8 -14707074.45823
  20560641.8374  -20008625.06647 -11760516.22863
 91  5  6 21 47 59.9970000  0  5G15G19G13G 2G 6
  23387445.1734   -1010688.25245   -324444.74261
  22036869.3144    6486239.08245   5054195.90361
  23121590.7984   -1320724.20145   -667836.17661
  20028083.712   -18881637.002 8 -14712929.53223
  20554937.4464  -20038605.64147 -11783877.68063
 91  5  6 21 48 14.9970000  0  5G15G19G13G 2G 6
  23381922.2824   -1039720.94745   -347067.55861
  22042610.3844    6516416.61845   5077710.80361
  23109089.157    -1386434.038 5   -719038.31121
  20026665.079   -18889093.427 8 -14718739.71823
  20549240.6034  -20068542.06847 -11807204.73263
 91  5  6 21 48 29.9970000  0  5G15G19G13G 2G 6
  23376413.9784   -1068658.25646   -369616.04061
  22048368.0714    6546654.94345   5101273.06661
  23096589.5874   -1452111.25545   -770215.05561
  20025256.821   -18896492.405 8 -14724505.13923
  20543552.3844  -20098434.38647 -11830497.41563
 91  5  6 21 48 44.9970000  0  5G15G19G13G 2G 6
  23370925.189    -1097502.223 5   -392091.80021
  22054129.3534    6576951.70946   5124880.87561
  23084096.376    -1517757.695 5   -821367.79721
  20023858.673   -18903836.318 8 -14730227.65523
  20537871.8294  -20128284.55447 -11853757.25163
 91  5  6 21 48 59.9970000  0  5G15G19G13G 2G 6
  23365456.814    -1126248.138 5   -414491.16621
  22059910.0014    6607311.16445   5148537.53061
  23071610.939    -1583368.724 5   -872492.98621
  20022472.907   -18911120.925 8 -14735903.95823
  20532200.9544  -20158088.32447 -11876980.93763
 91  5  6 21 49 14.9970000  0  5G15G19G13G 2G 6
  23360000.548    -1154893.435 5   -436812.11321
  22065698.3764    6637735.41446   5172244.67461
  23059133.5174   -1648941.81045   -923588.57161
  20021098.001   -18918344.095 8 -14741532.38523
  20526538.9394  -20187843.12647 -11900166.46563
 91  5  6 21 49 29.9970000  0  5G15G19G13G 2G 6
  23354573.4234   -1183435.64545   -459052.73661
  22071501.0794    6668226.51145   5196003.90861
  23046661.806    -1714474.675 5   -974652.84121
  20019736.360   -18925504.069 8 -14747111.57323
  20520885.0324  -20217546.75547 -11923312.11763
 91  5  6 21 49 44.9970000  0  5G15G19G13G 2G 6
  23349159.7744   -1211879.70345   -481216.89661
  22077316.3294    6698779.06746   5219811.02861
  23034201.1184   -1779972.18845  -1025689.53861
  20018384.071   -18932606.138 8 -14752645.63723
  20515241.9784  -20247204.37147 -11946421.91263
 91  5  6 21 49 59.9970000  0  5G15G19G13G 2G 6
  23343769.4704   -1240221.75645   -503301.53261
  22083143.6964    6729396.76345   5243668.90861
  23021742.7434   -1845430.12445  -1076695.42161
  20017044.142   -18939646.451 8 -14758131.57623
  20509608.4154  -20276811.90847 -11969492.68163
 91  5  6 21 50 14.9970000  0  5G15G19G13G 2G 6
  23338393.399    -1268455.714 5   -525301.94621
  22088981.8294    6760084.98946   5267581.73861
  23009294.6574   -1910842.58345  -1127665.85861
  20015718.274   -18946619.588 8 -14763565.18123
  20503983.6344  -20306363.49647 -11992519.85963
 91  5  6 21 50 29.9970000  0  5G15G19G13G 2G 6
  23333038.6654   -1296593.72545   -547227.60461
  22094834.8994    6790831.74346   5291540.18161
  22996852.4314   -1976221.19345  -1178609.92761
  20014401.501   -18953537.645 8 -14768955.86223
  20498367.7984  -20335871.11347 -12015512.77363
 91  5  6 21 50 44.9970000  0  5G15G19G13G 2G 6
  23327701.1104   -1324630.81445   -569074.64561
  22100695.4624    6821641.32046   5315547.57761
  22984416.7434   -2041561.32845  -1229524.03961
  20013095.7044  -18960396.53948 -14774300.44363
  20492763.9544  -20365330.20847 -12038467.87863
 91  5  6 21 50 59.9970000  0  5G15G19G13G 2G 6
  23322386.2674   -1352566.09845   -590842.31361
  22106572.524     6852514.364 5   5339604.42721
  22971993.712    -2106861.849 5  -1280407.27121
  20011802.360   -18967195.505 8 -14779598.32423
  20487166.0324  -20394740.01247 -12061384.57263
 91  5  6 21 51 14.9970000  0  5G15G19G13G 2G 6
  23317089.8534   -1380398.81445   -612530.07761
  22112456.3214    6883451.29546   5363711.05261
  22959572.024    -2172121.930 5  -1331258.99521
  20010519.6184  -18973934.22248 -14784849.26263
  20481579.6344  -20424099.68447 -12084262.20263
 91  5  6 21 51 29.9970000  0  5G15G19G13G 2G 6
  23311816.774    -1408120.074 5   -634130.98321
  22118362.5014    6914460.49445   5387873.99561
  22947162.384    -2237332.770 5  -1382072.36821
  20009250.610   -18980604.086 8 -14790046.54423
  20476004.9154  -20453400.46347 -12107093.94463
 91  5  6 21 51 44.9970000  0  5G15G19G13G 2G 6
  23306560.540    -1435739.358 5   -655652.44221
  22124270.5644    6945532.21746   5412085.65761
  22934759.993    -2302503.797 5  -1432854.67921
  20007992.001   -18987214.904 8 -14795197.81623
  20470438.0954  -20482651.95147 -12129887.27863
 91  5  6 21 51 59.9970000  0  5G15G19G13G 2G 6
  23301323.493    -1463252.989 5   -677091.56721
  22130197.228     6976669.733 5   5436348.58321
  22922369.3764   -2367631.28545  -1483603.09561
  20006746.110   -18993763.563 8 -14800300.65323
  20464881.1574  -20511850.55447 -12152639.40663
 91  5  6 21 52 14.9970000  0  5G15G19G13G 2G 6
  23296109.7674   -1490660.50145   -698448.00461
  22136133.439     7007873.165 6   5460662.87621
  22909982.0014   -2432714.48345  -1534317.00961
  20005511.743   -19000249.975 8 -14805354.98523
  20459333.6894  -20540995.91847 -12175350.04963
 91  5  6 21 52 29.9970000  0  5G15G19G13G 2G 6
  23290912.548    -1517963.752 5   -719723.20221
  22142083.6034    7039140.30345   5485026.80861
  22897605.189    -2497755.161 5  -1584997.80721
  20004289.5484  -19006676.39248 -14810362.57263
  20453797.9464  -20570090.01547 -12198020.74263
 91  5  6 21 52 44.9970000  0  5G15G19G13G 2G 6
  23285738.6264   -1545163.42345   -740917.70461
  22148046.603     7070470.021 6   5509439.50421
  22885236.3684   -2562754.01545  -1635646.00761
  20003077.5244  -19013043.80748 -14815324.18464
  20448271.3684  -20599133.56047 -12220652.04663
 91  5  6 21 52 59.9970000  0  5G15G19G13G 2G 6
  23280579.5874   -1572259.53745   -762031.48661
  22154021.4784    7101861.97845   5533900.69961
  22872875.3924   -2627710.83845  -1686261.44461
  20001877.345   -19019352.404 8 -14820239.95724
  20442753.9234  -20628126.56147 -12243243.96463
 91  5  6 21 53 14.9970000  0  5G15G19G13G 2G 6
  23275443.7514   -1599256.18045   -783067.79261
  22160004.0174    7133311.79045   5558406.97661
  22860523.267    -2692629.721 5  -1736847.32121
  20000685.5174  -19025606.65748 -14825113.39264
  20437246.0404  -20657073.16747 -12265799.72963
 91  5  6 21 53 29.9970000  0  5G15G19G13G 2G 6
  23270325.306    -1626153.552 5   -804026.68921
  22166000.6574    7164818.58445   5582957.65861
  22848173.657    -2757511.075 5  -1787403.96621
  19999506.6894  -19031807.48548 -14829945.19664
  20431746.7284  -20685973.92747 -12288319.77063
 91  5  6 21 53 44.9970000  0  5G15G19G13G 2G 6
  23265225.064    -1652945.979 5   -824903.86221
  22172006.439     7196387.777 6   5607556.95421
  22835837.7824   -2822348.89545  -1837926.69261
  19998337.3454  -19037949.52248 -14834731.19363
  20426256.2514  -20714823.24547 -12310799.72863
 91  5  6 21 53 59.9970000  0  5G15G19G13G 2G 6
  23260147.8764   -1679631.87145   -845698.01461
  22178031.0874    7228020.68745   5632205.90961
  22823506.1574   -2887141.59145  -1888414.26261
  19997180.7354  -19044031.43448 -14839470.33864
  20420777.7514  -20743619.45547 -12333238.30463
 91  5  6 21 54 14.9970000  0  5G15G19G13G 2G 6
  23255091.407    -1706205.260 5   -866404.49821
  22184060.689     7259722.892 6   5656908.86321
  22811187.6034   -2951883.21445  -1938862.01061
  19996035.1734  -19050047.73448 -14844158.35864
  20415308.7434  -20772356.76047 -12355630.97563
 91  5  6 21 54 29.9970000  0  5G15G19G13G 2G 6
  23250052.321    -1732676.328 5   -887031.22521
  22190105.8844    7291483.90545   5681657.63461
  22798873.618    -3016583.706 5  -1989277.72921
  19994901.0564  -19056008.74948 -14848803.29664
  20409850.4704  -20801045.36947 -12377985.70763
 91  5  6 21 54 44.9970000  0  5G15G19G13G 2G 6
  23245039.517    -1759041.637 5   -907575.57621
  22196161.1814    7323306.92746   5706454.72861
  22786569.7124   -3081239.56945  -2039658.64461
  19993778.1184  -19061911.24748 -14853402.64263
  20404399.8454  -20829681.73147 -12400299.72863
 91  5  6 21 54 59.9970000  0  5G15G19G13G 2G 6
  23240038.532    -1785299.139 5   -928035.92721
  22202229.5714    7355193.72445   5731301.51561
  22774272.9854   -3145848.52045  -2090003.05761
  19992666.6424  -19067753.59848 -14857955.11863
  20398960.7744  -20858263.83647 -12422571.46963
 91  5  6 21 55 14.9970000  0  5G15G19G13G 2G 6
  23235062.743    -1811465.688 5   -948425.39921
  22208304.1344    7387126.78446   5756184.35561
  22761984.462    -3210427.552 5  -2140324.14621
  19991562.6104  -19073553.23148 -14862474.30963
  20393528.0954  -20886808.90647 -12444814.35063
 91  5  6 21 55 29.9970000  0  5G15G19G13G 2G 6
  23230101.360    -1837532.990 5   -968737.53921
  22214393.0094    7419114.22646   5781109.56561
  22749704.3924   -3274967.82045  -2190614.99061
  19990468.9464  -19079301.97748 -14866953.84763
  20388106.1104  -20915308.45847 -12467021.76763
 91  5  6 21 55 44.9970000  0  5G15G19G13G 2G 6
  23225160.728    -1863493.629 5   -988966.54921
  22220491.6184    7451162.90846   5806082.50361
  22737432.478    -3339462.311 5  -2240870.20121
  19989386.0954  -19084993.20448 -14871388.56663
  20382691.6184  -20943755.50847 -12489188.26763
 91  5  6 21 55 59.9970000  0  5G15G19G13G 2G 6
  23220239.8454   -1889345.63545  -1009110.93361
  22226605.2354    7483274.72845   5831104.63761
  22725166.345    -3403909.047 5  -2291088.15621
  19988313.6494  -19090625.22548 -14875777.15263
  20377289.2744  -20972147.98947 -12511312.24663
 91  5  6 21 56 14.9970000  0  5G15G19G13G 2G 6
  23215338.4154   -1915090.57645  -1029171.89261
  22232722.0644    7515447.69346   5856174.41461
  22712912.5484   -3468309.37745  -2341269.99161
  19987252.8994  -19096199.79248 -14880120.96663
  20371896.681   -21000487.450 7 -12533394.91723
 91  5  6 21 56 29.9970000  0  5G15G19G13G 2G 6
  23210460.384    -1940726.419 5  -1049147.82821
  22238859.9544    7547683.29845   5881292.99961
  22700666.2824   -3532661.00145  -2391413.85261
  19986204.8454  -19101715.09648 -14884418.60363
  20366514.0174  -21028771.93847 -12555434.74963
 91  5  6 21 56 44.9970000  0  5G15G19G13G 2G 6
  23205607.1814   -1966245.09745  -1069032.48261
  22245006.017     7579989.500 6   5906466.59021
  22688434.149    -3596955.676 5  -2441513.33321
  19985168.4394  -19107163.54648 -14888664.14763
  20361143.978   -21056993.304 7 -12577425.39723
 91  5  6 21 56 59.9970000  0  5G15G19G13G 2G 6
  23200772.165    -1991653.130 5  -1088830.91721
  22251165.8064    7612359.02246   5931689.53261
  22676205.2354   -3661200.24145  -2491573.77361
  19984140.6424  -19112551.95448 -14892862.90963
  20355783.118   -21085158.539 7 -12599372.30923
 91  5  6 21 57 14.9970000  0  5G15G19G13G 2G 6
  23195955.3844   -2016948.98645  -1108541.92561
  22257335.8374    7644793.24846   5956962.88661
  22663991.149    -3725392.970 5  -2541593.81121
  19983127.5324  -19117879.13848 -14897013.95863
  20350435.235   -21113266.007 7 -12621274.20723
 91  5  6 21 57 29.9970000  0  5G15G19G13G 2G 6
  23191162.048    -2042133.168 5  -1128165.94921
  22263521.8764    7677291.27146   5982285.95061
  22651783.837    -3789534.333 5  -2591573.80821
  19982125.5484  -19123146.05348 -14901118.04963
  20345097.845   -21141316.182 7 -12643131.46023
 91  5  6 21 57 44.9970000  0  5G15G19G13G 2G 6
  23186393.2904   -2067203.57245  -1147701.28561
  22269717.5324    7709854.94446   6007660.17161
  22639587.915    -3853622.064 5  -2641512.03221
  19981135.1034  -19128350.98748 -14905173.84163
  20339771.704   -21169307.064 7 -12664942.51223
 91  5  6 21 57 59.9970000  0  5G15G19G13G 2G 6
  23181644.4074   -2092164.87845  -1167151.62161
  22275927.907     7742479.058 6   6033081.48521
  22627405.524    -3917660.722 5  -2691412.02721
  19980155.8374  -19133498.97648 -14909185.26263
  20334455.399   -21197243.416 7 -12686711.07523
 91  5  6 21 58 14.9970000  0  5G15G19G13G 2G 6
  23176917.548    -2117011.879 5  -1186512.88721
  22282147.728     7775168.568 6   6058553.75521
  22615228.923    -3981644.961 5  -2741269.62821
  19979187.3604  -19138585.17748 -14913148.53463
  20329150.126   -21225120.006 7 -12708433.07223
 91  5  6 21 58 29.9970000  0  5G15G19G13G 2G 6
  23172208.884    -2141750.950 5  -1205790.05621
  22288378.618     7807916.736 5   6084071.73421
  22603057.064    -4045581.199 5  -2791089.77021
  19978230.0324  -19143616.24148 -14917068.84563
  20323855.337   -21252943.345 7 -12730113.57323
 91  5  6 21 58 44.9970000  0  5G15G19G13G 2G 6
  23167521.1654   -2166377.89145  -1224979.85461
  22294622.157     7840727.550 6   6109638.52121
  22590901.8214   -4109464.77345  -2840868.89961
  19977284.8294  -19148588.06748 -14920942.99163
  20318572.306   -21280709.051 7 -12751749.16423
 91  5  6 21 58 59.9970000  0  5G15G19G13G 2G 6
  23162857.899    -2190895.157 5  -1244084.15821
  22300877.743     7873598.176 5   6135251.92221
  22578754.7204   -4173298.12745  -2890608.90661
  19976348.6574  -19153503.45248 -14924773.15763
  20313297.829   -21308419.713 7 -12773341.87023
 91  5  6 21 59 14.9970000  0  5G15G19G13G 2G 6
  23158212.8064   -2215306.16345  -1263105.68861
  22307144.001     7906524.529 5   6160908.73821
  22566617.837    -4237084.789 5  -2940312.54821
  19975423.2514  -19158366.34748 -14928562.42263
  20308035.524   -21336078.948 7 -12794894.50223
 91  5  6 21 59 29.9970000  0  5G15G19G13G 2G 6
  23153584.220    -2239605.169 5  -1282039.93421
  22313421.032     7939512.426 5   6186613.51321
  22554488.954    -4300818.653 5  -2989974.99921
  19974509.7434  -19163171.38248 -14932306.59763
  20302782.165   -21363680.955 7 -12816402.54123
 91  5  6 21 59 44.9970000  0  5G15G19G13G 2G 6
  23148986.8214   -2263792.52145  -1300887.17661
  22319709.282     7972560.878 5   6212365.46921
  22542371.837    -4364500.160 5  -3039596.70121
  19973606.0874  -19167919.26848 -14936006.24363
  20297540.524   -21391226.208 7 -12837866.35723
 91  5  6 21 59 59.9970000  0  5G15G19G13G 2G 6
  23144405.3844   -2287869.53145  -1319648.42861
  22326012.7354    8005668.33245   6238163.39961
  22530262.9784   -4428130.38845  -3089178.41761
  19972712.5244  -19172611.46848 -14939662.49863
  20292310.251   -21418715.952 7 -12859286.91523
 91  5  6 22  0 14.9970000  0  5G15G19G13G 2G 6
  23139841.9314   -2311837.91645  -1338325.04961
  22332326.3144    8038832.73945   6264005.71361
  22518161.915    -4491711.160 5  -3138721.59021
  19971830.1184  -19177250.11648 -14943277.01864
  20287089.501   -21446152.084 7 -12880665.70223
 91  5  6 22  0 29.9970000  0  5G15G19G13G 2G 6
  23135300.829    -2335700.114 5  -1356918.91021
  22338643.6264    8072051.31445   6289890.22561
  22506071.6574   -4555244.77745  -3188228.05261
  19970955.9784  -19181838.02148 -14946851.99964
  20281878.712   -21473537.054 7 -12902004.61823
 91  5  6 22  0 44.9970000  0  5G15G19G13G 2G 6
  23130784.673    -2359445.415 5  -1375421.69721
  22344980.2434    8105334.46945   6315825.06661
  22493992.415    -4618720.442 5  -3237689.34821
  19970096.9154  -19186364.75048 -14950379.31464
  20276678.423   -21500860.114 7 -12923295.29623
 91  5  6 22  0 59.9970000  0  5G15G19G13G 2G 6
  23126282.3064   -2383082.69145  -1393840.28561
  22351322.1424    8138672.55545   6341802.71561
  22481924.946    -4682147.292 5  -3287112.60321
  19969243.2124  -19190839.89148 -14953866.42964
  20271490.001   -21528130.552 7 -12944544.96223
 91  5  6 22  1 14.9970000  0  5G15G19G13G 2G 6
  23121808.8684   -2406604.44145  -1412168.86561
  22357679.274     8172073.186 5   6367829.08621
  22469864.4234   -4745517.43045  -3336491.64061
  19968403.3924  -19195256.00548 -14957307.54664
  20266311.314   -21555340.540 7 -12965747.53023
 91  5  6 22  1 29.9970000  0  5G15G19G13G 2G 6
  23117351.806    -2430015.607 5  -1430411.28121
  22364044.8604    8205530.90645   6393899.95061
  22457814.032    -4808835.535 5  -3385830.14621
  19967573.392   -19199618.449 8 -14960706.84324
  20261143.095   -21582495.187 7 -12986906.97423
 91  5  6 22  1 44.9970000  0  5G15G19G13G 2G 6
  23112920.868    -2453308.497 5  -1448561.53521
  22370428.3764    8239052.94245   6420020.93061
  22445778.649    -4872093.756 5  -3435122.00121
  19966755.0324  -19203919.80448 -14964058.54064
  20255987.782   -21609586.803 7 -13008017.30223
 91  5  6 22  1 59.9970000  0  5G15G19G13G 2G 6
  23108510.8534   -2476486.78645  -1466622.48461
  22376815.4784    8272635.56545   6446189.12261
  22433750.6894   -4935295.75145  -3484370.05961
  19965947.189   -19208164.024 8 -14967365.71023
  20250844.618   -21636619.048 7 -13029081.36523
 91  5  6 22  2 14.9970000  0  5G15G19G13G 2G 6
  23104120.5794   -2499546.94645  -1484591.37361
  22383218.9464    8306281.88645   6472406.94561
  22421734.524    -4998437.813 5  -3533571.39321
  19965151.7044  -19212347.70048 -14970625.70964
  20245711.954   -21663588.343 7 -13050096.37623
 91  5  6 22  2 29.9970000  0  5G15G19G13G 2G 6
  23099755.7904   -2522483.62445  -1502464.04161
  22389635.3144    8339996.88245   6498678.28161
  22409731.087    -5061514.509 5  -3582721.78921
  19964366.517   -19216465.882 8 -14973834.66924
  20240593.720   -21690489.413 7 -13071058.22823
 91  5  6 22  2 44.9970000  0  5G15G19G13G 2G 6
  23095415.1424   -2545308.51745  -1520249.61961
  22396060.8214    8373768.41345   6524993.67161
  22397737.8064   -5124537.59545  -3631830.42061
  19963592.8604  -19220530.62948 -14977001.99463
  20235485.095   -21717334.106 7 -13091976.14623
 91  5  6 22  2 59.9970000  0  5G15G19G13G 2G 6
  23091088.978    -2568024.935 5  -1537950.67621
  22402496.704     8407593.068 5   6551350.47321
  22385753.399    -5187509.873 5  -3680899.47121
  19962829.681   -19224545.554 8 -14980130.49323
  20230386.079   -21744125.521 7 -13112852.54723
 91  5  6 22  3 14.9970000  0  5G15G19G13G 2G 6
  23086793.0874   -2590614.74245  -1555553.05861
  22408947.509     8441488.429 5   6577762.35421
  22373783.3454   -5250413.64145  -3729915.14061
  19962079.595   -19228493.065 8 -14983206.46523
  20225301.2984  -21770845.75747 -13133673.48463
 91  5  6 22  3 29.9970000  0  5G15G19G13G 2G 6
  23082516.1034   -2613082.37045  -1573060.23361
  22415409.095     8475449.456 5   6604225.40521
  22361827.3684   -5313253.00545  -3778880.61161
  19961339.8684  -19232377.85548 -14986233.56463
  20220229.407   -21797499.320 7 -13154442.47023
 91  5  6 22  3 44.9970000  0  5G15G19G13G 2G 6
  23078261.314    -2635429.097 5  -1590473.21521
  22421886.337     8509474.675 5   6630738.47721
  22349879.681    -5376029.028 5  -3827796.72121
  19960612.7044  -19236201.34648 -14989212.89963
  20215170.6574  -21824087.45747 -13175160.46963
 91  5  6 22  3 59.9970000  0  5G15G19G13G 2G 6
  23074031.689    -2657659.644 5  -1607795.66321
  22428373.2124    8543559.37745   6657297.90461
  22337944.939    -5438746.213 5  -3876667.01121
  19959894.4464  -19239968.57948 -14992148.39463
  20210122.7674  -21850614.70947 -13195831.02863
 91  5  6 22  4 14.9970000  0  5G15G19G13G 2G 6
  23069824.642    -2679776.924 5  -1625029.84821
  22434869.103     8577700.098 5   6683900.98121
  22326021.3534   -5501407.58345  -3925493.79761
  19959188.9464  -19243682.92748 -14995042.68363
  20205085.517   -21877084.285 7 -13216456.64423
 91  5  6 22  4 29.9970000  0  5G15G19G13G 2G 6
  23065641.118    -2701778.363 5  -1642173.77621
  22441375.485     8611898.950 5   6710549.34821
  22314107.774    -5564010.601 5  -3974275.09921
  19958492.3764  -19247342.14148 -14997894.01163
  20200059.142   -21903493.613 7 -13237035.31523
 91  5  6 22  4 44.9970000  0  5G15G19G13G 2G 6
  23061474.118    -2723663.377 5  -1659226.98021
  22447893.5404    8646156.27645   6737243.27861
  22302206.892    -5626554.299 5  -4023010.19321
  19957806.0094  -19250945.83548 -15000702.07863
  20195045.5244  -21929841.98947 -13257566.49063
 91  5  6 22  4 59.9970000  0  5G15G19G13G 2G 6
  23057333.142    -2745430.604 5  -1676188.40221
  22454424.009     8680473.120 5   6763983.59621
  22290313.267    -5689037.359 5  -4071698.04121
  19957131.0324  -19254493.09448 -15003466.16963
  20190042.907   -21956128.256 7 -13278049.26923
 91  5  6 22  5 14.9970000  0  5G15G19G13G 2G 6
  23053213.376    -2767076.363 5  -1693055.17821
  22460969.4394    8714853.05045   6790773.06261
  22278438.274    -5751455.798 5  -4120335.53521
  19956468.6424  -19257980.29248 -15006183.46263
  20185052.9394  -21982348.48847 -13298480.59263
 91  5  6 22  5 29.9970000  0  5G15G19G13G 2G 6
  23049118.017    -2788603.707 5  -1709829.68421
  22467521.0714    8749292.45845   6817608.87661
  22266571.1104   -5813812.62245  -4168925.00661
  19955815.0954  -19261411.03348 -15008856.76263
  20180076.360   -22008505.825 7 -13318862.90823
 91  5  6 22  5 44.9970000  0  5G15G19G13G 2G 6
  23045043.064    -2810014.880 5  -1726513.66421
  22474085.399     8783788.817 5   6844489.06221
  22254717.001    -5876109.924 5  -4217468.12521
  19955172.2514  -19264787.76148 -15011487.97863
  20175110.0874  -22034602.59347 -13339198.02463
 91  5  6 22  5 59.9970000  0  5G15G19G13G 2G 6
  23040991.9394   -2831309.37046  -1743106.72661
  22480660.0564    8818342.18845   6871413.67061
  22242872.0644   -5938347.11945  -4265964.38661
  19954539.3454  -19268110.44348 -15014077.07963
  20170155.517   -22060638.360 7 -13359485.61123
 91  5  6 22  6 14.9970000  0  5G15G19G13G 2G 6
  23036959.579    -2852487.670 5  -1759609.26521
  22487247.4624    8852951.99345   6898382.26061
  22231040.087    -6000524.499 5  -4314414.06121
  19953917.5564  -19271379.72348 -15016624.57063
  20165213.392   -22086613.324 7 -13379725.81923
 91  5  6 22  6 29.9970000  0  5G15G19G13G 2G 6
  23032953.1264   -2873547.96246  -1776019.83861
  22493843.1424    8887619.72645   6925395.99061
  22219218.5564   -6062639.93845  -4362815.46461
  19953305.7044  -19274593.94448 -15019129.15963
  20160282.368   -22112525.815 7 -13399917.34323
 91  5  6 22  6 44.9970000  0  5G15G19G13G 2G 6
  23028963.7514   -2894491.61846  -1792339.51961
  22500449.454     8922343.676 5   6952453.52721
  22207411.962    -6124694.718 6  -4411169.58121
  19952703.8064  -19277754.72648 -15021592.10563
  20155363.282   -22138377.084 7 -13420061.16523
 91  5  6 22  6 59.9970000  0  5G15G19G13G 2G 6
  23025004.6654   -2915312.08146  -1808563.22561
  22507070.2744    8957129.78845   6979559.49661
  22195615.814    -6186682.466 5  -4459471.48721
  19952114.5714  -19280855.99748 -15024008.68063
  20150456.7744  -22164160.77647 -13440152.32863
 91  5  6 22  7 14.9970000  0  5G15G19G13G 2G 6
  23021063.712    -2936015.977 6  -1824696.07621
  22513700.5014    8991971.15045   7006708.51761
  22183832.0874   -6248609.52745  -4507726.07861
  19951534.7594  -19283904.64648 -15026384.25363
  20145561.071   -22189883.450 7 -13460195.94423
 91  5  6 22  7 29.9970000  0  5G15G19G13G 2G 6
  23017147.5014   -2956599.45946  -1840735.11061
  22520341.4234    9026871.22645   7033903.28661
  22172058.8064   -6310472.18545  -4555930.51161
  19950964.5404  -19286897.28448 -15028716.17763
  20140678.704   -22215541.465 7 -13480189.17923
 91  5  6 22  7 44.9970000  0  5G15G19G13G 2G 6
  23013252.7514   -2977061.41646  -1856679.46361
  22526997.6574    9061830.71545   7061144.36261
  22160299.103    -6372269.244 6  -4604083.83321
  19950405.6424  -19289833.14848 -15031003.86363
  20135809.345   -22241133.719 7 -13500131.16923
 91  5  6 22  7 59.9970000  0  5G15G19G13G 2G 6
  23009383.454    -2997405.147 6  -1872531.67721
  22533657.1184    9096846.28145   7088429.12261
  22148550.329    -6434003.612 5  -4652188.30721
  19949857.8454  -19292715.69048 -15033249.99763
  20130949.485   -22266663.401 7 -13520024.40123
 91  5  6 22  8 14.9970000  0  5G15G19G13G 2G 6
  23005533.001    -3017624.778 6  -1888287.19621
  22540332.8764    9131923.42745   7115761.86761
  22136818.0644   -6495669.23545  -4700239.21361
  19949319.9544  -19295539.34748 -15035450.25064
  20126105.649   -22292124.569 7 -13539864.25223
 91  5  6 22  8 29.9970000  0  5G15G19G13G 2G 6
  23001712.157    -3037719.948 6  -1903945.71221
  22547020.0244    9167062.00645   7143142.49261
  22125093.665    -6557265.787 5  -4748236.28621
  19948794.6734  -19298304.05048 -15037604.56063
  20121272.720   -22317516.912 7 -13559650.47123
 91  5  6 22  8 44.9970000  0  5G15G19G13G 2G 6
  22997910.235    -3057694.591 6  -1919510.32921
  22553719.8294    9202257.81945   7170567.71261
  22113385.3994   -6618796.75645  -4796182.26861
  19948277.8374  -19301013.71448 -15039715.98564
  20116453.860   -22342844.260 7 -13579386.04823
 91  5  6 22  8 59.9970000  0  5G15G19G13G 2G 6
  22994130.4234   -3077543.55346  -1934977.01761
  22560429.4234    9237515.62345   7198041.23961
  22101688.5174   -6680257.11745  -4844073.23261
  19947775.1344  -19303663.82548 -15041781.00263
  20111646.657   -22368101.600 7 -13599067.07523
 91  5  6 22  9 14.9970000  0  5G15G19G13G 2G 6
  22990374.415    -3097292.454 6  -1950365.71621
  22567145.1184    9272809.72745   7225543.04561
  22090003.5564   -6741672.22845  -4891928.92961
  19947275.5954  -19306280.10248 -15043819.65763
  20106849.024   -22393314.473 7 -13618713.44823
 91  5  6 22  9 29.9970000  0  5G15G19G13G 2G 6
  22986641.2904   -3116916.35446  -1965657.04061
  22573870.2354    9308164.51045   7253092.13261
  22078329.892    -6803017.345 6  -4939730.09221
  19946789.2434  -19308838.14848 -15045812.93663
  20102064.423   -22418458.144 7 -13638305.90123
 91  5  6 22  9 44.9970000  0  5G15G19G13G 2G 6
  22982927.587    -3136416.276 6  -1980851.73521
  22580612.728     9343578.582 5   7280687.43221
  22066669.204    -6864293.400 6  -4987477.44821
  19946313.5644  -19311339.42448 -15047761.97763
  20097293.259   -22443533.473 7 -13657845.09923
 91  5  6 22  9 59.9970000  0  5G15G19G13G 2G 6
  22979241.876    -3155797.535 6  -1995953.96121
  22587358.7514    9379046.43545   7308324.62461
  22055019.6654   -6925505.07246  -5035174.63861
  19945846.8844  -19313789.18348 -15049670.87663
  20092533.759   -22468545.568 7 -13677335.02623
 91  5  6 22 10 14.9970000  0  5G15G19G13G 2G 6
  22975576.439    -3175058.782 6  -2010962.68121
  22594122.5484    9414569.03545   7336004.47861
  22043385.0174   -6986651.02246  -5082820.62761
  19945389.6494  -19316186.26448 -15051538.72763
  20087785.126   -22493493.362 7 -13696774.84423
 91  5  6 22 10 29.9970000  0  5G15G19G13G 2G 6
  22971933.399    -3194197.671 6  -2025876.05521
  22600890.1104    9450148.48745   7363728.63761
  22031758.5014   -7047728.87846  -5130413.53461
  19944945.9544  -19318528.67948 -15053363.97763
  20083052.048   -22518374.181 7 -13716162.47623
 91  5  6 22 10 44.9970000  0  5G15G19G13G 2G 6
  22968313.1494   -3213219.08246  -2040697.89661
  22607672.2904    9485779.61545   7391493.06861
  22020151.0244   -7108743.49446  -5177957.18761
  19944509.2904  -19320821.82548 -15055150.83664
  20078328.548   -22543193.165 7 -13735501.92923
 91  5  6 22 10 59.9970000  0  5G15G19G13G 2G 6
  22964717.212    -3232119.457 6  -2055425.40721
  22614462.5954    9521465.86445   7419300.45061
  22008551.8454   -7169690.94446  -5225448.51961
  19944082.3144  -19323062.13748 -15056896.52763
  20073618.376   -22567946.485 7 -13754790.21423
 91  5  6 22 11 14.9970000  0  5G15G19G13G 2G 6
  22961142.8684   -3250906.82546  -2070064.86361
  22621264.649     9557198.495 5   7447143.97421
  21996966.673    -7230579.264 6  -5272893.76021
  19943665.2204  -19325258.09248 -15058607.65063
  20068918.228   -22592642.472 7 -13774033.81823
 91  5  6 22 11 29.9970000  0  5G15G19G13G 2G 6
  22957594.1654   -3269566.43746  -2084604.77661
  22628072.0954    9592992.06945   7475034.98061
  21985394.759    -7291393.559 6  -5320281.33121
  19943258.3764  -19327395.16548 -15060272.89163
  20064232.767   -22617266.025 7 -13793220.98523
 91  5  6 22 11 44.9970000  0  5G15G19G13G 2G 6
  22954060.571    -3288112.622 6  -2099056.29521
  22634895.220     9628831.962 5   7502962.08821
  21973830.978    -7352148.035 6  -5367622.28021
  19942860.767   -19329488.108 8 -15061903.74323
  20059557.868   -22641831.706 7 -13812363.05323
 91  5  6 22 11 59.9970000  0  5G15G19G13G 2G 6
  22950555.517    -3306539.179 6  -2113414.60321
  22641722.407     9664724.049 5   7530929.85321
  21962283.1654   -7412836.35246  -5414911.70461
  19942471.118   -19331530.865 8 -15063495.49223
  20054895.454   -22666333.155 7 -13831455.07223
 91  5  6 22 12 14.9970000  0  5G15G19G13G 2G 6
  22947073.759    -3324843.660 6  -2127677.77521
  22648562.696     9700670.515 5   7558940.00921
  21950747.5874   -7473455.66546  -5462147.34561
  19942092.7744  -19333521.02848 -15065046.25663
  20050245.868   -22690767.796 7 -13850495.03023
 91  5  6 22 12 29.9970000  0  5G15G19G13G 2G 6
  22943615.2594   -3343022.34846  -2141842.93661
  22655415.7594    9736674.50945   7586994.96161
  21939227.157    -7534002.315 6  -5509326.35221
  19941724.876   -19335455.437 8 -15066553.57624
  20045609.376   -22715132.187 7 -13869480.25023
 91  5  6 22 12 44.9970000  0  5G15G19G13G 2G 6
  22940177.587    -3361075.074 6  -2155909.94521
  22662279.759     9772736.070 5   7615094.80621
  21927718.4074   -7594475.89646  -5556448.44461
  19941366.7434  -19337333.97948 -15068017.36464
  20040986.243   -22739425.802 7 -13888410.31823
 91  5  6 22 12 59.9970000  0  5G15G19G13G 2G 6
  22936768.5794   -3379004.56246  -2169880.92761
  22669149.0954    9808852.25645   7643237.18861
  21916224.095    -7654879.056 6  -5603515.64421
  19941018.595   -19339159.684 8 -15069439.97624
  20036375.978   -22763651.508 7 -13907287.46923
 91  5  6 22 13 14.9970000  0  5G15G19G13G 2G 6
  22933377.9074   -3396806.61946  -2183752.60961
  22676036.7984    9845026.88445   7671425.11761
  21904743.2824   -7715207.37346  -5650524.53761
  19940682.649   -19340928.585 8 -15070818.32524
  20031779.853   -22787804.905 7 -13926108.27523
 91  5  6 22 13 29.9970000  0  5G15G19G13G 2G 6
  22930015.235    -3414487.552 6  -2197529.90521
  22682927.5244    9881253.26745   7699653.37661
  21893274.2744   -7775467.07746  -5697479.97661
  19940355.329   -19342647.364 8 -15072157.62024
  20027196.142   -22811892.524 7 -13944877.82423
 91  5  6 22 13 44.9970000  0  5G15G19G13G 2G 6
  22926671.2514   -3432050.52346  -2211215.30461
  22689832.7284    9917527.77645   7727919.12961
  21881820.7984   -7835661.11146  -5744384.23161
  19940037.314   -19344319.434 8 -15073460.51924
  20022625.571   -22835917.240 7 -13963598.35623
 91  5  6 22 13 59.9970000  0  5G15G19G13G 2G 6
  22923350.9394   -3449489.59246  -2224804.13461
  22696742.360     9953856.106 5   7756226.82221
  21870380.1104   -7895783.42746  -5791232.61061
  19939729.392   -19345939.151 8 -15074722.62323
  20018065.087   -22859873.457 7 -13982265.51523
 91  5  6 22 14 14.9970000  0  5G15G19G13G 2G 6
  22920058.814    -3466807.852 6  -2238298.83421
  22703668.931     9990234.748 5   7784573.71621
  21858951.5644   -7955837.15546  -5838027.53761
  19939430.3604  -19347510.01648 -15075946.66164
  20013520.376   -22883764.037 7 -14000881.52423
 91  5  6 22 14 29.9970000  0  5G15G19G13G 2G 6
  22916785.040    -3484004.570 6  -2251698.83821
  22710598.970    10026664.555 5   7812960.47321
  21847538.5404   -8015821.05546  -5884768.06061
  19939141.0794  -19349031.22348 -15077132.00764
  20008985.985   -22907588.085 7 -14019445.69423
 91  5  6 22 14 44.9970000  0  5G15G19G13G 2G 6
  22913531.9154   -3501080.43546  -2265004.66361
  22717539.3214   10063144.45345   7841386.27061
  21836136.5014   -8075735.96046  -5931454.82361
  19938860.2824  -19350503.92148 -15078279.55664
  20004465.860   -22931346.253 7 -14037958.52923
 91  5  6 22 14 59.9970000  0  5G15G19G13G 2G 6
  22910309.282    -3518027.222 5  -2278209.90921
  22724492.6814   10099682.10345   7869857.06761
  21824749.3454   -8135573.52346  -5978081.31261
  19938591.0094  -19351920.15848 -15079383.10664
  19999957.782   -22955030.448 7 -14056413.71923
 91  5  6 22 15 14.9970000  0  5G15G19G13G 2G 6
  22907109.751    -3534847.870 5  -2291316.86821
  22731458.6344   10136274.51345   7898370.53661
  21813377.649    -8195336.376 6  -6024649.60821
  19938331.3214  -19353283.01748 -15080445.06664
  19995464.915   -22978643.502 7 -14074813.47623
 91  5  6 22 15 29.9970000  0  5G15G19G13G 2G 6
  22903932.7824   -3551546.23046  -2304328.54761
  22738428.298    10172917.210 5   7926923.17821
  21802018.579    -8255028.593 6  -6071162.86121
  19938082.4934  -19354596.76148 -15081468.75364
  19990983.681   -23002189.306 7 -14093160.83123
 91  5  6 22 15 44.9970000  0  5G15G19G13G 2G 6
  22900777.532    -3568128.257 5  -2317249.55921
  22745412.751    10209603.918 5   7955510.12621
  21790670.321    -8314655.787 6  -6117625.42621
  19937839.6104  -19355867.48048 -15082458.91664
  19986515.603   -23025673.735 7 -14111460.35823
 91  5  6 22 15 59.9970000  0  5G15G19G13G 2G 6
  22897644.2744   -3584580.77946  -2330069.65661
  22752401.423    10246347.586 5   7984141.44721
  21779338.4154   -8374204.35546  -6164026.73761
  19937609.2744  -19357082.27548 -15083405.50364
  19982062.040   -23049083.574 7 -14129701.76523
 91  5  6 22 16 14.9970000  0  5G15G19G13G 2G 6
  22894539.4784   -3600903.36446  -2342788.52561
  22759408.0794   10283148.24545   8012817.19361
  21768020.556    -8433673.801 6  -6210366.40221
  19937389.4154  -19358240.99248 -15084308.39364
  19977619.376   -23072418.161 7 -14147884.53323
 91  5  6 22 16 29.9970000  0  5G15G19G13G 2G 6
  22891458.7284   -3617097.23745  -2355407.09861
  22766423.478    10320004.752 5   8041536.45321
  21756719.524    -8493065.074 6  -6256645.13821
  19937178.1894  -19359345.01048 -15085168.66064
  19973193.712   -23095678.970 7 -14166009.81123
 91  5  6 22 16 44.9970000  0  5G15G19G13G 2G 6
  22888398.2744   -3633159.67645  -2367923.25861
  22773445.6654   10356919.35945   8070300.97061
  21745432.501    -8552375.525 6  -6302860.90821
  19936978.0174  -19360391.81848 -15085984.34864
  19968781.415   -23118862.914 7 -14184075.19923
 91  5  6 22 16 59.9970000  0  5G15G19G13G 2G 6
  22885368.8844   -3649092.07445  -2380338.07461
  22780480.735    10393890.421 5   8099109.48721
  21734162.243    -8611606.404 6  -6349014.66921
  19936790.2514  -19361383.02948 -15086756.71364
  19964384.610   -23141971.437 7 -14202081.81523
 91  5  6 22 17 14.9970000  0  5G15G19G13G 2G 6
  22882365.024    -3664897.856 5  -2392654.25921
  22787528.415    10430914.139 5   8127959.02521
  21722906.337    -8670760.971 6  -6395108.97421
  19936610.7824  -19362322.46648 -15087488.73864
  19960000.821   -23165007.893 7 -14220032.27223
 91  5  6 22 17 29.9970000  0  5G15G19G13G 2G 6
  22879375.7124   -3680576.98645  -2404871.72961
  22794580.204    10467990.315 5   8156849.45421
  21711663.876    -8729838.575 6  -6441143.29521
  19936444.2354  -19363210.15448 -15088180.43764
  19955630.8764  -23187972.08447 -14237926.42263
 91  5  6 22 17 44.9970000  0  5G15G19G13G 2G 6
  22876418.071    -3696119.560 5  -2416982.79821
  22801655.806    10505128.603 5   8185788.26921
  21700437.923    -8788829.413 6  -6487110.01121
  19936286.3454  -19364036.47148 -15088824.31364
  19951276.618   -23210854.235 7 -14255756.64223
 91  5  6 22 17 59.9970000  0  5G15G19G13G 2G 6
  22873487.720    -3711537.429 5  -2428996.69121
  22808726.892    10542316.530 5   8214765.75221
  21689225.610    -8847745.546 6  -6533018.52521
  19936137.3374  -19364813.70748 -15089429.94464
  19946935.564   -23233666.243 7 -14273532.20823
 91  5  6 22 18 14.9970000  0  5G15G19G13G 2G 6
  22870576.9464   -3726824.60545  -2440908.75761
  22815811.3294   10579560.01745   8243786.55861
  21678030.8994   -8906580.39746  -6578863.69361
  19936000.9854  -19365535.69648 -15089992.53264
  19942608.954   -23256401.781 7 -14291248.19123
 91  5  6 22 18 29.9970000  0  5G15G19G13G 2G 6
  22867692.1654   -3741979.06145  -2452717.42361
  22822912.4934   10616860.73245   8272851.92961
  21666848.837    -8965331.759 6  -6624643.80021
  19935873.7824  -19366200.80148 -15090510.79064
  19938297.470   -23279058.781 7 -14308902.97923
 91  5  6 22 18 44.9970000  0  5G15G19G13G 2G 6
  22864830.8064   -3757007.39045  -2464427.79261
  22830019.243    10654211.853 4   8301956.59521
  21655684.3144   -9024006.19946  -6670363.96961
  19935755.4624  -19366815.96448 -15090990.13764
  19934000.228   -23301643.881 7 -14326501.73823
 91  5  6 22 18 59.9970000  0  5G15G19G13G 2G 6
  22861998.556    -3771909.969 5  -2476040.17521
  22837133.9704   10691612.61245   8331099.92161
  21644534.0874   -9082603.94946  -6716024.36461
  19935646.8374  -19367381.88348 -15091431.10664
  19929716.360   -23324157.378 7 -14344044.70623
 91  5  6 22 19 14.9970000  0  5G15G19G13G 2G 6
  22859186.454    -3786680.409 5  -2487549.59021
  22844265.493    10729069.078 5   8360286.66721
  21633397.767    -9141118.608 6  -6761620.03821
  19935551.7744  -19367892.42248 -15091828.92664
  19925445.181   -23346593.049 7 -14361527.03023
 91  5  6 22 19 29.9970000  0  5G15G19G13G 2G 6
  22856402.282    -3801322.650 5  -2498959.11721
  22851399.415    10766577.212 4   8389513.67821
  21622277.2204   -9199553.73546  -6807153.71361
  19935462.7284  -19368351.51348 -15092186.65764
  19921189.806   -23368954.376 7 -14378951.42623
 91  5  6 22 19 44.9970000  0  5G15G19G13G 2G 6
  22853638.5404   -3815831.65845  -2510264.82161
  22858549.845    10804141.509 4   8418784.43221
  21611173.4544   -9257904.30846  -6852621.51761
  19935386.6894  -19368754.51448 -15092500.68264
  19916950.228   -23391236.629 7 -14396314.20423
 91  5  6 22 19 59.9970000  0  5G15G19G13G 2G 6
  22850902.4704   -3830212.01545  -2521470.28461
  22865707.814    10841757.330 4   8448095.35521
  21600084.868    -9316174.435 6  -6898026.63921
  19935319.6344  -19369105.92548 -15092774.50764
  19912725.790   -23413443.883 7 -14413618.54423
 91  5  6 22 20 14.9970000  0  5G15G19G13G 2G 6
  22848193.212    -3844458.649 5  -2532571.54621
  22872876.024    10879429.271 4   8477449.99021
  21589013.6034   -9374359.01946  -6943365.09961
  19935266.2824  -19369401.12148 -15093004.52764
  19908514.235   -23435571.256 7 -14430860.63823
 91  5  6 22 20 29.9970000  0  5G15G19G13G 2G 6
  22845506.1894   -3858566.78845  -2543564.89061
  22880056.095    10917161.883 4   8506851.91121
  21577957.376    -9432453.251 6  -6988633.15021
  19935220.1104  -19369635.64348 -15093187.26864
  19904319.712   -23457613.998 7 -14448036.78923
 91  5  6 22 20 44.9970000  0  5G15G19G13G 2G 6
  22842843.9154   -3872548.24045  -2554459.51861
  22887245.274    10954943.104 4   8536291.71821
  21566916.5954   -9490468.74346  -7033839.85161
  19935185.3064  -19369821.56448 -15093332.13964
  19900138.228   -23479583.722 7 -14465156.03923
 91  5  6 22 20 59.9970000  0  5G15G19G13G 2G 6
  22840210.681    -3886402.733 5  -2565255.19621
  22894447.798    10992772.921 4   8565769.36721
  21555891.392    -9548404.844 6  -7078984.69921
  19935160.2354  -19369958.63348
  19895970.821   -23501480.128 7 -14482218.16123
 91  5  6 22 21 14.9970000  0  5G15G19G13G 2G 6
  22837599.3374   -3900123.13145  -2575946.40761
  22901653.571    11030658.019 4   8595290.11921
  21544886.0954   -9606254.35146  -7124062.05761
  19935143.7514  -19370040.02848
  19891819.399   -23523295.968 7 -14499217.49823
 91  5  6 22 21 29.9970000  0  5G15G19G13G 2G 6
  22835014.353    -3913711.465 5  -2586534.70221
  22908872.923    11068595.947 4   8624852.03121
  21533893.079    -9664019.396 6  -7169073.60421
  19935133.7904  -19370068.16948
  19887682.985   -23545033.371 7 -14516155.72123
 91  5  6 22 21 44.9970000  0  5G15G19G13G 2G 6
  22832451.595    -3927168.789 5  -2597020.91521
  22916106.7204   11106585.59444   8654454.23361
  21522916.462    -9721700.704 6  -7214019.91421
  19935140.8764  -19370044.16348
  19883562.165   -23566693.138 7 -14533033.44423
 91  5  6 22 21 59.9970000  0  5G15G19G13G 2G 6
  22829915.509    -3940500.499 5  -2607409.23221
  22923339.1574   11144621.53945   8684092.50661
  21511955.204    -9779303.262 6  -7258904.85321
  19935157.3604  -19369973.38648
  19879454.626   -23588280.342 7 -14549854.63223
 91  5  6 22 22 14.9970000  0  5G15G19G13G 2G 6
  22827404.118    -3953703.058 5  -2617696.91721
  22930590.2904   11182706.72945   8713769.15961
  21501006.962    -9836823.416 6  -7303725.58721
  19935178.6574  -19369852.67548
  19875360.399   -23609791.748 7 -14566616.75323
 91  5  6 22 22 29.9970000  0  5G15G19G13G 2G 6
  22824914.212    -3966774.285 5  -2627882.28521
  22937843.3144   11220843.01645   8743485.63161
  21490076.790    -9894258.989 6  -7348480.40421
  19935210.634   -19369680.087 8
  19871283.267   -23631224.950 7 -14583317.93623
 91  5  6 22 22 44.9970000  0  5G15G19G13G 2G 6
  22822453.524    -3979710.325 5  -2637962.28721
  22945115.8454   11259034.04045   8773244.72961
  21479166.735    -9951605.735 6  -7393166.01921
  19935255.3604  -19369451.86348
  19867219.095   -23652576.076 7 -14599955.16023
 91  5  6 22 22 59.9970000  0  5G15G19G13G 2G 6
  22820017.712    -3992508.966 5  -2647935.24521
  22952393.751    11297281.937 5   8803048.17321
  21468270.4074  -10008861.18346  -7437780.49461
  19935309.2824  -19369165.98248 -15092821.27164
  19863172.673   -23673842.457 7 -14616526.35623
 91  5  6 22 23 14.9970000  0  5G15G19G13G 2G 6
  22817608.345    -4005171.968 5  -2657802.50421
  22959682.189    11335584.692 5   8832894.33421
  21457391.212   -10066027.058 6  -7482325.17521
  19935375.7984  -19368824.35448 -15092555.06364
  19859141.189   -23695025.986 7 -14633032.99123
 91  5  6 22 23 29.9970000  0  5G15G19G13G 2G 6
  22815223.0874   -4017698.10845  -2667563.10661
  22966979.142    11373943.047 5   8862783.85021
  21446529.845   -10123101.964 6  -7526798.96521
  19935451.3534  -19368426.03848 -15092244.68464
  19855126.970   -23716125.526 7 -14649474.17623
 91  5  6 22 23 44.9970000  0  5G15G19G13G 2G 6
  22812863.892    -4030091.178 5  -2677220.02821
  22974290.110    11412352.837 5   8892713.43221
  21435685.3844  -10180089.59446  -7571204.76061
  19935534.5404  -19367975.05648 -15091893.26464
  19851126.571   -23737144.611 7 -14665852.66923
 91  5  6 22 23 59.9970000  0  5G15G19G13G 2G 6
  22810535.540    -4042349.258 5  -2686771.76421
  22981606.6574   11450815.92645   8922684.52961
  21424858.5794  -10236987.62046  -7615540.71761
  19935633.3144  -19367469.65048 -15091499.43864
  19847142.829   -23758081.252 7 -14682166.92123
 91  5  6 22 24 14.9970000  0  5G15G19G13G 2G 6
  22808224.087    -4054475.154 5  -2696220.49921
  22988943.673    11489329.077 5   8952694.64421
  21414046.9074  -10293798.92146  -7659809.11361
  19935739.5714  -19366912.97748 -15091065.66364
  19843172.204   -23778938.183 7 -14698419.05723
 91  5  6 22 24 29.9970000  0  5G15G19G13G 2G 6
  22805944.267    -4066461.218 5  -2705560.26621
  22996278.634    11527899.482 5   8982749.38221
  21403255.1574  -10350515.77446  -7704003.91361
  19935856.4074  -19366297.63648 -15090586.17364
  19839220.282   -23799707.826 7 -14714603.18323
 91  5  6 22 24 44.9970000  0  5G15G19G13G 2G 6
  22803691.4934   -4078311.33745  -2714794.10461
  23003630.939    11566523.240 4   9012845.67221
  21392479.7824  -10407141.54746  -7748127.74061
  19935981.7824  -19365627.43448 -15090063.93664
  19835283.603   -23820393.741 7 -14730722.06123
 91  5  6 22 24 59.9970000  0  5G15G19G13G 2G 6
  22801461.712    -4090031.081 5  -2723926.36321
  23010988.978    11605194.558 4   9042979.04421
  21381719.399   -10463681.680 6  -7792184.84421
  19936118.7514  -19364908.12348 -15089503.43264
  19831363.626   -23841001.505 7 -14746780.04323
 91  5  6 22 25 14.9970000  0  5G15G19G13G 2G 6
  22799253.3604   -4101618.02045  -2732955.12761
  23018357.321    11643915.738 4   9073151.26021
  21370976.4854  -10520133.54846  -7836173.15961
  19936265.1734  -19364137.49048 -15088902.93864
  19827457.3144  -23861528.50447 -14762775.09763
 91  5  6 22 25 29.9970000  0  5G15G19G13G 2G 6
  22797076.689    -4113066.524 5  -2741876.02521
  23025734.790    11682692.072 4   9103366.45321
  21360250.524   -10576491.356 6  -7880088.18021
  19936423.1104  -19363310.05048 -15088258.18164
  19823568.485   -23881969.002 7 -14778702.74623
 91  5  6 22 25 44.9970000  0  5G15G19G13G 2G 6
  22794923.517    -4124382.047 5  -2750693.29421
  23033121.3454   11721517.50244   9133619.90261
  21349544.767   -10632760.499 6  -7923934.11821
  19936590.7674  -19362431.72148 -15087573.76864
  19819692.712   -23902328.567 7 -14794567.32823
 91  5  6 22 25 59.9970000  0  5G15G19G13G 2G 6
  22792795.306    -4135567.241 5  -2759409.02221
  23040517.548    11760389.418 4   9163909.56921
  21338852.8294  -10688943.41746  -7967712.86961
  19936767.8374  -19361505.13148 -15086851.74964
  19815832.954   -23922609.440 7 -14810370.59223
 91  5  6 22 26 14.9970000  0  5G15G19G13G 2G 6
  22790692.0644   -4146619.52845  -2768021.18861
  23047928.0714   11799310.02844   9194237.18661
  21328179.5564  -10745037.11946  -8011422.09261
  19936953.3534  -19360527.88548 -15086090.25664
  19811988.939   -23942809.018 7 -14826110.50723
 91  5  6 22 26 29.9970000  0  5G15G19G13G 2G 6
  22788615.142    -4157539.704 5  -2776530.39821
  23055340.4314   11838278.11244   9224601.78561
  21317522.0324  -10801042.45746  -8055062.46261
  19937147.5874  -19359500.99048 -15085290.07964
  19808162.267   -23962927.978 7 -14841787.60423
 91  5  6 22 26 44.9970000  0  5G15G19G13G 2G 6
  22786563.4154   -4168327.18546  -2784936.20761
  23062768.2044   11877294.05944   9255003.69161
  21306880.5644  -10856958.59246  -8098633.31761
  19937354.5564  -19358423.89448 -15084450.78364
  19804347.970   -23982965.681 7 -14857401.38423
 91  5  6 22 26 59.9970000  0  5G15G19G13G 2G 6
  22784534.5644   -4178985.24445  -2793241.18461
  23070198.1574   11916354.38544   9285440.18961
  21296256.6344  -10912788.66446  -8142137.12261
  19937567.0794  -19357300.17648 -15083575.15664
  19800550.595   -24002925.485 7 -14872954.46823
 91  5  6 22 27 14.9970000  0  5G15G19G13G 2G 6
  22782531.915    -4189503.767 5  -2801437.42021
  23077643.493    11955468.939 4   9315918.92121
  21285651.9394  -10968522.32346  -8185565.79761
  19937791.7984  -19356119.86248 -15082655.43364
  19796767.931   -24022797.019 7 -14888438.76023
 91  5  6 22 27 29.9970000  0  5G15G19G13G 2G 6
  22780552.696    -4199893.134 5  -2809533.01321
  23085096.329    11994626.727 4   9346431.34421
  21275062.0244  -11024169.81846  -8228927.32661
  19938024.7984  -19354893.84848 -15081700.09364
  19793001.345   -24042590.556 7 -14903862.28123
 91  5  6 22 27 44.9970000  0  5G15G19G13G 2G 6
  22778604.3214   -4210144.58045  -2817521.12961
  23092559.0794   12033836.77344   9376984.50761
  21264490.5174  -11079722.01546  -8272214.60861
  19938268.9854  -19353613.07448 -15080702.08864
  19789252.149   -24062297.036 7 -14919217.96523
 91  5  6 22 27 59.9970000  0  5G15G19G13G 2G 6
  22776677.087    -4220261.150 5  -2825404.15821
  23100026.7354   12073095.77145   9407575.78661
  21253936.439   -11135181.649 6  -8315429.74521
  19938521.7904  -19352280.90148 -15079664.03064
  19785518.478   -24081919.451 7 -14934508.14023
 91  5  6 22 28 14.9970000  0  5G15G19G13G 2G 6
  22774779.923    -4230242.249 5  -2833181.61121
  23107508.220    12112404.023 5   9438205.49421
  21243400.673   -11190548.227 6  -8358572.38821
  19938786.2284  -19350896.74148 -15078585.46464
  19781798.978   -24101457.165 7 -14949732.31923
 91  5  6 22 28 29.9970000  0  5G15G19G13G 2G 6
  22772907.1574   -4240088.28545  -2840853.81461
  23114996.681    12151760.585 5   9468872.80621
  21232881.1264  -11245821.91046  -8401642.63661
  19939058.5714  -19349461.50548 -15077467.09864
  19778098.048   -24120910.607 7 -14964890.82723
 91  5  6 22 28 44.9970000  0  5G15G19G13G 2G 6
  22771058.868    -4249799.590 5  -2848421.04021
  23122498.095    12191165.116 4   9499577.49921
  21222382.0794  -11301002.69946  -8444640.49561
  19939342.4394  -19347975.38748 -15076309.08264
  19774412.173   -24140279.801 7 -14979983.69023
 91  5  6 22 28 59.9970000  0  5G15G19G13G 2G 6
  22769235.009    -4259371.555 5  -2855879.69121
  23130004.8994   12230621.83544   9530322.85961
  21211899.462   -11356085.767 6  -8487562.22721
  19939634.7824  -19346434.12348 -15075108.09564
  19770743.626   -24159559.939 7 -14995007.15623
 91  5  6 22 29 14.9970000  0  5G15G19G13G 2G 6
  22767438.634    -4268808.049 5  -2863232.78021
  23137521.970    12270126.532 4   9561105.61721
  21201433.868   -11411075.093 6  -8530410.90621
  19939937.7514  -19344841.79848 -15073867.31964
  19767089.712   -24178755.077 7 -15009964.38723
 91  5  6 22 29 29.9970000  0  5G15G19G13G 2G 6
  22765669.2204   -4278115.82045  -2870485.55161
  23145045.517    12309672.107 4   9591920.20221
  21190987.4464  -11465977.15646  -8573191.57861
  19940248.4784  -19343205.25448 -15072592.09164
  19763453.337   -24197871.813 7 -15024860.52823
 91  5  6 22 29 44.9970000  0  5G15G19G13G 2G 6
  22763924.2514   -4287284.11945  -2877629.66061
  23152585.454    12349269.391 4   9622775.09321
  21180558.501   -11520780.875 6  -8615895.64321
  19940571.2044  -19341513.78248 -15071274.05664
  19759830.509   -24216898.930 7 -15039686.83523
 91  5  6 22 29 59.9970000  0  5G15G19G13G 2G 6
  22762208.298    -4296312.551 5  -2884664.77621
  23160124.2044   12388918.40044   9653670.27761
  21170148.978   -11575485.508 6  -8658522.48221
  19940903.3144  -19339767.19448 -15069913.07464
  19756229.360   -24235835.998 7 -15054442.97223
 91  5  6 22 30 14.9970000  0  5G15G19G13G 2G 6
  22760515.814    -4305201.810 5  -2891591.45121
  23167680.071    12428618.198 4   9684605.05021
  21159756.532   -11630091.542 6  -8701072.51021
  19941247.7434  -19337966.44448 -15068509.88664
  19752641.946   -24254683.627 7 -15069129.41923
 91  5  6 22 30 29.9970000  0  5G15G19G13G 2G 6
  22758849.3604   -4313956.86945  -2898413.54161
  23175246.751    12468363.522 4   9715575.29521
  21149382.860   -11684603.789 6  -8743549.44221
  19941598.0874  -19336116.69848 -15067068.52264
  19749071.564   -24273446.933 7 -15083750.15823
 91  5  6 22 30 44.9970000  0  5G15G19G13G 2G 6
  22757208.6894   -4322570.85245  -2905125.70561
  23182818.4314   12508161.01644   9746586.17761
  21139028.564   -11739015.269 6  -8785947.85921
  19941960.2904  -19334211.04448 -15065583.59364
  19745518.517   -24292118.648 7 -15098299.52623
 91  5  6 22 30 59.9970000  0  5G15G19G13G 2G 6
  22755592.5564   -4331051.26345  -2911733.79761
  23190397.181    12548002.938 4   9777631.69021
  21128693.876   -11793333.375 6  -8828273.51221
  19942332.8684  -19332257.08948 -15064061.02464
  19741981.064   -24310706.109 7 -15112783.24723
 91  5  6 22 31 14.9970000  0  5G15G19G13G 2G 6
  22754007.9314   -4339396.27245  -2918236.37061
  23197994.6574   12587890.89843   9808713.08561
  21118373.603   -11847555.813 6  -8870524.62521
  19942713.9934  -19330253.21448 -15062499.55764
  19738460.345   -24329207.390 7 -15127199.80523
 91  5  6 22 31 29.9970000  0  5G15G19G13G 2G 6
  22752446.024    -4347602.763 5  -2924631.00821
  23205585.251    12627827.785 3   9839832.56021
  21108075.735   -11901679.357 6  -8912698.67421
  19943104.1184  -19328196.53148 -15060896.94264
  19734956.806   -24347619.286 7 -15141546.71923
 91  5  6 22 31 44.9970000  0  5G15G19G13G 2G 6
  22750911.579    -4355670.650 5  -2930917.66421
  23213198.806    12667813.461 3   9870990.10621
  21097794.329   -11955703.567 6  -8954795.32321
  19943506.5014  -19326086.79348 -15059252.98564
  19731469.946   -24365941.469 7 -15155823.72923
 91  5  6 22 31 59.9970000  0  5G15G19G13G 2G 6
  22749399.7434   -4363597.29345  -2937094.23561
  23220816.743    12707850.245 3   9902187.44221
  21087533.970   -12009625.858 6  -8996812.56221
  19943919.9854  -19323921.59148 -15057565.80864
  19727999.517   -24384171.270 7 -15170028.75123
 91  5  6 22 32 14.9970000  0  5G15G19G13G 2G 6
  22747917.6104   -4371384.90345  -2943162.47761
  23228445.235    12747935.637 3   9933422.67221
  21077290.4934  -12063448.30646  -9038751.98661
  19944340.9544  -19321703.31048 -15055837.27564
  19724548.915   -24402310.715 7 -15184163.36723
 91  5  6 22 32 29.9970000  0  5G15G19G13G 2G 6
  22746464.071    -4379032.810 5  -2949121.87521
  23236085.032    12788070.236 3   9964696.22921
  21067067.5954  -12117169.75146  -9080612.70761
  19944772.4784  -19319431.45448 -15054066.99264
  19721115.509   -24420358.913 7 -15198226.88523
 91  5  6 22 32 44.9970000  0  5G15G19G13G 2G 6
  22745033.665    -4386556.275 5  -2954984.28521
  23243728.243    12828238.426 3   9995995.94721
  21056862.626   -12170805.279 6  -9122406.48721
  19945212.8604  -19317121.48948 -15052267.01664
  19717695.103   -24438330.903 7 -15212231.01823
 91  5  6 22 32 59.9970000  0  5G15G19G13G 2G 6
  22743626.673    -4393942.699 5  -2960739.92221
  23251376.626    12868452.465 3  10027331.41721
  21046673.931   -12224342.156 6  -9164123.39921
  19945662.0244  -19314761.15948 -15050427.79764
  19714291.454   -24456214.256 7 -15226166.08523
 91  5  6 22 33 14.9970000  0  5G15G19G13G 2G 6
  22742251.0644   -4401189.71345  -2966386.93561
  23259042.821    12908714.663 3  10058704.39621
  21036505.345   -12277777.908 6  -9205761.51021
  19946122.4854  -19312348.13948 -15048547.51964
  19710905.446   -24474006.449 7 -15240030.11623
 91  5  6 22 33 29.9970000  0  5G15G19G13G 2G 6
  22740894.5014   -4408298.39145  -2971926.16661
  23266713.2824   12949023.44343  10090113.68261
  21026356.759   -12331113.609 6  -9247321.65921
  19946590.0244  -19309883.59348 -15046627.08964
  19707536.993   -24491708.390 7 -15253823.82523
 91  5  6 22 33 44.9970000  0  5G15G19G13G 2G 6
  22739565.532    -4415277.320 5  -2977364.26421
  23274395.1184   12989370.47244  10121552.79161
  21016224.415   -12384357.138 6  -9288809.98421
  19947067.3994  -19307375.89048 -15044673.03464
  19704184.3294  -24509328.25347 -15267553.57763
 91  5  6 22 33 59.9970000  0  5G15G19G13G 2G 6
  22738267.4704   -4422107.33945  -2982686.34161
  23282078.907    13029774.367 4  10153036.18621
  21006112.564   -12437489.236 6  -9330211.48021
  19947557.9464  -19304806.34348 -15042670.78764
  19700850.509   -24526846.823 7 -15281204.39823
 91  5  6 22 34 14.9970000  0  5G15G19G13G 2G 6
  22736992.267    -4428796.214 5  -2987898.43621
  23289778.8064   13070227.14044  10184557.68161
  20996022.3144  -12490517.43346  -9371532.02861
  19948056.2124  -19302182.75248 -15040626.43064
  19697535.040   -24544271.864 7 -15294782.34023
 91  5  6 22 34 29.9970000  0  5G15G19G13G 2G 6
  22735748.157    -4435341.339 5  -2992998.51921
  23297481.767    13110731.158 4  10216119.10421
  20985951.235   -12543439.040 6  -9412769.51121
  19948566.7984  -19299502.49248 -15038537.91464
  19694237.1104  -24561600.43847 -15308285.11363
 91  5  6 22 34 44.9970000  0  5G15G19G13G 2G 6
  22734528.7904   -4441744.79545  -2997988.21861
  23305205.064    13151284.084 3  10247718.66021
  20975899.9544  -12596255.88946  -9453925.36761
  19949087.1814  -19296767.81548 -15036406.99764
  19690957.0404  -24578834.53847 -15321714.27163
 91  5  6 22 34 59.9970000  0  5G15G19G13G 2G 6
  22733338.2824   -4448011.40545  -3002871.28161
  23312921.759    13191881.014 4  10279352.48321
  20965868.7904  -12648972.64846  -9495003.23461
  19949616.5404  -19293983.70148 -15034237.55864
  19687693.978   -24595978.893 7 -15335073.49723
 91  5  6 22 35 14.9970000  0  5G15G19G13G 2G 6
  22732171.259    -4454140.621 6  -3007647.27121
  23320663.1814   13232521.91444  10311020.55761
  20955855.2824  -12701588.60846  -9536002.55461
  19950156.0484  -19291149.87748 -15032029.38364
  19684449.587   -24613033.004 7 -15348362.40523
 91  5  6 22 35 29.9970000  0  5G15G19G13G 2G 6
  22731034.0714   -4460127.75546  -3012312.56961
  23328403.8064   13273211.41044  10342726.50861
  20945862.6574  -12754098.69946  -9576919.38161
  19950704.7124  -19288261.68048 -15029778.83964
  19681222.3534  -24629991.69147 -15361576.95363
 91  5  6 22 35 44.9970000  0  5G15G19G13G 2G 6
  22729922.056    -4465971.771 6  -3016866.32121
  23336159.2124   13313950.28444  10374470.94561
  20935891.9234  -12806501.59846  -9617752.68961
  19951265.1264  -19285317.95248 -15027485.02764
  19678014.7514  -24646854.00247 -15374716.40763
 91  5  6 22 35 59.9970000  0  5G15G19G13G 2G 6
  22728835.5644   -4471672.54146  -3021308.47361
  23343917.524    13354738.601 4  10406253.88521
  20925940.4784  -12858797.10146  -9658502.31261
  19951834.5324  -19282318.79548 -15025148.02664
  19674824.7984  -24663619.35547 -15387780.30863
 91  5  6 22 36 14.9970000  0  5G15G19G13G 2G 6
  22727779.860    -4477233.490 6  -3025641.67021
  23351689.407    13395572.825 4  10438072.60521
  20916007.9624  -12910988.14446  -9699170.54161
  19952415.6034  -19279267.62648 -15022770.49064
  19671651.0404  -24680290.93947 -15400771.14363
 91  5  6 22 36 29.9970000  0  5G15G19G13G 2G 6
  22726746.524    -4482663.551 6  -3029872.86721
  23359464.5644   13436443.61043  10469919.84261
  20906095.6814  -12963083.59846  -9739764.28161
  19953005.6734  -19276173.81148 -15020359.72664
  19668493.6964  -24696877.78447 -15413695.94563
 91  5  6 22 36 44.9970000  0  5G15G19G13G 2G 6
  22725740.165    -4487951.064 6  -3033992.99121
  23367255.2674   13477362.23743  10501804.31461
  20896201.7904  -13015071.69246  -9780274.36661
  19953604.0874  -19273025.71048 -15017906.65964
  19665355.415   -24713368.317 7 -15426545.69723
 91  5  6 22 36 59.9970000  0  5G15G19G13G 2G 6
  22724758.9544   -4493106.39946  -3038010.12961
  23375048.142    13518318.208 3  10533717.92321
  20886328.1264  -13066962.48246  -9820708.63261
  19954211.9154  -19269833.74748 -15015419.41864
  19662236.2434  -24729772.49747 -15439328.16763
 91  5  6 22 37 14.9970000  0  5G15G19G13G 2G 6
  22723803.4234   -4498117.84046  -3041915.13861
  23382855.454    13559323.199 3  10565669.70221
  20876474.524   -13118744.042 6  -9861057.78621
  19954829.4624  -19266586.24148 -15012888.89864
  19659133.290   -24746078.257 7 -15452033.93923
 91  5  6 22 37 29.9970000  0  5G15G19G13G 2G 6
  22722879.6104   -4502985.02946  -3045707.73861
  23390662.0404   13600377.24642  10597659.72061
  20866640.212   -13170415.781 6  -9901321.36521
  19955458.5324  -19263282.82448 -15010314.80864
  19656047.071   -24762285.271 7 -15464662.76723
 91  5  6 22 37 44.9970000  0  4G15G13G 2G 6
  22721979.907    -4507707.575 6  -3049387.62521
  20856828.2824  -13221976.97346  -9941498.79961
  19956098.3534  -19259923.43848 -15007697.10664
  19652983.681   -24778392.812 7 -15477214.08123
 91  5  6 22 37 59.9970000  0  4G15G13G 2G 6
  22721108.1344   -4512284.47146  -3052954.03561
  20847038.329   -13273426.692 6  -9981589.37721
  19956747.1344  -19256507.22048 -15005035.12064
  19649937.024   -24794400.048 7 -15489687.23923
 91  5  6 22 38 14.9970000  0  4G15G13G 2G 6
  22720262.8144   -4516726.45946  -3056415.31461
  20837266.0644  -13324775.32346 -10021601.18261
  19957406.1264  -19253044.90648 -15002337.21364
  19646907.649   -24810317.387 7 -15502090.34223
 91  5  6 22 38 29.9970000  0  4G15G13G 2G 6
  22719445.8994   -4521023.34546  -3059763.52361
  20827515.9544  -13376012.33246 -10061526.01161
  19958075.9074  -19249526.29248 -14999595.44064
  19643898.571   -24826134.168 7 -15514415.09523
 91  5  6 22 38 44.9970000  0  4G15G13G 2G 6
  22718652.1424   -4525177.67545  -3063000.64861
  20817786.415   -13427139.961 6 -10101365.61021
  19958755.6104  -19245954.03148 -14996811.86264
  19640906.501   -24841852.969 7 -15526663.49123
 91  5  6 22 38 59.9970000  0  4G15G13G 2G 6
  22717888.517    -4529192.848 6  -3066129.33321
  20808077.0484  -13478161.45246 -10141122.50261
  19959444.4314  -19242331.71148 -14993989.27664
  19637933.884   -24857477.123 7 -15538838.13923
 91  5  6 22 39 14.9970000  0  4G15G13G 2G 6
  22717152.423    -4533068.327 5  -3069149.17221
  20798388.5014  -13529076.27646 -10180796.27861
  19960143.9464  -19238658.74648 -14991127.22664
  19634977.931   -24873005.791 7 -15550938.38523
 91  5  6 22 39 29.9970000  0  4G15G13G 2G 6
  22716443.712    -4536807.648 5  -3072062.92521
  20788719.376   -13579887.543 6 -10220389.36021
  19960850.9934  -19234938.81048 -14988228.57864
  19632040.720   -24888442.479 7 -15562966.96023
 91  5  6 22 39 44.9970000  0  4G15G13G 2G 6
  22715757.1734   -4540399.69945  -3074861.91361
  20779073.5324  -13630584.09646 -10259893.05461
  19961570.6264  -19231161.12648 -14985284.92564
  19629123.603   -24903775.892 7 -15574915.05623
 91  5  6 22 39 59.9970000  0  4G15G13G 2G 6
  22715101.0484   -4543852.26745  -3077552.20261
  20769446.1344  -13681173.19546 -10299313.01761
  19962299.6734  -19227333.36648 -14982302.24764
  19626222.876   -24919013.518 7 -15586788.51523
 91  5  6 22 40 14.9970000  0  4G15G13G 2G 6
  22714470.7824   -4547159.20445  -3080129.02761
  20759839.774   -13731648.686 7 -10338644.45721
  19963038.0174  -19223449.49948 -14979275.86264
  19623343.439   -24934149.108 7 -15598582.46523
 91  5  6 22 40 29.9970000  0  4G15G13G 2G 6
  22713870.704    -4550326.870 5  -3082597.31721
  20750255.6264  -13782016.36546 -10377891.88461
  19963786.6344  -19219515.74248 -14976210.59564
  19620481.618   -24949188.566 7 -15610301.50823
 91  5  6 22 40 44.9970000  0  4G15G13G 2G 6
  22713292.126    -4553354.544 5  -3084956.51021
  20740692.720   -13832275.611 6 -10417054.82221
  19964545.7204  -19215531.62848 -14973106.09164
  19617636.142   -24964131.268 7 -15621945.15723
 91  5  6 22 40 59.9970000  0  4G15G13G 2G 6
  22712743.165    -4556242.397 5  -3087206.77321
  20731148.657   -13882426.366 6 -10456133.21921
  19965313.2594  -19211497.35348 -14969962.50264
  19614812.806   -24978977.192 7 -15633513.39323
 91  5  6 22 41 14.9970000  0  4G15G13G 2G 6
  22712216.829    -4558997.991 5  -3089353.97021
  20721623.9314  -13932476.02346 -10495132.83261
  19966087.4464  -19207420.69748 -14966785.88564
  19612005.157   -24993733.882 7 -15645012.10223
 91  5  6 22 41 29.9970000  0  4G15G13G 2G 6
  22711719.790    -4561619.195 5  -3091396.44621
  20712118.3844  -13982422.11246 -10534051.75561
  19966873.0014  -19203299.52448 -14963574.58264
  19609214.5244  -25008398.53047 -15656439.09163
 91  5  6 22 41 44.9970000  0  4G15G13G 2G 6
  22711247.1184   -4564099.12545  -3093328.84561
  20702634.7744  -14032257.45246 -10572884.37061
  19967666.2124  -19199126.89448 -14960323.17964
  19606442.7674  -25022964.56147 -15667789.23763
 91  5  6 22 41 59.9970000  0  4G15G13G 2G 6
  22710801.2904   -4566441.20545  -3095153.82661
  20693172.9074  -14081985.12946 -10611633.09361
  19968469.8454  -19194906.25248 -14957034.36864
  19603688.0484  -25037434.82747 -15679064.76263
 91  5  6 22 42 14.9970000  0  4G15G13G 2G 6
  22710382.431    -4568640.153 5  -3096867.28021
  20683731.040   -14131599.915 6 -10650293.85321
  19969283.1964  -19190632.81048 -14953704.41764
  19600953.3684  -25051804.06247 -15690261.55963
 91  5  6 22 42 29.9970000  0  4G15G13G 2G 6
  22709991.6894   -4570700.98045  -3098473.10461
  20674311.368   -14181106.197 6 -10688870.06721
  19970106.1734  -19186311.15748 -14950336.89964
  19598237.8374  -25066077.01847 -15701383.33763
 91  5  6 22 42 44.9970000  0  4G15G13G 2G 6
  22709628.524    -4572621.884 5  -3099969.90021
  20664911.454   -14230502.083 6 -10727360.25721
  19970937.7984  -19181939.78348 -14946930.63664
  19595540.7904  -25080251.72147 -15712428.55563
 91  5  6 22 42 59.9970000  0  4G15G13G 2G 6
  22709290.110    -4574403.031 5  -3101357.80421
  20655532.7984  -14279787.68146 -10765764.50061
  19971778.0644  -19177518.91448 -14943485.80664
  19592862.2514  -25094328.34647 -15723397.34763
 91  5  6 22 43 14.9970000  0  4G15G13G 2G 6
  22708974.478    -4576044.573 5  -3102636.90621
  20646174.587   -14328962.545 7 -10804082.46721
  19972629.5094  -19173048.56848 -14940002.42264
  19590202.5484  -25108306.37347 -15734289.31163
 91  5  6 22 43 29.9970000  0  4G15G13G 2G 6
  22708686.024    -4577555.714 5  -3103814.40421
  20636835.196   -14378035.772 6 -10842321.22721
  19973487.6894  -19168538.11748 -14936487.78864
  19587558.9854  -25122195.15247 -15745111.73163
 91  5  6 22 43 44.9970000  0  4G15G13G 2G 6
  22708426.462    -4578926.210 5  -3104882.30821
  20627517.603   -14426996.999 6 -10880472.72321
  19974356.2984  -19163977.49348 -14932934.06064
  19584934.0244  -25135984.19547 -15755856.43463
 91  5  6 22 43 59.9970000  0  4G15G13G 2G 6
  22708190.048    -4580149.827 5  -3105835.77921
  20618223.7514  -14475840.13346 -10918532.19361
  19975233.9154  -19159360.67348 -14929336.54164
  19582331.0714  -25149667.31547 -15766518.60163
 91  5  6 22 44 14.9970000  0  4G15G13G 2G 6
  22707987.384    -4581241.624 5  -3106686.50421
  20608948.2744  -14524579.67046 -10956510.93661
  19976121.0714  -19154702.62848 -14925706.90264
  19579744.7824  -25163259.10547 -15777109.60263
 91  5  6 22 44 29.9970000  0  4G15G13G 2G 6
  22707803.3764   -4582199.56845  -3107432.95261
  20599694.259   -14573213.105 6 -10994407.01421
  19977014.2824  -19150001.21048 -14922043.46364
  19577176.4314  -25176757.39747 -15787627.75063
 91  5  6 22 44 44.9970000  0  4G15G13G 2G 6
  22707648.642    -4583009.732 5  -3108064.23121
  20590463.095   -14621726.275 7 -11032209.36521
  19977920.7514  -19145242.33348 -14918335.25264
  19574628.9314  -25190147.82747 -15798061.84663
 91  5  6 22 44 59.9970000  0  4G15G13G 2G 6
  22707521.1814   -4583682.40146  -3108588.37061
  20581251.454   -14670128.994 7 -11069925.66721
  19978835.0404  -19140436.37448 -14914590.35464
  19572099.4624  -25203440.38147 -15808419.67963
 91  5  6 22 45 14.9970000  0  4G15G13G 2G 6
  22707414.032    -4584217.702 6  -3109005.47721
  20572063.314   -14718421.274 7 -11107555.90621
  19979759.6344  -19135583.47648 -14910808.87864
  19569586.6034  -25216635.10747 -15818701.27963
 91  5  6 22 45 29.9970000  0  4G15G13G 2G 6
  22707347.4704   -4584609.56346  -3109310.81661
  20562894.978   -14766597.153 7 -11145095.44021
  19980690.8924  -19130678.01148 -14906986.44264
  19567097.3604  -25229725.89647 -15828901.89263
 91  5  6 22 45 44.9970000  0  4G15G13G 2G 6
  22707296.782    -4584867.579 6  -3109511.84621
  20553747.360   -14814665.974 7 -11182551.55321
  19981633.2674  -19125729.63148 -14903130.56764
  19564623.2204  -25242722.23247 -15839028.90563
 91  5  6 22 45 59.9970000  0  4G15G13G 2G 6
  22707270.6424   -4584991.84046
  20544620.251   -14862627.385 7 -11219923.96921
  19982584.0244  -19120738.27848 -14899241.20464
  19562168.1034  -25255623.85847 -15849082.12063
 91  5  6 22 46 14.9970000  0  4G15G13G 2G 6
  22707276.9854   -4584974.30546
  20535515.493   -14910473.347 7 -11257206.42621
  19983541.8684  -19115695.89148 -14895312.07764
  19559734.1734  -25268422.63647 -15859055.19163
 91  5  6 22 46 29.9970000  0  4G15G13G 2G 6
  22707306.306    -4584821.257 6
  20526430.704   -14958209.701 7 -11294403.47221
  19984511.2674  -19110608.66248 -14891348.00764
  19557315.6264  -25281124.54847 -15868952.78263
 91  5  6 22 46 44.9970000  0  4G15G13G 2G 6
  22707358.704    -4584534.936 6
  20517368.642   -15005838.409 7 -11331516.64321
  19985486.5324  -19105479.13848 -14887350.98164
  19554917.4934  -25293731.64647 -15878776.49363
 91  5  6 22 46 59.9970000  0  4G15G13G 2G 6
  22707439.1424   -4584106.12246  -3108918.45161
  20508327.001   -15053349.999 7 -11368538.55321
  19986474.1104  -19100298.12048 -14883313.82864
  19552537.6964  -25306234.41547 -15888518.90763
 91  5  6 22 47 14.9970000  0  4G15G13G 2G 6
  22707546.571    -4583529.960 6  -3108469.49221
  20499307.790   -15100739.514 7 -11405465.33721
  19987469.2744  -19095060.57548 -14879232.63264
  19550179.9704  -25318627.88147 -15898176.14863
 91  5  6 22 47 29.9970000  0  4G15G13G 2G 6
  22707689.189    -4582797.318 6  -3107898.59521
  20490316.868   -15147997.468 7 -11442289.60421
  19988479.9154  -19089757.47948 -14875100.35264
  19547842.3844  -25330902.75647 -15907740.98163
 91  5  6 22 47 44.9970000  0  4G15G13G 2G 6
  22707857.478    -4581917.979 6  -3107213.38821
  20481345.634   -15195133.244 7 -11479018.67121
  19989498.2824  -19084398.60148 -14870924.60864
  19545527.9154  -25343068.41647 -15917220.70963
 91  5  6 22 47 59.9960000  0  4G15G13G 2G 6
  22708050.8634   -4580900.11346  -3106420.24161
  20472398.785   -15242151.571 7 -11515656.21621
  19990526.6994  -19078992.30148 -14866711.91064
  19543233.5744  -25355131.89147 -15926620.81563
 91  5  6 22 48 14.9960000  0  4G15G13G 2G 6
  22708274.2774   -4579743.81746  -3105519.23761
  20463473.191   -15289058.958 7 -11552207.31921
  19991565.4494  -19073538.33848 -14862462.07364
  19540955.4814  -25367094.87847 -15935942.61663
 91  5  6 22 48 29.9960000  0  4G15G13G 2G 6
  22708514.0354   -4578454.56846  -3104514.62361
  20454567.582   -15335857.256 7 -11588673.41921
  19992612.7464  -19068042.34148 -14858179.48264
  19538696.7704  -25378961.91947 -15945189.65063
 91  5  6 22 48 44.9960000  0  4G15G13G 2G 6
  22708789.5664   -4577024.57746  -3103400.33961
  20445683.676   -15382538.399 7 -11625048.23121
  19993666.5204  -19062496.65248 -14853858.16964
  19536459.3564  -25390724.72647 -15954355.46663
 91  5  6 22 48 59.9960000  0  4G15G13G 2G 6
  22709091.9734   -4575449.16446  -3102172.74461
  20436823.824   -15429097.667 7 -11661328.08021
  19994732.0984  -19056896.65448 -14849494.53664
  19534242.059   -25402378.679 7 -15963436.45423
 91  5  6 22 49 14.9960000  0  4G15G13G 2G 6
  22709412.4814   -4573733.58746  -3100835.92361
  20427986.465   -15475540.016 7 -11697516.82021
  19995807.5514  -19051247.63548 -14845092.70664
  19532042.6914  -25413928.74247 -15972436.49363
 91  5  6 22 49 29.9960000  0  4G15G13G 2G 6
  22709772.9494   -4571864.42646  -3099379.43161
  20419172.918   -15521851.788 7 -11733603.81521
  19996894.6374  -19045536.17648 -14840642.22464
  19529868.5594  -25425361.29047 -15981344.96263
 91  5  6 22 49 44.9960000  0  4G15G13G 2G 6
  22710151.2384   -4569863.96546  -3097820.63161
  20410379.7704  -15568055.11847 -11769606.31361
  19997989.2464  -19039784.72448 -14836160.57564
  19527711.574   -25436698.520 7 -15990179.15123
 91  5  6 22 49 59.9960000  0  4G15G13G 2G 6
  22710559.3404   -4567727.42746  -3096155.78961
  20401609.5434  -15614144.76947 -11805520.23361
  19999091.5664  -19033988.24648 -14831643.84364
  19525572.199   -25447935.226 7 -15998935.01623
 91  5  6 22 50 14.9960000  0  4G15G13G 2G 6
  22710990.3874   -4565450.75546  -3094381.76061
  20392861.9104  -15660116.36047 -11841342.15561
  20000204.1134  -19028142.54448 -14827088.75464
  19523454.027   -25459067.122 7 -16007609.20623
 91  5  6 22 50 29.9960000  0  4G15G13G 2G 6
  22711449.2544   -4563031.58346  -3092496.68561
  20384136.926   -15705967.214 7 -11877069.99421
  20001327.6294  -19022245.41948 -14822493.59864
  19521356.0124  -25470091.65247 -16016199.73963
 91  5  6 22 50 44.9960000  0  4G15G13G 2G 6
  22711934.4734   -4560469.29445  -3090500.09061
  20375432.8164  -15751696.69047 -11912703.25861
  20002458.8564  -19016296.30648 -14817857.92664
  19519279.027   -25481008.150 7 -16024706.09123
 91  5  6 22 50 59.9960000  0  4G15G13G 2G 6
  22712450.3954   -4557767.56245  -3088394.83561
  20366755.1604  -15797308.03147 -11948244.46461
  20003600.2544  -19010298.66048 -14813184.44264
  19517221.2544  -25491819.75847 -16033130.71063
 91  5  6 22 51 14.9960000  0  4G15G13G 2G 6
  22712992.223    -4554928.161 6  -3086182.30321
  20358097.3564  -15842802.89747 -11983694.91361
  20004749.7234  -19004254.58248 -14808474.77364
  19515183.7774  -25502528.09347 -16041474.85963
 91  5  6 22 51 29.9960000  0  4G15G13G 2G 6
  22713560.4414   -4551948.58446  -3083860.54861
  20349462.4964  -15888178.47747 -12019052.41761
  20005908.9264  -18998161.38148 -14803726.82764
  19513166.0044  -25513130.46047 -16049736.43563
 91  5  6 22 51 44.9960000  0  4G15G13G 2G 6
  22714152.7074   -4548832.47946  -3081432.41061
  20340850.6454  -15933438.26247 -12054319.68661
  20007077.6134  -18992022.97248 -14798943.65264
  19511168.2544  -25523630.43747 -16057918.22763
 91  5  6 22 51 59.9960000  0  4G15G13G 2G 6
  22714769.1374   -4545577.43346  -3078895.99461
  20332260.6914  -15978579.32147 -12089494.43961
  20008255.0984  -18985836.59348 -14794123.09964
  19509189.7074  -25534025.00347 -16066017.88163
 91  5  6 22 52 14.9960000  0  4G15G13G 2G 6
  22715414.2074   -4542187.46646  -3076254.44461
  20323691.3874  -16023605.58547 -12124579.74561
  20009440.7934  -18979606.26748 -14789268.30264
  19507231.5984  -25544318.31047 -16074038.63063
 91  5  6 22 52 29.9960000  0  4G15G13G 2G 6
  22716087.7934   -4538667.55046  -3073511.65461
  20315144.4264  -16068521.74247 -12159579.25861
  20010633.4264  -18973337.13048 -14784383.26264
  19505292.1844  -25554514.91047 -16081984.02463
 91  5  6 22 52 44.9960000  0  4G15G13G 2G 6
  22716784.379    -4535010.914 6  -3070662.31321
  20306619.6914  -16113320.65247 -12194487.41061
  20011833.4654  -18967022.38148 -14779462.68164
  19503371.0274  -25564607.88447 -16089848.67363
 91  5  6 22 52 59.9960000  0  4G15G13G 2G 6
  22717503.684    -4531215.711 6  -3067704.99521
  20298116.2544  -16158000.15947 -12229302.52461
  20013045.2544  -18960659.90048 -14774504.90564
  19501469.4264  -25574594.92947 -16097630.77663
 91  5  6 22 53 14.9960000  0  4G15G13G 2G 6
  22718251.012    -4527283.423 6  -3064640.86021
  20289636.5044  -16202561.51747 -12264025.57161
  20014265.2234  -18954251.36948 -14769511.24864
  19499590.6064  -25584477.44847 -16105331.43563
 91  5  6 22 53 29.9960000  0  4G15G13G 2G 6
  22719028.316    -4523211.532 6  -3061467.93621
  20281179.7314  -16247002.26847 -12298654.64161
  20015493.2314  -18947794.33148 -14764479.79064
  19497729.1454  -25594252.80647 -16112948.59063
 91  5  6 22 53 44.9960000  0  4G15G13G 2G 6
  22719826.8164   -4518994.75246  -3058182.11861
  20272747.0124  -16291316.77847 -12333185.34061
  20016732.6134  -18941283.32148 -14759406.27664
  19495892.0204  -25603915.35147 -16120477.83763
 91  5  6 22 53 59.9960000  0  4G15G13G 2G 6
  22720659.1454   -4514639.00246  -3054788.02561
  20264336.8714  -16335510.47347 -12367621.89661
  20017981.0434  -18934724.13648 -14754295.22464
  19494071.8244  -25613470.56147 -16127923.45063
 91  5  6 22 54 14.9960000  0  4G15G13G 2G 6
  22721517.973    -4510141.153 6  -3051283.19121
  20255951.4654  -16379580.01547 -12401961.70461
  20019236.5744  -18928113.84548 -14749144.35364
  19492275.1524  -25622915.44447 -16135283.09263
 91  5  6 22 54 29.9960000  0  4G15G13G 2G 6
  22722395.895    -4505504.751 6  -3047670.40421
  20247588.2464  -16423529.01847 -12436207.59161
  20020506.0744  -18921456.10448 -14743956.50264
  19490497.0664  -25632253.25547 -16142559.30563
 91  5  6 22 54 44.9960000  0  4G15G13G 2G 6
  22723306.074    -4500729.739 6  -3043949.60721
  20239246.8014  -16467356.80947 -12470359.02661
  20021781.8954  -18914750.42348 -14738731.29664
  19488740.8564  -25641483.48047 -16149751.68363
 91  5  6 22 54 59.9960000  0  4G15G13G 2G 6
  22724244.793    -4495816.192 6  -3040120.85921
  20230930.3094  -16511063.44047 -12504416.04461
  20023065.2934  -18907997.09548 -14733468.96364
  19487006.3404  -25650606.12847 -16156860.23663
 91  5  6 22 55 14.9960000  0  4G15G13G 2G 6
  22725205.356    -4490767.988 6  -3036187.18721
  20222635.2854  -16554652.18447 -12538381.20561
  20024359.4494  -18901199.85348 -14728172.41064
  19485290.1684  -25659624.69647 -16163887.68863
 91  5  6 22 55 29.9960000  0  4G15G13G 2G 6
  22726189.051    -4485585.609 6  -3032148.95621
  20214362.7854  -16598123.55147 -12572254.89961
  20025662.9184  -18894359.15448 -14722841.99564
  19483592.9104  -25668539.58347 -16170834.34963
 91  5  6 22 55 44.9960000  0  4G15G13G 2G 6
  22727201.301    -4480258.741 6  -3027998.14621
  20206114.8014  -16641466.85247 -12606028.80661
  20026973.5274  -18887464.64248 -14717469.64764
  19481918.1914  -25677340.09147 -16177691.88463
 91  5  6 22 55 59.9960000  0  4G15G13G 2G 6
  22728244.926    -4474792.181 6  -3023738.48121
  20197890.8014  -16684686.61247 -12639706.44861
  20028294.2544  -18880521.22048 -14712059.18864
  19480264.6914  -25686030.81947 -16184463.87863
 91  5  6 22 56 14.9960000  0  4G15G13G 2G 6
  22729314.0354   -4469187.72846  -3019371.38261
  20189689.4264  -16727784.40847 -12673289.05761
  20029625.1064  -18873530.47648 -14706611.85864
  19478630.9964  -25694613.27347 -16191151.50263
 91  5  6 22 56 29.9960000  0  4G15G13G 2G 6
  22730401.887    -4463441.748 6  -3014893.97921
  20181513.0514  -16770756.36447 -12706773.60461
  20030964.8874  -18866488.84348 -14701124.87464
  19477019.1064  -25703083.54947 -16197751.71463
 91  5  6 22 56 44.9960000  0  4G15G13G 2G 6
  22731520.5274   -4457551.41146  -3010304.09761
  20173359.2314  -16813599.45647 -12740157.74461
  20032316.3564  -18859393.31548 -14695595.89364
  19475429.7464  -25711438.55947 -16204262.10863
 91  5  6 22 56 59.9960000  0  4G15G13G 2G 6
  22732670.418    -4451515.151 6  -3005600.51021
  20165232.4264  -16856311.77647 -12773439.98261
  20033677.2234  -18852242.48148 -14690023.82064
  19473862.1994  -25719676.60347 -16210681.36263
 91  5  6 22 57 14.9960000  0  4G15G13G 2G 6
  22733848.5044   -4445344.24446  -3000792.01861
  20157127.0594  -16898904.38247 -12806628.94261
  20035046.1994  -18845047.52148 -14684417.35964
  19472315.4104  -25727808.68847 -16217018.05363
 91  5  6 22 57 29.9960000  0  4G15G13G 2G 6
  22735043.9184   -4439039.66246  -2995879.34461
  20149044.2934  -16941377.82147 -12839725.04461
  20036422.9734  -18837809.18348 -14678777.10064
  19470787.4964  -25735835.44847 -16223272.66763
 91  5  6 22 57 44.9960000  0  4G15G13G 2G 6
  22736270.3244   -4432601.61246  -2990862.68361
  20140984.293   -16983732.088 7 -12872728.27921
  20037809.0434  -18830527.76148 -14673103.26564
  19469279.5904  -25743756.89447 -16229445.21863
 91  5  6 22 57 59.9960000  0  4G15G13G 2G 6
  22737519.1134   -4426024.28545  -2985737.48561
  20132948.0984  -17025960.83047 -12905633.70561
  20039204.8244  -18823197.24348 -14667391.17864
  19467793.2464  -25751566.76847 -16235530.83363
 91  5  6 22 58 14.9960000  0  4G15G13G 2G 6
  22738802.9574   -4419307.26945  -2980503.43861
  20124937.7314  -17068063.79147 -12938441.12061
  20040607.1294  -18815817.33948 -14661640.60864
  19466328.7314  -25759264.59747 -16241529.13863
 91  5  6 22 58 29.9960000  0  4G15G13G 2G 6
  22740105.5044   -4412451.92245  -2975161.61561
  20116948.0124  -17110041.97947 -12971151.30661
  20042021.5904  -18808389.35848 -14655852.57264
  19464885.7544  -25766851.39147 -16247440.92463
 91  5  6 22 58 44.9960000  0  4G15G13G 2G 6
  22741435.6684   -4405461.58245  -2969714.58761
  20108983.082   -17151898.655 7 -13003766.81721
  20043444.2384  -18800916.88748 -14650029.87564
  19463462.5274  -25774330.69747 -16253268.95263
 91  5  6 22 58 59.9960000  0  4G15G13G 2G 6
  22742793.801    -4398329.683 5  -2964157.25221
  20101041.0824  -17193626.64547 -13036282.05161
  20044874.8014  -18793393.01248 -14644167.12164
  19462059.8324  -25781695.17747 -16259007.50563
 91  5  6 22 59 14.9960000  0  4G15G13G 2G 6
  22744176.9414   -4391060.73945  -2958493.15261
  20093125.3484  -17235230.52247 -13068700.56561
  20046315.3014  -18785822.32048 -14638267.88564
  19460679.8954  -25788949.35647 -16264660.11163
 91  5  6 22 59 29.9960000  0  4G15G13G 2G 6
  22745582.6994   -4383649.76645  -2952718.36261
  20085231.7704  -17276704.64847 -13101017.98161
  20047766.7464  -18778199.42048 -14632327.97164
  19459321.4024  -25796087.65247 -16270222.41763
 91  5  6 22 59 44.9960000  0  4G15G13G 2G 6
  22747020.0664   -4376093.85345
  20077366.770   -17318046.084 7 -13133232.00021
  20049226.9884  -18770521.50048
  19457985.6294  -25803107.07447 -16275692.09363
 91  5  6 22 59 59.9960000  0  4G15G13G 2G 6
  22748482.4654   -4368399.34345
  20069522.7234  -17359260.64247 -13165347.15461
  20050698.3484  -18762794.89448
  19456672.0274  -25810013.67847 -16281073.85963
 91  5  6 23  0 14.9960000  0  4G15G13G 2G 6
  22749977.7384   -4360561.58745  -2934727.56361
  20061705.6914  -17400343.63647 -13197359.78761
  20052178.0204  -18755014.81648 -14614262.05964
  19455379.7464  -25816802.57547 -16286363.90763
 91  5  6 23  0 29.9960000  0  4G15G13G 2G 6
  22751498.3244   -4352581.95045  -2928509.66561
  20053911.0824  -17441296.00747 -13229270.64161
  20053669.0274  -18747182.31648 -14608158.81664
  19454110.5044  -25823474.80247 -16291563.03963
 91  5  6 23  0 44.9960000  0  4G15G13G 2G 6
  22753042.152    -4344470.913 5  -2922189.37621
  20046140.3094  -17482128.30347 -13261087.92961
  20055166.8094  -18739308.07448 -14602023.04964
  19452859.5824  -25830040.70847 -16296679.32963
 91  5  6 23  0 59.9960000  0  4G15G13G 2G 6
  22754613.082    -4336227.564 5  -2915765.97821
  20038394.738   -17522839.084 7 -13292810.53021
  20056673.5984  -18731391.19848 -14595854.05964
  19451630.4104  -25836499.16647 -16301711.88863
 91  5  6 23  1 14.9960000  0  4G15G13G 2G 6
  22756204.1454   -4327841.07445  -2909231.05461
  20030673.027   -17563417.188 7 -13324429.74621
  20058190.7624  -18723420.72148 -14589643.30064
  19450424.3954  -25842839.04447 -16306652.04863
 91  5  6 23  1 29.9960000  0  4G15G13G 2G 6
  22757828.043    -4319313.107 5  -2902585.87421
  20022975.176   -17603863.811 7 -13355946.51021
  20059717.8164  -18715397.97148 -14583391.81264
  19449240.8324  -25849061.39947 -16311500.63463
 91  5  6 23  1 44.9960000  0  4G15G13G 2G 6
  22759480.7464   -4310647.92545  -2895833.77461
  20015303.1524  -17644183.50847 -13387364.36861
  20061253.0204  -18707327.52248 -14577103.15864
  19448079.8714  -25855170.63847 -16316261.07763
 91  5  6 23  1 59.9960000  0  4G15G13G 2G 6
  22761153.9884   -4301843.22945  -2888972.98061
  20007655.738   -17684373.584 7 -13418681.22922
  20062798.0124  -18699206.91448 -14570775.41764
  19446938.9964  -25861164.19847 -16320931.37963
 91  5  6 23  2 14.9960000  0  4G15G13G 2G 6
  22762856.293    -4292898.893 5  -2882003.35121
  20000031.3014  -17724433.65747 -13449896.78562
  20064353.3874  -18691035.79648 -14564408.31564
  19445819.3634  -25867041.64847 -16325511.20463
 91  5  6 23  2 29.9960000  0  4G15G13G 2G 6
  22764580.3014   -4283824.36345  -2874932.28361
  19992431.762   -17764372.566 7 -13481017.93121
  20065917.2774  -18682823.53448 -14558009.15464
  19444721.2154  -25872811.96147 -16330007.54863
 91  5  6 23  2 44.9960000  0  4G15G13G 2G 6
  22766334.0744   -4274610.68645  -2867752.79161
  19984856.629   -17804181.323 7 -13512037.66022
  20067488.1604  -18674561.18648 -14551570.96864
  19443645.1134  -25878466.04547 -16334413.32363
 91  5  6 23  2 59.9960000  0  4G15G13G 2G 6
  22768119.1844   -4265257.84445  -2860464.86761
  19977306.488   -17843859.597 7 -13542955.71122
  20069069.8794  -18666248.62848 -14545093.65263
  19442591.4264  -25884003.56247 -16338728.27063
 91  5  6 23  3 14.9960000  0  4G15G13G 2G 6
  22769921.699    -4255755.135 5  -2853060.13821
  19969782.887   -17883396.265 7 -13573763.42622
  20070663.8164  -18657875.03648 -14538568.77963
  19441561.8874  -25889413.58247 -16342943.86563
 91  5  6 23  3 29.9960000  0  4G15G13G 2G 6
  22771756.762    -4246115.358 5  -2845548.61421
  19962283.973   -17922803.937 7 -13604470.61921
  20072266.7384  -18649453.10648 -14532006.24063
  19440552.4264  -25894708.55547 -16347069.81463
 91  5  6 23  3 44.9960000  0  4G15G13G 2G 6
  22773616.7234   -4236345.49745  -2837935.73161
  19954808.527   -17962089.522 7 -13635082.69121
  20073875.6374  -18640989.67548 -14525411.36463
  19439566.4964  -25899895.29947 -16351111.43363
 91  5  6 23  3 59.9960000  0  4G15G13G 2G 6
  22775504.160    -4226435.883 5  -2830213.94521
  19947356.223   -18001243.314 7 -13665592.06322
  20075496.4814  -18632475.19948 -14518776.71163
  19438603.3954  -25904963.99047 -16355061.05863
 91  5  6 23  4 14.9960000  0  4G15G13G 2G 6
  22777416.840    -4216383.095 5  -2822380.60421
  19939931.762   -18040261.372 7 -13695995.67021
  20077127.4414  -18623906.03248 -14512099.44663
  19437662.8014  -25909910.80447 -16358915.71463
 91  5  6 23  4 29.9960000  0  4G15G13G 2G 6
  22779359.223    -4206186.151 5  -2814434.92121
  19932532.551   -18079142.286 7 -13726292.41821
  20078769.2704  -18615281.21448 -14505378.81663
  19436744.4264  -25914734.61447 -16362674.52463
 91  5  6 23  4 44.9960000  0  4G15G13G 2G 6
  22781321.801    -4195852.517 5  -2806382.72921
  19925158.5744  -18117893.29347 -13756487.93562
  20080419.7464  -18606607.96948 -14498620.45363
  19435847.6294  -25919442.43047 -16366342.94763
 91  5  6 23  4 59.9960000  0  4G15G13G 2G 6
  22783314.6294   -4185383.84445  -2798225.31361
  19917808.0514  -18156515.58447 -13786583.15762
  20082078.4494  -18597887.94548 -14491825.63263
  19434973.6524  -25924035.60447 -16369922.03963
 91  5  6 23  5 14.9960000  0  4G15G13G 2G 6
  22785328.527    -4174782.682 5  -2789964.66121
  19910484.207   -18195011.376 7 -13816579.80521
  20083746.2384  -18589123.39648 -14484996.11663
  19434121.4264  -25928516.32647 -16373413.50863
 91  5  6 23  5 29.9960000  0  4G15G13G 2G 6
  22787373.2774   -4164039.63445  -2781593.44461
  19903183.6844  -18233371.56947 -13846470.79962
  20085424.2854  -18580305.14548 -14478124.75663
  19433292.4734  -25932875.33147 -16376810.13363
 91  5  6 23  5 44.9960000  0  4G15G13G 2G 6
  22789451.9574   -4153159.33745  -2773115.29261
  19895909.3954  -18271600.00147 -13876259.11861
  20087111.7314  -18571437.34148 -14471214.78563
  19432484.0354  -25937116.50947 -16380114.94363
 91  5  6 23  5 59.9960000  0  4G15G13G 2G 6
  22791546.035    -4142136.690 5  -2764526.21621
  19888660.6844  -18309691.34847 -13905940.61861
  20088811.1764  -18562514.94748 -14464262.27463
  19431700.0204  -25941234.77347 -16383323.98163
 91  5  6 23  6 14.9960000  0  4G15G13G 2G 6
  22793669.449    -4130968.204 5  -2755823.48921
  19881439.074   -18347642.317 7 -13935512.73521
  20090518.8794  -18553534.48948 -14457264.53763
  19430940.5594  -25945226.35147 -16386434.29563
 91  5  6 23  6 29.9960000  0  4G15G13G 2G 6
  22795816.4024   -4119670.96845  -2747020.45161
  19874240.6374  -18385469.35747 -13964988.28362
  20092235.7314  -18544512.95848 -14450234.76363
  19430201.7934  -25949108.08447 -16389459.01963
 91  5  6 23  6 44.9960000  0  4G15G13G 2G 6
  22797997.691    -4108244.279 5  -2738116.54321
  19867065.6294  -18423171.62247 -13994366.60661
  20093959.7314  -18535449.32548 -14443172.19763
  19429483.7464  -25952878.86847 -16392397.28863
 91  5  6 23  6 59.9960000  0  4G15G13G 2G 6
  22800191.9884   -4096673.60045  -2729100.42161
  19859918.1294  -18460734.07747 -14023635.98462
  20095696.0204  -18526328.99148 -14436065.45163
  19428790.7934  -25956523.73947 -16395237.44663
 91  5  6 23  7 14.9960000  0  4G15G13G 2G 6
  22802424.8874   -4084978.40045  -2719987.29161
  19852791.4184  -18498176.06247 -14052811.49361
  20097437.7934  -18517171.26948 -14428929.57063
  19428118.2314  -25960062.11947 -16397994.62163
 91  5  6 23  7 29.9960000  0  4G15G13G 2G 6
  22804673.582    -4073143.981 5  -2710765.67121
  19845694.6214  -18535482.44147 -14081881.33061
  20099191.0124  -18507961.36548 -14421753.02664
  19427466.8564  -25963478.95347 -16400657.09363
 91  5  6 23  7 44.9960000  0  4G15G13G 2G 6
  22806946.8484   -4061178.61345  -2701442.01061
  19838618.5274  -18572661.23847 -14110851.75862
  20100951.5274  -18498707.28048 -14414542.05363
  19426839.4344  -25966782.08147 -16403230.95563
 91  5  6 23  7 59.9960000  0  4G15G13G 2G 6
  22809251.3874   -4049070.53545  -2692007.14861
  19831571.207   -18609700.651 7 -14139713.56921
  20102724.5514  -18489397.68348 -14407287.83363
  19426233.9264  -25969959.73747 -16405707.04763
 91  5  6 23  8 14.9960000  0  4G15G13G 2G 6
  22811581.6064   -4036824.60145  -2682464.86161
  19824548.0124  -18646605.19947 -14168470.29561
  20104505.2464  -18480036.78348 -14399993.62863
  19425652.2234  -25973016.32447 -16408088.79963
 91  5  6 23  8 29.9960000  0  4G15G13G 2G 6
  22813938.8164   -4024445.28245  -2672818.64261
  19817550.0984  -18683379.00447 -14197125.14361
  20106295.1844  -18470629.10748 -14392662.97863
  19425092.5904  -25975956.08747 -16410379.52363
 91  5  6 23  8 44.9960000  0  4G15G13G 2G 6
  22816321.9494   -4011930.91845  -2663067.19461
  19810577.6914  -18720020.30647 -14225676.74161
  20108094.7704  -18461173.08948 -14385294.66163
  19424556.3714  -25978777.22647 -16412577.81263
 91  5  6 23  8 59.9960000  0  4G15G13G 2G 6
  22818730.5274   -3999278.86246  -2653208.44461
  19803630.0204  -18756526.15647 -14254122.78962
  20109903.0744  -18451665.78448 -14377886.37863
  19424041.6524  -25981476.69747 -16414681.29563
 91  5  6 23  9 14.9960000  0  4G15G13G 2G 6
  22821164.0434   -3986484.03846  -2643238.45461
  19796708.6994  -18792890.82147 -14282458.83062
  20111723.3954  -18442101.75348 -14370433.89663
  19423552.5434  -25984048.80147 -16416685.53363
 91  5  6 23  9 29.9960000  0  4G15G13G 2G 6
  22823620.4574   -3973559.49645  -2633167.37961
  19789813.2624  -18829127.31847 -14310694.99762
  20113553.4654  -18432493.78448 -14362947.17963
  19423085.3244  -25986506.55447 -16418600.66163
 91  5  6 23  9 44.9960000  0  4G15G13G 2G 6
  22826104.8634   -3960506.36046  -2622996.09861
  19782942.8794  -18865236.68247 -14338832.10262
  20115388.9964  -18422843.17348 -14355427.22463
  19422638.6604  -25988850.96247 -16420427.47763
 91  5  6 23  9 59.9960000  0  4G15G13G 2G 6
  22828614.3794   -3947332.36846  -2612730.65361
  19776094.2234  -18901226.20147 -14366875.81862
  20117231.3484  -18413157.48248 -14347879.94663
  19422213.3874  -25991089.28947 -16422171.62363
 91  5  6 23 10 14.9960000  0  4G15G13G 2G 6
  22831147.1844   -3934026.24746  -2602362.24461
  19769269.3014  -18937084.47147 -14394817.26362
  20119084.9574  -18403425.42648 -14340296.53663
  19421809.5514  -25993210.00247 -16423824.13063
 91  5  6 23 10 29.9960000  0  4G15G13G 2G 6
  22833704.7854   -3920583.93446  -2591887.72161
  19762472.3324  -18972807.12247 -14422653.02962
  20120945.0434  -18393642.88948 -14332673.79064
  19421429.1524  -25995209.01247 -16425381.79763
 91  5  6 23 10 44.9960000  0  4G15G13G 2G 6
  22836289.574    -3907001.474 6  -2581303.97621
  19755701.7234  -19008389.75547 -14450379.69262
  20122817.6684  -18383805.68648 -14325008.44963
  19421073.1914  -25997081.84347 -16426841.14463
 91  5  6 23 10 59.9960000  0  4G15G13G 2G 6
  22838895.5744   -3893285.25346  -2570616.02461
  19748956.1994  -19043838.64247 -14478002.13762
  20124697.996   -18373920.080 8 -14317305.39323
  19420739.5904  -25998834.60547 -16428206.93263
 91  5  6 23 11 14.9960000  0  4G15G13G 2G 6
  22841535.5984   -3879432.38046  -2559821.55961
  19742235.941   -19079150.451 7 -14505517.76221
  20126588.520   -18363982.852 8 -14309562.11123
  19420429.9574  -26000464.01047 -16429476.60063
 91  5  6 23 11 29.9960000  0  4G15G13G 2G 6
  22844196.2074   -3865441.61246  -2548919.66561
  19735543.9184  -19114323.89947 -14532925.58262
  20128490.9344  -18353992.88248 -14301777.72763
  19420142.2624  -26001968.71647 -16430649.09563
 91  5  6 23 11 44.9960000  0  4G15G13G 2G 6
  22846882.801    -3851313.352 6  -2537910.61921
  19728876.6844  -19149358.93947 -14560225.54862
  20130401.035   -18343950.094 8 -14293952.19323
  19419880.3404  -26003348.75447 -16431724.45163
 91  5  6 23 11 59.9960000  0  4G15G13G 2G 6
  22849601.0434   -3837045.14245  -2526792.54461
  19722234.2384  -19184252.74247 -14587415.45562
  20132321.7234  -18333851.85548 -14286083.44363
  19419642.5594  -26004601.17347 -16432700.36163
 91  5  6 23 12 14.9960000  0  4G15G13G 2G 6
  22852337.5354   -3822646.30545  -2515572.67061
  19715620.4814  -19219014.39647 -14614502.39562
  20134253.395   -18323707.682 8 -14278178.90923
  19419427.6524  -26005735.50247 -16433584.25563
 91  5  6 23 12 29.9960000  0  4G15G13G 2G 6
  22855103.1134   -3808118.58045  -2504252.36261
  19709029.4734  -19253645.33447 -14641487.47362
  20136194.1134  -18313518.84548 -14270239.56264
  19419233.0274  -26006752.83547 -16434376.98263
 91  5  6 23 12 44.9960000  0  4G15G13G 2G 6
  22857893.7934   -3793460.89145  -2492830.77461
  19702465.6134  -19288144.56947 -14668369.92862
  20138140.8484  -18303284.38648 -14262264.67463
  19419062.8564  -26007652.00047 -16435077.63163
 91  5  6 23 12 59.9960000  0  4G15G13G 2G 6
  22860707.0904   -3778672.69445  -2481307.49961
  19695924.6764  -19322510.94147 -14695148.85762
  20140096.434   -18293003.624 8 -14254253.70423
  19418913.5434  -26008431.98647 -16435685.41163
 91  5  6 23 13 14.9960000  0  4G15G13G 2G 6
  22863545.6524   -3763750.83545  -2469680.08161
  19689411.7624  -19356741.07747 -14721821.62762
  20142062.066   -18282673.064 8 -14246203.93023
  19418788.2314  -26009089.29647 -16436197.60363
 91  5  6 23 13 29.9960000  0  4G15G13G 2G 6
  22866414.0744   -3748690.11045  -2457944.46161
  19682925.6294  -19390829.87747 -14748384.26162
  20144038.856   -18272287.701 8 -14238111.45024
  19418688.8244  -26009618.80447 -16436610.20663
 91  5  6 23 13 44.9960000  0  4G15G13G 2G 6
  22869299.4184   -3733506.32745  -2446112.93261
  19676462.2704  -19424792.60747 -14774848.66962
  20146022.0744  -18261863.05848 -14229988.36363
  19418608.0434  -26010035.89847 -16436935.21263
 91  5  6 23 13 59.9960000  0  4G15G13G 2G 6
  22872217.0984   -3718188.53145  -2434176.99561
  19670025.2704  -19458618.08447 -14801206.11962
  20148015.535   -18251387.890 8 -14221825.90723
  19418551.9654  -26010329.20447 -16437163.76663
 91  5  6 23 14 14.9960000  0  4G15G13G 2G 6
  22875157.7624   -3702734.17845  -2422134.63961
  19663615.4574  -19492303.34847 -14827454.31362
  20150019.4734  -18240859.23948 -14213621.77363
  19418519.7154  -26010495.77247
 91  5  6 23 14 29.9960000  0  4G15G13G 2G 6
  22878124.2074   -3687146.38745  -2409988.31961
  19657230.5824  -19525851.36547 -14853595.56562
  20152032.6764  -18230280.34648 -14205378.49163
  19418512.7854  -26010538.57047
 91  5  6 23 14 44.9960000  0  4G15G13G 2G 6
  22881118.1524   -3671424.73645  -2397737.66961
  19650873.7154  -19559261.44147 -14879629.32462
  20154053.8564  -18219650.66548 -14197095.63464
  19418528.7624  -26010456.90047
 91  5  6 23 14 59.9960000  0  4G15G13G 2G 6
  22884133.5664   -3655571.53045  -2385384.52161
  19644541.5204  -19592535.47947 -14905557.09062
  20156086.6294  -18208972.31748 -14188774.85164
  19418567.5664  -26010252.77947
 91  5  6 23 15 14.9960000  0  4G15G13G 2G 6
  22887172.106    -3639589.518 5  -2372931.00221
  19638234.1844  -19625675.94147 -14931380.76862
  20158128.9814  -18198247.79548 -14180418.09364
  19418627.6134  -26009928.64147
 91  5  6 23 15 29.9960000  0  4G15G13G 2G 6
  22890242.6374   -3623464.18045  -2360365.80661
  19631955.9264  -19658668.21547 -14957088.96962
  20160181.3564  -18187462.49648 -14172013.97264
  19418716.4734  -26009469.68447 -16436494.01663
 91  5  6 23 15 44.9960000  0  4G15G13G 2G 6
  22893339.5204   -3607210.33345  -2347700.46461
  19625703.7074  -19691526.66947 -14982692.90362
  20162242.0274  -18176630.95648 -14163573.81864
  19418827.6374  -26008890.40547 -16436042.63563
 91  5  6 23 15 59.9960000  0  4G15G13G 2G 6
  22896454.2854   -3590832.17045  -2334938.25761
  19619476.0744  -19724255.14847 -15008195.55362
  20164311.7464  -18165757.14048 -14155100.72563
  19418957.7774  -26008194.55947 -16435500.42063
 91  5  6 23 16 14.9960000  0  4G15G13G 2G 6
  22899592.660    -3574320.114 5  -2322071.72121
  19613274.2314  -19756843.91747 -15033589.34062
  20166389.8954  -18154831.60748 -14146587.33564
  19419115.5204  -26007372.43747 -16434859.80963
 91  5  6 23 16 29.9960000  0  4G15G13G 2G 6
  22902765.3564   -3557677.42545  -2309103.39161
  19607097.1524  -19789296.34247 -15058876.88262
  20168478.9494  -18143857.41848 -14138036.02864
  19419295.2074  -26006427.23747 -16434123.29563
 91  5  6 23 16 44.9960000  0  4G15G13G 2G 6
  22905954.4104   -3540901.17345  -2296030.98661
  19600949.8484  -19821608.91047 -15084055.44962
  20170576.082   -18132831.340 8 -14129444.29123
  19419499.2934  -26005355.52447 -16433288.19863
 91  5  6 23 16 59.9960000  0  4G15G13G 2G 6
  22909171.2384   -3523988.19645  -2282852.05461
  19594827.9104  -19853778.14647 -15109122.32762
  20172686.481   -18121749.851 8 -14120809.37724
  19419727.2624  -26004153.64347 -16432351.67163
 91  5  6 23 17 14.9960000  0  4G15G13G 2G 6
  22912415.8954   -3506944.38045  -2269571.15861
  19588732.3164  -19885809.72247 -15134081.93262
  20174802.816   -18110618.633 8 -14112135.71223
  19419980.2704  -26002827.32147 -16431318.17963
 91  5  6 23 17 29.9960000  0  4G15G13G 2G 6
  22915685.7854   -3489772.85045  -2256190.74661
  19582663.2464  -19917706.40847 -15158936.43462
  20176930.918   -18099440.777 8 -14103425.70823
  19420256.4734  -26001379.37547 -16430189.91963
 91  5  6 23 17 44.9960000  0  4G15G13G 2G 6
  22918977.973    -3472476.439 5  -2242713.04421
  19576618.8874  -19949470.67147 -15183687.74962
  20179067.535   -18088218.926 8 -14094681.41923
  19420552.6764  -25999812.15247 -16428968.71163
 91  5  6 23 17 59.9960000  0  4G15G13G 2G 6
  22922292.6064   -3455045.79545  -2229130.73061
  19570600.285   -19981093.099 7 -15208328.54022
  20181211.5984  -18076943.51048 -14085895.39363
  19420877.2854  -25998116.27647 -16427647.25863
 91  5  6 23 18 14.9960000  0  4G15G13G 2G 6
  22925630.1524   -3437480.99345  -2215443.87261
  19564610.7774  -20012573.35747 -15232858.55562
  20183366.941   -18065614.508 8 -14077067.61023
  19421224.8244  -25996291.50947 -16426225.36663
 91  5  6 23 18 29.9960000  0  4G15G13G 2G 6
  22929002.129    -3419784.072 5  -2201654.08921
  19558646.5824  -20043913.25047 -15257279.19162
  20185532.801   -18054233.710 8 -14068199.46823
  19421596.9734  -25994339.60747 -16424704.41163
 91  5  6 23 18 44.9960000  0  4G15G13G 2G 6
  22932393.301    -3401965.657 5  -2187769.63121
  19552707.121   -20075123.271 7 -15281598.63022
  20187707.106   -18042811.545 8 -14059299.09523
  19421989.4184  -25992270.79147 -16423092.35363
 91  5  6 23 18 59.9960000  0  4G15G13G 2G 6
  22935806.590    -3384016.837 5  -2173783.54521
  19546794.6994  -20106194.22447 -15305809.70762
  20189889.137   -18031339.060 7 -14050359.51123
  19422407.8094  -25990075.93747 -16421382.08763
 91  5  6 23 19 14.9960000  0  4G15G13G 2G 6
  22939250.848    -3365936.708 5  -2159695.16021
  19540909.0124  -20137124.69247 -15329911.31562
  20192082.129   -18019814.815 8 -14041379.59423
  19422848.9104  -25987753.80047 -16419572.64163
 91  5  6 23 19 29.9960000  0  4G15G13G 2G 6
  22942719.520    -3347726.227 5  -2145505.19921
  19535049.496   -20167915.453 7 -15353904.05322
  20194285.340   -18008239.878 7 -14032360.17623
  19423314.7384  -25985305.11947 -16417664.58763
 91  5  6 23 19 44.9960000  0  4G15G13G 2G 6
  22946205.3404   -3329387.15745  -2131215.01661
  19529216.7384  -20198568.06147 -15377789.14962
  20196496.707   -17996615.866 7 -14023302.51823
  19423806.0274  -25982731.27247 -16415659.00563
 91  5  6 23 19 59.9960000  0  4G15G13G 2G 6
  22949719.2544   -3310925.17445  -2116829.08261
  19523409.301   -20229087.899 7 -15401570.78322
  20198716.6684  -17984948.07447 -14014210.74163
  19424316.6214  -25980037.63647 -16413560.07863
 91  5  6 23 20 14.9960000  0  4G15G13G 2G 6
  22953254.0594   -3292330.59345  -2102339.81461
  19517628.3564  -20259464.98547 -15425241.18062
  20200948.816   -17973226.541 7 -14005077.09323
  19424852.9964  -25977214.01347 -16411359.86363
 91  5  6 23 20 29.9960000  0  4G15G13G 2G 6
  22956817.699    -3273606.827 5  -2087749.88421
  19511873.1684  -20289702.64647 -15448802.93662
  20203188.363   -17961454.749 7 -13995904.28123
  19425415.3714  -25974263.96247 -16409061.13263
 91  5  6 23 20 44.9960000  0  3G13G 2G 6
  19506147.340   -20319794.383 7 -15472250.98922
  20205438.652   -17949626.315 7 -13986687.33323
  19426002.676   -25971180.987 7 -16406658.82723
 91  5  6 23 20 59.9960000  0  3G13G 2G 6
  19500443.731   -20349763.495 7 -15495603.48822
  20207696.777   -17937764.624 7 -13977444.46723
  19426608.4264  -25967988.18947 -16404170.94263
 91  5  6 23 21 14.9960000  0  3G13G 2G 6
  19494767.3484  -20379597.34447 -15518850.58562
  20209962.207   -17925857.115 7 -13968165.90423
  19427240.6994  -25964673.05347 -16401587.73063
 91  5  6 23 21 29.9960000  0  3G13G 2G 6
  19489117.106   -20409289.659 7 -15541987.39922
  20212238.231   -17913897.689 7 -13958846.88323
  19427894.7154  -25961229.35847 -16398904.34063
 91  5  6 23 21 44.9960000  0  3G13G 2G 6
  19483493.270   -20438844.136 7 -15565016.80322
  20214522.8794  -17901889.86047 -13949490.14763
  19428576.1604  -25957660.44047 -16396123.37463
 91  5  6 23 21 59.9960000  0  3G13G 2G 6
  19477895.934   -20468259.250 7 -15587937.61722
  20216818.3244  -17889832.28247 -13940094.64063
  19429278.2314  -25953964.96247 -16393243.79163
 91  5  6 23 22 14.9960000  0  3G13G 2G 6
  19472323.871   -20497537.641 7 -15610751.89622
  20219121.4964  -17877727.51847 -13930662.36663
  19430006.465   -25950145.495 7 -16390267.59723
 91  5  6 23 22 29.9960000  0  3G13G 2G 6
  19466778.3634  -20526677.61247 -15633458.31062
  20221433.8954  -17865574.15647 -13921192.22363
  19430754.0044  -25946200.42847 -16387193.52663
 91  5  6 23 22 44.9960000  0  3G13G 2G 6
  19461260.895   -20555676.120 7 -15656054.49722
  20223757.066   -17853369.191 7 -13911681.87423
  19431529.2234  -25942126.67147 -16384019.18263
 91  5  6 23 22 59.9960000  0  3G13G 2G 6
  19455769.762   -20584529.725 7 -15678537.77122
  20226088.9184  -17841109.23247 -13902128.67063
  19432332.4104  -25937920.63547 -16380741.76363
 91  5  6 23 23 14.9960000  0  3G13G 2G 6
  19450304.199   -20613247.379 7 -15700915.11422
  20228430.5664  -17828803.11547 -13892539.49863
  19433157.0744  -25933591.18947 -16377368.17763
 91  5  6 23 23 29.9960000  0  3G13G 2G 6
  19444866.059   -20641824.441 7 -15723182.90422
  20230782.582   -17816446.354 7 -13882910.86623
  19434003.7464  -25929133.67747 -16373894.80063
 91  5  6 23 23 44.9960000  0  3G13G 2G 6
  19439456.324   -20670261.361 7 -15745341.48822
  20233143.723   -17804038.930 7 -13873242.75623
  19434876.5594  -25924548.27947 -16370321.77563
 91  5  6 23 23 59.9960000  0  3G13G 2G 6
  19434070.184   -20698556.093 7 -15767389.28222
  20235514.8714  -17791579.27947 -13863533.94863
  19435772.441   -25919833.054 7 -16366647.58823
 91  5  6 23 24 14.9960000  0  3G13G 2G 6
  19428711.824   -20726714.879 7 -15789331.14622
  20237895.2854  -17779073.75248 -13853789.39363
  19436695.0354  -25914994.42847 -16362877.24363
 91  5  6 23 24 29.9960000  0  3G13G 2G 6
  19423380.043   -20754739.971 7 -15811168.82622
  20240282.0824  -17766524.69048 -13844010.91663
  19437638.2384  -25910034.50947 -16359012.38263
 91  5  6 23 24 44.9960000  0  3G13G 2G 6
  19418074.496   -20782618.870 7 -15832892.59322
  20242680.348   -17753919.492 7 -13834188.69523
  19438608.606   -25904940.674 7 -16355043.17323
 91  5  6 23 24 59.9960000  0  3G13G 2G 6
  19412795.801   -20810356.358 7 -15854506.17022
  20245088.8094  -17741263.11447 -13824326.59663
  19439602.0274  -25899717.73947 -16350973.36762
 91  5  6 23 25 14.9960000  0  3G13G 2G 6
  19407544.574   -20837955.766 7 -15876012.15122
  20247508.582   -17728558.991 7 -13814427.29223
  19440617.5984  -25894369.12147 -16346805.62463
 91  5  6 23 25 29.9960000  0  3G13G 2G 6
  19402317.832   -20865418.570 7 -15897411.69422
  20249934.066   -17715808.722 7 -13804492.03223
  19441658.8714  -25888896.32047 -16342541.11463
 91  5  6 23 25 44.9960000  0  3G13G 2G 6
  19397118.168   -20892743.277 7 -15918703.62522
  20252367.2464  -17703010.54747 -13794519.43963
  19442726.2074  -25883297.70347 -16338178.56263
 91  5  6 23 25 59.9960000  0  3G13G 2G 6
  19391946.027   -20919930.659 7 -15939888.55222
  20254812.910   -17690165.442 7 -13784510.28323
  19443813.9574  -25877573.97347 -16333718.52763
 91  5  6 23 26 14.9960000  0  3G13G 2G 6
  19386795.457   -20946979.191 7 -15960965.28122
  20257266.090   -17677272.010 7 -13774463.46623
  19444927.223   -25871723.628 7 -16329159.82723
 91  5  6 23 26 29.9960000  0  3G13G 2G 6
  19381677.043   -20973884.979 7 -15981930.78322
  20259730.387   -17664326.106 7 -13764375.76223
  19446066.3954  -25865742.45747 -16324499.18862
 91  5  6 23 26 44.9960000  0  3G13G 2G 6
  19376581.902   -21000656.889 7 -16002791.96822
  20262202.160   -17651336.779 7 -13754254.22223
  19447227.8484  -25859639.32947 -16319743.51463
 91  5  6 23 26 59.9960000  0  3G13G 2G 6
  19371512.949   -21027297.343 7 -16023550.71422
  20264682.707   -17638306.310 7 -13744100.63023
  19448411.0124  -25853416.80947 -16314894.80762
 91  5  6 23 27 14.9960000  0  3G13G 2G 6
  19366470.856   -21053801.220 7 -16044203.04022
  20267168.856   -17625230.002 7 -13733911.31223
  19449621.1214  -25847069.90847 -16309949.17762
 91  5  6 23 27 29.9960000  0  3G13G 2G 6
  19361453.293   -21080157.423 7 -16064740.29722
  20269669.176   -17612096.694 7 -13723677.58223
  19450852.1064  -25840587.41347 -16304897.89262
 91  5  6 23 27 44.9960000  0  3G13G 2G 6
  19356463.621   -21106377.587 7 -16085171.55022
  20272177.426   -17598917.649 7 -13713408.21323
  19452109.6374  -25833980.69147 -16299749.80762
 91  5  6 23 27 59.9960000  0  3G13G 2G 6
  19351501.504   -21132462.305 7 -16105497.25522
  20274693.098   -17585693.967 7 -13703104.06623
  19453392.2234  -25827250.57547 -16294505.57563
 91  5  6 23 28 14.9960000  0  3G13G 2G 6
  19346564.145   -21158407.487 7 -16125714.23622
  20277217.254   -17572421.391 7 -13692761.81523
  19454697.3094  -25820392.88547 -16289161.92963
 91  5  6 23 28 29.9960000  0  3G13G 2G 6
  19341652.481   -21184213.153 7 -16145822.50022
  20279753.191   -17559099.716 7 -13682381.30423
  19456027.4574  -25813407.40247 -16283718.70863
 91  5  6 23 28 44.9960000  0  3G13G 2G 6
  19336770.301   -21209872.665 7 -16165816.87722
  20282297.926   -17545722.143 7 -13671957.23823
  19457381.5664  -25806287.33647 -16278170.61462
 91  5  6 23 28 59.9960000  0  3G13G 2G 6
  19331915.785   -21235382.767 7 -16185694.83822
  20284856.348   -17532285.700 7 -13661487.29523
  19458762.0514  -25799029.45847 -16272515.13262
 91  5  6 23 29 14.9960000  0  3G13G 2G 6
  19327086.012   -21260755.828 7 -16205466.00522
  20287420.973   -17518802.974 7 -13650981.29123
  19460167.3404  -25791646.32647 -16266762.05262
 91  5  6 23 29 29.9960000  0  3G13G 2G 6
  19322284.582   -21285993.695 7 -16225131.83122
  20289995.512   -17505275.844 8 -13640440.68723
  19461596.5744  -25784139.86947 -16260912.87363
 91  5  6 23 29 44.9960000  0  3G13G 2G 6
  19317508.777   -21311091.628 7 -16244688.61122
  20292579.699   -17491699.617 7 -13629861.82323
  19463050.1844  -25776505.16747 -16254963.76663
 91  5  6 23 29 59.9960000  0  3G13G 2G 6
  19312759.395   -21336046.173 7 -16264133.67222
  20295174.371   -17478070.570 7 -13619241.80823
  19464526.5274  -25768738.59647 -16248911.90263
 91  5  6 23 30 14.9960000  0  3G13G 2G 6
  19308037.293   -21360860.232 7 -16283469.25622
  20297778.441   -17464391.590 7 -13608582.87923
  19466027.4814  -25760842.85347 -16242759.38563
